<?xml version="1.0" encoding="UTF-8" standalone="no" ?>
<gpx xmlns="http://www.topografix.com/GPX/1/1" xmlns:xsi="http://www.w3.org/2001/XMLSchema-instance" xsi:schemaLocation="http://www.topografix.com/GPX/1/1 http://www.topografix.com/GPX/1/1/gpx.xsd" version="1.1" creator="VisuGPX - https://www.visugpx.com">
  <metadata>
    <name>Pic Saint Michel</name>
    <desc><![CDATA[
			
		]]></desc>
  </metadata>
  <trk>
    <name><![CDATA[
			Pic Saint Michel 
		]]></name>
    <desc><![CDATA[
			
		]]></desc>
    <trkseg>
      <trkpt lat="45.10707" lon="5.60372">
        <ele>1298</ele>
        <time>2013-03-09T13:22:18.000Z</time>
      </trkpt>
      <trkpt lat="45.09375" lon="5.60437">
        <ele>1484</ele>
        <time>2013-03-09T13:43:35.000Z</time>
      </trkpt>
      <trkpt lat="45.0937" lon="5.60474">
        <ele>1488</ele>
        <time>2013-03-09T13:43:50.000Z</time>
      </trkpt>
      <trkpt lat="45.09372" lon="5.60463">
        <ele>1487</ele>
        <time>2013-03-09T13:43:51.000Z</time>
      </trkpt>
      <trkpt lat="45.09387" lon="5.60467">
        <ele>1487</ele>
        <time>2013-03-09T13:43:52.000Z</time>
      </trkpt>
      <trkpt lat="45.09376" lon="5.60485">
        <ele>1489</ele>
        <time>2013-03-09T13:43:53.000Z</time>
      </trkpt>
      <trkpt lat="45.09381" lon="5.60483">
        <ele>1489</ele>
        <time>2013-03-09T13:43:54.000Z</time>
      </trkpt>
      <trkpt lat="45.09368" lon="5.60505">
        <ele>1502</ele>
        <time>2013-03-09T13:43:55.000Z</time>
      </trkpt>
      <trkpt lat="45.09365" lon="5.60509">
        <ele>1502</ele>
        <time>2013-03-09T13:43:56.000Z</time>
      </trkpt>
      <trkpt lat="45.0936" lon="5.60511">
        <ele>1502</ele>
        <time>2013-03-09T13:43:57.000Z</time>
      </trkpt>
      <trkpt lat="45.09364" lon="5.60516">
        <ele>1503</ele>
        <time>2013-03-09T13:43:58.000Z</time>
      </trkpt>
      <trkpt lat="45.09366" lon="5.60488">
        <ele>1490</ele>
        <time>2013-03-09T13:43:59.000Z</time>
      </trkpt>
      <trkpt lat="45.09374" lon="5.60504">
        <ele>1502</ele>
        <time>2013-03-09T13:44:27.000Z</time>
      </trkpt>
      <trkpt lat="45.09356" lon="5.60532">
        <ele>1504</ele>
        <time>2013-03-09T13:44:49.000Z</time>
      </trkpt>
      <trkpt lat="45.0935" lon="5.60548">
        <ele>1507</ele>
        <time>2013-03-09T13:44:50.000Z</time>
      </trkpt>
      <trkpt lat="45.09351" lon="5.60536">
        <ele>1505</ele>
        <time>2013-03-09T13:44:51.000Z</time>
      </trkpt>
      <trkpt lat="45.09349" lon="5.60534">
        <ele>1505</ele>
        <time>2013-03-09T13:44:52.000Z</time>
      </trkpt>
      <trkpt lat="45.09363" lon="5.60531">
        <ele>1504</ele>
        <time>2013-03-09T13:44:54.000Z</time>
      </trkpt>
      <trkpt lat="45.09359" lon="5.60538">
        <ele>1505</ele>
        <time>2013-03-09T13:45:14.000Z</time>
      </trkpt>
      <trkpt lat="45.09353" lon="5.60544">
        <ele>1506</ele>
        <time>2013-03-09T13:45:15.000Z</time>
      </trkpt>
      <trkpt lat="45.09343" lon="5.60567">
        <ele>1510</ele>
        <time>2013-03-09T13:45:16.000Z</time>
      </trkpt>
      <trkpt lat="45.0935" lon="5.60565">
        <ele>1509</ele>
        <time>2013-03-09T13:45:17.000Z</time>
      </trkpt>
      <trkpt lat="45.09341" lon="5.60566">
        <ele>1510</ele>
        <time>2013-03-09T13:45:20.000Z</time>
      </trkpt>
      <trkpt lat="45.09361" lon="5.60584">
        <ele>1523</ele>
        <time>2013-03-09T13:45:41.000Z</time>
      </trkpt>
      <trkpt lat="45.09361" lon="5.60586">
        <ele>1523</ele>
        <time>2013-03-09T13:45:46.000Z</time>
      </trkpt>
      <trkpt lat="45.09358" lon="5.6059">
        <ele>1523</ele>
        <time>2013-03-09T13:45:47.000Z</time>
      </trkpt>
      <trkpt lat="45.09357" lon="5.60593">
        <ele>1524</ele>
        <time>2013-03-09T13:45:50.000Z</time>
      </trkpt>
      <trkpt lat="45.09351" lon="5.60599">
        <ele>1524</ele>
        <time>2013-03-09T13:45:51.000Z</time>
      </trkpt>
      <trkpt lat="45.09354" lon="5.60602">
        <ele>1525</ele>
        <time>2013-03-09T13:45:54.000Z</time>
      </trkpt>
      <trkpt lat="45.0936" lon="5.60607">
        <ele>1526</ele>
        <time>2013-03-09T13:46:01.000Z</time>
      </trkpt>
      <trkpt lat="45.09361" lon="5.60613">
        <ele>1527</ele>
        <time>2013-03-09T13:46:04.000Z</time>
      </trkpt>
      <trkpt lat="45.09363" lon="5.60613">
        <ele>1527</ele>
        <time>2013-03-09T13:46:05.000Z</time>
      </trkpt>
      <trkpt lat="45.09365" lon="5.60615">
        <ele>1527</ele>
        <time>2013-03-09T13:46:10.000Z</time>
      </trkpt>
      <trkpt lat="45.09367" lon="5.60614">
        <ele>1527</ele>
        <time>2013-03-09T13:46:11.000Z</time>
      </trkpt>
      <trkpt lat="45.09369" lon="5.60615">
        <ele>1527</ele>
        <time>2013-03-09T13:46:14.000Z</time>
      </trkpt>
      <trkpt lat="45.09371" lon="5.60619">
        <ele>1528</ele>
        <time>2013-03-09T13:46:16.000Z</time>
      </trkpt>
      <trkpt lat="45.09374" lon="5.6062">
        <ele>1528</ele>
        <time>2013-03-09T13:46:20.000Z</time>
      </trkpt>
      <trkpt lat="45.09376" lon="5.6062">
        <ele>1528</ele>
        <time>2013-03-09T13:46:21.000Z</time>
      </trkpt>
      <trkpt lat="45.09379" lon="5.60621">
        <ele>1528</ele>
        <time>2013-03-09T13:46:25.000Z</time>
      </trkpt>
      <trkpt lat="45.0938" lon="5.60628">
        <ele>1529</ele>
        <time>2013-03-09T13:46:32.000Z</time>
      </trkpt>
      <trkpt lat="45.09382" lon="5.60632">
        <ele>1529</ele>
        <time>2013-03-09T13:46:35.000Z</time>
      </trkpt>
      <trkpt lat="45.09384" lon="5.60632">
        <ele>1529</ele>
        <time>2013-03-09T13:46:36.000Z</time>
      </trkpt>
      <trkpt lat="45.09388" lon="5.60633">
        <ele>1530</ele>
        <time>2013-03-09T13:46:39.000Z</time>
      </trkpt>
      <trkpt lat="45.0939" lon="5.60633">
        <ele>1530</ele>
        <time>2013-03-09T13:46:40.000Z</time>
      </trkpt>
      <trkpt lat="45.09391" lon="5.60636">
        <ele>1530</ele>
        <time>2013-03-09T13:46:43.000Z</time>
      </trkpt>
      <trkpt lat="45.09396" lon="5.60641">
        <ele>1531</ele>
        <time>2013-03-09T13:46:50.000Z</time>
      </trkpt>
      <trkpt lat="45.094" lon="5.60643">
        <ele>1532</ele>
        <time>2013-03-09T13:46:55.000Z</time>
      </trkpt>
      <trkpt lat="45.09401" lon="5.60645">
        <ele>1532</ele>
        <time>2013-03-09T13:46:56.000Z</time>
      </trkpt>
      <trkpt lat="45.09404" lon="5.60647">
        <ele>1533</ele>
        <time>2013-03-09T13:46:59.000Z</time>
      </trkpt>
      <trkpt lat="45.09405" lon="5.60648">
        <ele>1533</ele>
        <time>2013-03-09T13:47:00.000Z</time>
      </trkpt>
      <trkpt lat="45.09405" lon="5.60648">
        <ele>1533</ele>
        <time>2013-03-09T13:47:01.000Z</time>
      </trkpt>
      <trkpt lat="45.0941" lon="5.60652">
        <ele>1535</ele>
        <time>2013-03-09T13:47:08.000Z</time>
      </trkpt>
      <trkpt lat="45.09411" lon="5.60655">
        <ele>1536</ele>
        <time>2013-03-09T13:47:13.000Z</time>
      </trkpt>
      <trkpt lat="45.09412" lon="5.60658">
        <ele>1537</ele>
        <time>2013-03-09T13:47:15.000Z</time>
      </trkpt>
      <trkpt lat="45.09416" lon="5.60661">
        <ele>1538</ele>
        <time>2013-03-09T13:47:19.000Z</time>
      </trkpt>
      <trkpt lat="45.09417" lon="5.60661">
        <ele>1538</ele>
        <time>2013-03-09T13:47:20.000Z</time>
      </trkpt>
      <trkpt lat="45.0942" lon="5.60664">
        <ele>1538</ele>
        <time>2013-03-09T13:47:24.000Z</time>
      </trkpt>
      <trkpt lat="45.09421" lon="5.60665">
        <ele>1538</ele>
        <time>2013-03-09T13:47:25.000Z</time>
      </trkpt>
      <trkpt lat="45.09422" lon="5.60665">
        <ele>1538</ele>
        <time>2013-03-09T13:47:26.000Z</time>
      </trkpt>
      <trkpt lat="45.09427" lon="5.60668">
        <ele>1547</ele>
        <time>2013-03-09T13:47:33.000Z</time>
      </trkpt>
      <trkpt lat="45.09427" lon="5.60672">
        <ele>1548</ele>
        <time>2013-03-09T13:47:38.000Z</time>
      </trkpt>
      <trkpt lat="45.0943" lon="5.60673">
        <ele>1549</ele>
        <time>2013-03-09T13:47:39.000Z</time>
      </trkpt>
      <trkpt lat="45.09433" lon="5.60676">
        <ele>1550</ele>
        <time>2013-03-09T13:47:43.000Z</time>
      </trkpt>
      <trkpt lat="45.09434" lon="5.60676">
        <ele>1550</ele>
        <time>2013-03-09T13:47:44.000Z</time>
      </trkpt>
      <trkpt lat="45.09436" lon="5.60679">
        <ele>1552</ele>
        <time>2013-03-09T13:47:59.000Z</time>
      </trkpt>
      <trkpt lat="45.09438" lon="5.60679">
        <ele>1552</ele>
        <time>2013-03-09T13:48:00.000Z</time>
      </trkpt>
      <trkpt lat="45.09439" lon="5.60682">
        <ele>1553</ele>
        <time>2013-03-09T13:48:02.000Z</time>
      </trkpt>
      <trkpt lat="45.09446" lon="5.60688">
        <ele>1555</ele>
        <time>2013-03-09T13:48:09.000Z</time>
      </trkpt>
      <trkpt lat="45.09449" lon="5.60693">
        <ele>1556</ele>
        <time>2013-03-09T13:48:13.000Z</time>
      </trkpt>
      <trkpt lat="45.09452" lon="5.60693">
        <ele>1556</ele>
        <time>2013-03-09T13:48:15.000Z</time>
      </trkpt>
      <trkpt lat="45.09455" lon="5.60694">
        <ele>1556</ele>
        <time>2013-03-09T13:48:18.000Z</time>
      </trkpt>
      <trkpt lat="45.09456" lon="5.60693">
        <ele>1556</ele>
        <time>2013-03-09T13:48:19.000Z</time>
      </trkpt>
      <trkpt lat="45.09459" lon="5.60697">
        <ele>1556</ele>
        <time>2013-03-09T13:48:22.000Z</time>
      </trkpt>
      <trkpt lat="45.09459" lon="5.60699">
        <ele>1557</ele>
        <time>2013-03-09T13:48:23.000Z</time>
      </trkpt>
      <trkpt lat="45.09461" lon="5.60703">
        <ele>1558</ele>
        <time>2013-03-09T13:48:26.000Z</time>
      </trkpt>
      <trkpt lat="45.09462" lon="5.60711">
        <ele>1559</ele>
        <time>2013-03-09T13:48:33.000Z</time>
      </trkpt>
      <trkpt lat="45.09466" lon="5.60714">
        <ele>1560</ele>
        <time>2013-03-09T13:48:37.000Z</time>
      </trkpt>
      <trkpt lat="45.09468" lon="5.6071">
        <ele>1559</ele>
        <time>2013-03-09T13:48:38.000Z</time>
      </trkpt>
      <trkpt lat="45.09475" lon="5.60713">
        <ele>1560</ele>
        <time>2013-03-09T13:48:39.000Z</time>
      </trkpt>
      <trkpt lat="45.09481" lon="5.60713">
        <ele>1560</ele>
        <time>2013-03-09T13:48:40.000Z</time>
      </trkpt>
      <trkpt lat="45.09477" lon="5.60716">
        <ele>1560</ele>
        <time>2013-03-09T13:48:51.000Z</time>
      </trkpt>
      <trkpt lat="45.09477" lon="5.60716">
        <ele>1561</ele>
        <time>2013-03-09T13:48:53.000Z</time>
      </trkpt>
      <trkpt lat="45.09475" lon="5.60721">
        <ele>1562</ele>
        <time>2013-03-09T13:48:56.000Z</time>
      </trkpt>
      <trkpt lat="45.09476" lon="5.60725">
        <ele>1563</ele>
        <time>2013-03-09T13:48:57.000Z</time>
      </trkpt>
      <trkpt lat="45.09479" lon="5.60728">
        <ele>1564</ele>
        <time>2013-03-09T13:49:02.000Z</time>
      </trkpt>
      <trkpt lat="45.09483" lon="5.60734">
        <ele>1565</ele>
        <time>2013-03-09T13:49:09.000Z</time>
      </trkpt>
      <trkpt lat="45.09486" lon="5.60736">
        <ele>1566</ele>
        <time>2013-03-09T13:49:14.000Z</time>
      </trkpt>
      <trkpt lat="45.09489" lon="5.60736">
        <ele>1567</ele>
        <time>2013-03-09T13:49:15.000Z</time>
      </trkpt>
      <trkpt lat="45.09491" lon="5.6074">
        <ele>1569</ele>
        <time>2013-03-09T13:49:19.000Z</time>
      </trkpt>
      <trkpt lat="45.09493" lon="5.60741">
        <ele>1569</ele>
        <time>2013-03-09T13:49:20.000Z</time>
      </trkpt>
      <trkpt lat="45.09501" lon="5.60742">
        <ele>1569</ele>
        <time>2013-03-09T13:49:27.000Z</time>
      </trkpt>
      <trkpt lat="45.0952" lon="5.60736">
        <ele>1563</ele>
        <time>2013-03-09T13:49:32.000Z</time>
      </trkpt>
      <trkpt lat="45.09513" lon="5.60738">
        <ele>1565</ele>
        <time>2013-03-09T13:49:33.000Z</time>
      </trkpt>
      <trkpt lat="45.09511" lon="5.6074">
        <ele>1566</ele>
        <time>2013-03-09T13:49:34.000Z</time>
      </trkpt>
      <trkpt lat="45.09507" lon="5.60743">
        <ele>1568</ele>
        <time>2013-03-09T13:49:35.000Z</time>
      </trkpt>
      <trkpt lat="45.09507" lon="5.60749">
        <ele>1570</ele>
        <time>2013-03-09T13:49:39.000Z</time>
      </trkpt>
      <trkpt lat="45.09508" lon="5.60751">
        <ele>1579</ele>
        <time>2013-03-09T13:49:40.000Z</time>
      </trkpt>
      <trkpt lat="45.09509" lon="5.60751">
        <ele>1579</ele>
        <time>2013-03-09T13:49:41.000Z</time>
      </trkpt>
      <trkpt lat="45.09513" lon="5.60754">
        <ele>1581</ele>
        <time>2013-03-09T13:49:48.000Z</time>
      </trkpt>
      <trkpt lat="45.09516" lon="5.60759">
        <ele>1583</ele>
        <time>2013-03-09T13:49:58.000Z</time>
      </trkpt>
      <trkpt lat="45.09518" lon="5.6076">
        <ele>1583</ele>
        <time>2013-03-09T13:49:59.000Z</time>
      </trkpt>
      <trkpt lat="45.09522" lon="5.60767">
        <ele>1585</ele>
        <time>2013-03-09T13:50:06.000Z</time>
      </trkpt>
      <trkpt lat="45.09526" lon="5.60769">
        <ele>1586</ele>
        <time>2013-03-09T13:50:09.000Z</time>
      </trkpt>
      <trkpt lat="45.09527" lon="5.60771">
        <ele>1586</ele>
        <time>2013-03-09T13:50:10.000Z</time>
      </trkpt>
      <trkpt lat="45.0953" lon="5.60773">
        <ele>1587</ele>
        <time>2013-03-09T13:50:15.000Z</time>
      </trkpt>
      <trkpt lat="45.09531" lon="5.60773">
        <ele>1587</ele>
        <time>2013-03-09T13:50:17.000Z</time>
      </trkpt>
      <trkpt lat="45.09534" lon="5.60779">
        <ele>1588</ele>
        <time>2013-03-09T13:50:22.000Z</time>
      </trkpt>
      <trkpt lat="45.09535" lon="5.60779">
        <ele>1588</ele>
        <time>2013-03-09T13:50:23.000Z</time>
      </trkpt>
      <trkpt lat="45.09537" lon="5.60779">
        <ele>1588</ele>
        <time>2013-03-09T13:50:26.000Z</time>
      </trkpt>
      <trkpt lat="45.0954" lon="5.60783">
        <ele>1589</ele>
        <time>2013-03-09T13:50:33.000Z</time>
      </trkpt>
      <trkpt lat="45.09543" lon="5.60786">
        <ele>1589</ele>
        <time>2013-03-09T13:50:39.000Z</time>
      </trkpt>
      <trkpt lat="45.09544" lon="5.60787">
        <ele>1590</ele>
        <time>2013-03-09T13:50:40.000Z</time>
      </trkpt>
      <trkpt lat="45.09548" lon="5.60788">
        <ele>1590</ele>
        <time>2013-03-09T13:50:44.000Z</time>
      </trkpt>
      <trkpt lat="45.09549" lon="5.6079">
        <ele>1590</ele>
        <time>2013-03-09T13:50:51.000Z</time>
      </trkpt>
      <trkpt lat="45.09548" lon="5.60792">
        <ele>1591</ele>
        <time>2013-03-09T13:50:59.000Z</time>
      </trkpt>
      <trkpt lat="45.09545" lon="5.60795">
        <ele>1591</ele>
        <time>2013-03-09T13:51:00.000Z</time>
      </trkpt>
      <trkpt lat="45.09543" lon="5.60797">
        <ele>1592</ele>
        <time>2013-03-09T13:51:02.000Z</time>
      </trkpt>
      <trkpt lat="45.09538" lon="5.608">
        <ele>1593</ele>
        <time>2013-03-09T13:51:09.000Z</time>
      </trkpt>
      <trkpt lat="45.09536" lon="5.60804">
        <ele>1593</ele>
        <time>2013-03-09T13:51:12.000Z</time>
      </trkpt>
      <trkpt lat="45.09534" lon="5.60804">
        <ele>1594</ele>
        <time>2013-03-09T13:51:13.000Z</time>
      </trkpt>
      <trkpt lat="45.09531" lon="5.60808">
        <ele>1594</ele>
        <time>2013-03-09T13:51:16.000Z</time>
      </trkpt>
      <trkpt lat="45.0953" lon="5.60809">
        <ele>1595</ele>
        <time>2013-03-09T13:51:17.000Z</time>
      </trkpt>
      <trkpt lat="45.09528" lon="5.60813">
        <ele>1596</ele>
        <time>2013-03-09T13:51:20.000Z</time>
      </trkpt>
      <trkpt lat="45.09521" lon="5.60816">
        <ele>1597</ele>
        <time>2013-03-09T13:51:27.000Z</time>
      </trkpt>
      <trkpt lat="45.09518" lon="5.60816">
        <ele>1598</ele>
        <time>2013-03-09T13:51:30.000Z</time>
      </trkpt>
      <trkpt lat="45.09516" lon="5.60814">
        <ele>1598</ele>
        <time>2013-03-09T13:51:31.000Z</time>
      </trkpt>
      <trkpt lat="45.09513" lon="5.60816">
        <ele>1599</ele>
        <time>2013-03-09T13:51:33.000Z</time>
      </trkpt>
      <trkpt lat="45.09512" lon="5.60818">
        <ele>1600</ele>
        <time>2013-03-09T13:51:34.000Z</time>
      </trkpt>
      <trkpt lat="45.09509" lon="5.60817">
        <ele>1600</ele>
        <time>2013-03-09T13:51:37.000Z</time>
      </trkpt>
      <trkpt lat="45.09507" lon="5.60816">
        <ele>1599</ele>
        <time>2013-03-09T13:51:38.000Z</time>
      </trkpt>
      <trkpt lat="45.09501" lon="5.60816">
        <ele>1600</ele>
        <time>2013-03-09T13:51:45.000Z</time>
      </trkpt>
      <trkpt lat="45.09499" lon="5.60817">
        <ele>1603</ele>
        <time>2013-03-09T13:51:47.000Z</time>
      </trkpt>
      <trkpt lat="45.09496" lon="5.60818">
        <ele>1603</ele>
        <time>2013-03-09T13:51:48.000Z</time>
      </trkpt>
      <trkpt lat="45.09492" lon="5.60821">
        <ele>1604</ele>
        <time>2013-03-09T13:51:51.000Z</time>
      </trkpt>
      <trkpt lat="45.09492" lon="5.60821">
        <ele>1604</ele>
        <time>2013-03-09T13:51:52.000Z</time>
      </trkpt>
      <trkpt lat="45.09489" lon="5.60823">
        <ele>1604</ele>
        <time>2013-03-09T13:51:55.000Z</time>
      </trkpt>
      <trkpt lat="45.09488" lon="5.60824">
        <ele>1604</ele>
        <time>2013-03-09T13:51:56.000Z</time>
      </trkpt>
      <trkpt lat="45.09481" lon="5.60827">
        <ele>1603</ele>
        <time>2013-03-09T13:52:03.000Z</time>
      </trkpt>
      <trkpt lat="45.09476" lon="5.60826">
        <ele>1602</ele>
        <time>2013-03-09T13:52:07.000Z</time>
      </trkpt>
      <trkpt lat="45.09476" lon="5.60825">
        <ele>1602</ele>
        <time>2013-03-09T13:52:08.000Z</time>
      </trkpt>
      <trkpt lat="45.09474" lon="5.60825">
        <ele>1602</ele>
        <time>2013-03-09T13:52:14.000Z</time>
      </trkpt>
      <trkpt lat="45.09469" lon="5.60823">
        <ele>1601</ele>
        <time>2013-03-09T13:52:21.000Z</time>
      </trkpt>
      <trkpt lat="45.09465" lon="5.60826">
        <ele>1602</ele>
        <time>2013-03-09T13:52:27.000Z</time>
      </trkpt>
      <trkpt lat="45.09464" lon="5.60826">
        <ele>1602</ele>
        <time>2013-03-09T13:52:28.000Z</time>
      </trkpt>
      <trkpt lat="45.09462" lon="5.60827">
        <ele>1602</ele>
        <time>2013-03-09T13:52:31.000Z</time>
      </trkpt>
      <trkpt lat="45.0946" lon="5.60827">
        <ele>1602</ele>
        <time>2013-03-09T13:52:32.000Z</time>
      </trkpt>
      <trkpt lat="45.09454" lon="5.6083">
        <ele>1603</ele>
        <time>2013-03-09T13:52:39.000Z</time>
      </trkpt>
      <trkpt lat="45.09449" lon="5.60829">
        <ele>1603</ele>
        <time>2013-03-09T13:52:44.000Z</time>
      </trkpt>
      <trkpt lat="45.09448" lon="5.60829">
        <ele>1603</ele>
        <time>2013-03-09T13:52:45.000Z</time>
      </trkpt>
      <trkpt lat="45.09452" lon="5.60829">
        <ele>1603</ele>
        <time>2013-03-09T13:52:57.000Z</time>
      </trkpt>
      <trkpt lat="45.09453" lon="5.60829">
        <ele>1603</ele>
        <time>2013-03-09T13:52:59.000Z</time>
      </trkpt>
      <trkpt lat="45.0945" lon="5.60834">
        <ele>1618</ele>
        <time>2013-03-09T13:53:08.000Z</time>
      </trkpt>
      <trkpt lat="45.09445" lon="5.60835">
        <ele>1618</ele>
        <time>2013-03-09T13:53:15.000Z</time>
      </trkpt>
      <trkpt lat="45.0944" lon="5.60835">
        <ele>1618</ele>
        <time>2013-03-09T13:53:21.000Z</time>
      </trkpt>
      <trkpt lat="45.09439" lon="5.60835">
        <ele>1618</ele>
        <time>2013-03-09T13:53:22.000Z</time>
      </trkpt>
      <trkpt lat="45.09436" lon="5.60836">
        <ele>1618</ele>
        <time>2013-03-09T13:53:26.000Z</time>
      </trkpt>
      <trkpt lat="45.09431" lon="5.60839">
        <ele>1618</ele>
        <time>2013-03-09T13:53:33.000Z</time>
      </trkpt>
      <trkpt lat="45.09427" lon="5.60841">
        <ele>1618</ele>
        <time>2013-03-09T13:53:37.000Z</time>
      </trkpt>
      <trkpt lat="45.09426" lon="5.60842">
        <ele>1618</ele>
        <time>2013-03-09T13:53:38.000Z</time>
      </trkpt>
      <trkpt lat="45.09423" lon="5.60845">
        <ele>1618</ele>
        <time>2013-03-09T13:53:41.000Z</time>
      </trkpt>
      <trkpt lat="45.09422" lon="5.60846">
        <ele>1618</ele>
        <time>2013-03-09T13:53:42.000Z</time>
      </trkpt>
      <trkpt lat="45.0942" lon="5.60847">
        <ele>1618</ele>
        <time>2013-03-09T13:53:44.000Z</time>
      </trkpt>
      <trkpt lat="45.09413" lon="5.6085">
        <ele>1622</ele>
        <time>2013-03-09T13:53:51.000Z</time>
      </trkpt>
      <trkpt lat="45.0941" lon="5.60853">
        <ele>1623</ele>
        <time>2013-03-09T13:53:56.000Z</time>
      </trkpt>
      <trkpt lat="45.09409" lon="5.60853">
        <ele>1623</ele>
        <time>2013-03-09T13:53:57.000Z</time>
      </trkpt>
      <trkpt lat="45.09404" lon="5.60854">
        <ele>1624</ele>
        <time>2013-03-09T13:54:02.000Z</time>
      </trkpt>
      <trkpt lat="45.09399" lon="5.60855">
        <ele>1624</ele>
        <time>2013-03-09T13:54:09.000Z</time>
      </trkpt>
      <trkpt lat="45.09396" lon="5.60858">
        <ele>1625</ele>
        <time>2013-03-09T13:54:17.000Z</time>
      </trkpt>
      <trkpt lat="45.09395" lon="5.6086">
        <ele>1625</ele>
        <time>2013-03-09T13:54:18.000Z</time>
      </trkpt>
      <trkpt lat="45.09394" lon="5.60861">
        <ele>1625</ele>
        <time>2013-03-09T13:54:20.000Z</time>
      </trkpt>
      <trkpt lat="45.09389" lon="5.60867">
        <ele>1626</ele>
        <time>2013-03-09T13:54:27.000Z</time>
      </trkpt>
      <trkpt lat="45.09386" lon="5.6087">
        <ele>1627</ele>
        <time>2013-03-09T13:54:31.000Z</time>
      </trkpt>
      <trkpt lat="45.09385" lon="5.60871">
        <ele>1627</ele>
        <time>2013-03-09T13:54:32.000Z</time>
      </trkpt>
      <trkpt lat="45.09381" lon="5.60872">
        <ele>1627</ele>
        <time>2013-03-09T13:54:37.000Z</time>
      </trkpt>
      <trkpt lat="45.0938" lon="5.60873">
        <ele>1627</ele>
        <time>2013-03-09T13:54:38.000Z</time>
      </trkpt>
      <trkpt lat="45.09364" lon="5.60872">
        <ele>1628</ele>
        <time>2013-03-09T13:54:45.000Z</time>
      </trkpt>
      <trkpt lat="45.0936" lon="5.60874">
        <ele>1629</ele>
        <time>2013-03-09T13:54:47.000Z</time>
      </trkpt>
      <trkpt lat="45.09358" lon="5.60875">
        <ele>1629</ele>
        <time>2013-03-09T13:54:48.000Z</time>
      </trkpt>
      <trkpt lat="45.09354" lon="5.60877">
        <ele>1629</ele>
        <time>2013-03-09T13:54:50.000Z</time>
      </trkpt>
      <trkpt lat="45.09353" lon="5.60877">
        <ele>1629</ele>
        <time>2013-03-09T13:54:51.000Z</time>
      </trkpt>
      <trkpt lat="45.09352" lon="5.60881">
        <ele>1630</ele>
        <time>2013-03-09T13:54:55.000Z</time>
      </trkpt>
      <trkpt lat="45.0935" lon="5.60883">
        <ele>1630</ele>
        <time>2013-03-09T13:54:56.000Z</time>
      </trkpt>
      <trkpt lat="45.09345" lon="5.6089">
        <ele>1631</ele>
        <time>2013-03-09T13:55:03.000Z</time>
      </trkpt>
      <trkpt lat="45.09344" lon="5.60894">
        <ele>1632</ele>
        <time>2013-03-09T13:55:07.000Z</time>
      </trkpt>
      <trkpt lat="45.09341" lon="5.60897">
        <ele>1633</ele>
        <time>2013-03-09T13:55:08.000Z</time>
      </trkpt>
      <trkpt lat="45.09337" lon="5.609">
        <ele>1634</ele>
        <time>2013-03-09T13:55:10.000Z</time>
      </trkpt>
      <trkpt lat="45.09336" lon="5.60901">
        <ele>1634</ele>
        <time>2013-03-09T13:55:11.000Z</time>
      </trkpt>
      <trkpt lat="45.09333" lon="5.60904">
        <ele>1639</ele>
        <time>2013-03-09T13:55:13.000Z</time>
      </trkpt>
      <trkpt lat="45.09333" lon="5.60907">
        <ele>1639</ele>
        <time>2013-03-09T13:55:15.000Z</time>
      </trkpt>
      <trkpt lat="45.09331" lon="5.60911">
        <ele>1639</ele>
        <time>2013-03-09T13:55:19.000Z</time>
      </trkpt>
      <trkpt lat="45.0933" lon="5.60913">
        <ele>1639</ele>
        <time>2013-03-09T13:55:20.000Z</time>
      </trkpt>
      <trkpt lat="45.09328" lon="5.60918">
        <ele>1641</ele>
        <time>2013-03-09T13:55:25.000Z</time>
      </trkpt>
      <trkpt lat="45.09327" lon="5.60919">
        <ele>1641</ele>
        <time>2013-03-09T13:55:26.000Z</time>
      </trkpt>
      <trkpt lat="45.09324" lon="5.60928">
        <ele>1643</ele>
        <time>2013-03-09T13:55:33.000Z</time>
      </trkpt>
      <trkpt lat="45.09323" lon="5.60933">
        <ele>1643</ele>
        <time>2013-03-09T13:55:36.000Z</time>
      </trkpt>
      <trkpt lat="45.09323" lon="5.60935">
        <ele>1643</ele>
        <time>2013-03-09T13:55:37.000Z</time>
      </trkpt>
      <trkpt lat="45.09321" lon="5.60938">
        <ele>1644</ele>
        <time>2013-03-09T13:55:40.000Z</time>
      </trkpt>
      <trkpt lat="45.09319" lon="5.60939">
        <ele>1644</ele>
        <time>2013-03-09T13:55:41.000Z</time>
      </trkpt>
      <trkpt lat="45.09317" lon="5.60942">
        <ele>1644</ele>
        <time>2013-03-09T13:55:44.000Z</time>
      </trkpt>
      <trkpt lat="45.09315" lon="5.6095">
        <ele>1645</ele>
        <time>2013-03-09T13:55:51.000Z</time>
      </trkpt>
      <trkpt lat="45.09313" lon="5.60956">
        <ele>1645</ele>
        <time>2013-03-09T13:55:55.000Z</time>
      </trkpt>
      <trkpt lat="45.09313" lon="5.60958">
        <ele>1645</ele>
        <time>2013-03-09T13:55:56.000Z</time>
      </trkpt>
      <trkpt lat="45.09312" lon="5.60962">
        <ele>1645</ele>
        <time>2013-03-09T13:55:59.000Z</time>
      </trkpt>
      <trkpt lat="45.09311" lon="5.60964">
        <ele>1645</ele>
        <time>2013-03-09T13:56:00.000Z</time>
      </trkpt>
      <trkpt lat="45.0931" lon="5.60966">
        <ele>1645</ele>
        <time>2013-03-09T13:56:02.000Z</time>
      </trkpt>
      <trkpt lat="45.09308" lon="5.60976">
        <ele>1646</ele>
        <time>2013-03-09T13:56:09.000Z</time>
      </trkpt>
      <trkpt lat="45.09305" lon="5.60981">
        <ele>1646</ele>
        <time>2013-03-09T13:56:14.000Z</time>
      </trkpt>
      <trkpt lat="45.09304" lon="5.60981">
        <ele>1646</ele>
        <time>2013-03-09T13:56:15.000Z</time>
      </trkpt>
      <trkpt lat="45.09305" lon="5.60986">
        <ele>1646</ele>
        <time>2013-03-09T13:56:20.000Z</time>
      </trkpt>
      <trkpt lat="45.09304" lon="5.60995">
        <ele>1646</ele>
        <time>2013-03-09T13:56:27.000Z</time>
      </trkpt>
      <trkpt lat="45.09301" lon="5.61">
        <ele>1647</ele>
        <time>2013-03-09T13:56:31.000Z</time>
      </trkpt>
      <trkpt lat="45.093" lon="5.61001">
        <ele>1655</ele>
        <time>2013-03-09T13:56:32.000Z</time>
      </trkpt>
      <trkpt lat="45.09298" lon="5.61004">
        <ele>1656</ele>
        <time>2013-03-09T13:56:36.000Z</time>
      </trkpt>
      <trkpt lat="45.09297" lon="5.61006">
        <ele>1656</ele>
        <time>2013-03-09T13:56:37.000Z</time>
      </trkpt>
      <trkpt lat="45.09296" lon="5.61006">
        <ele>1656</ele>
        <time>2013-03-09T13:56:38.000Z</time>
      </trkpt>
      <trkpt lat="45.09288" lon="5.61009">
        <ele>1657</ele>
        <time>2013-03-09T13:56:45.000Z</time>
      </trkpt>
      <trkpt lat="45.09285" lon="5.6101">
        <ele>1657</ele>
        <time>2013-03-09T13:56:48.000Z</time>
      </trkpt>
      <trkpt lat="45.09284" lon="5.61012">
        <ele>1657</ele>
        <time>2013-03-09T13:56:49.000Z</time>
      </trkpt>
      <trkpt lat="45.0928" lon="5.61014">
        <ele>1658</ele>
        <time>2013-03-09T13:56:53.000Z</time>
      </trkpt>
      <trkpt lat="45.09279" lon="5.61015">
        <ele>1658</ele>
        <time>2013-03-09T13:56:54.000Z</time>
      </trkpt>
      <trkpt lat="45.09278" lon="5.61015">
        <ele>1658</ele>
        <time>2013-03-09T13:56:56.000Z</time>
      </trkpt>
      <trkpt lat="45.09272" lon="5.61016">
        <ele>1658</ele>
        <time>2013-03-09T13:57:03.000Z</time>
      </trkpt>
      <trkpt lat="45.09269" lon="5.61016">
        <ele>1658</ele>
        <time>2013-03-09T13:57:06.000Z</time>
      </trkpt>
      <trkpt lat="45.09268" lon="5.61016">
        <ele>1658</ele>
        <time>2013-03-09T13:57:07.000Z</time>
      </trkpt>
      <trkpt lat="45.09264" lon="5.61017">
        <ele>1658</ele>
        <time>2013-03-09T13:57:11.000Z</time>
      </trkpt>
      <trkpt lat="45.09262" lon="5.61018">
        <ele>1658</ele>
        <time>2013-03-09T13:57:12.000Z</time>
      </trkpt>
      <trkpt lat="45.09261" lon="5.61018">
        <ele>1658</ele>
        <time>2013-03-09T13:57:14.000Z</time>
      </trkpt>
      <trkpt lat="45.09253" lon="5.61017">
        <ele>1658</ele>
        <time>2013-03-09T13:57:21.000Z</time>
      </trkpt>
      <trkpt lat="45.09249" lon="5.61019">
        <ele>1663</ele>
        <time>2013-03-09T13:57:29.000Z</time>
      </trkpt>
      <trkpt lat="45.09248" lon="5.61019">
        <ele>1663</ele>
        <time>2013-03-09T13:57:30.000Z</time>
      </trkpt>
      <trkpt lat="45.09249" lon="5.61018">
        <ele>1663</ele>
        <time>2013-03-09T13:57:32.000Z</time>
      </trkpt>
      <trkpt lat="45.09241" lon="5.61017">
        <ele>1664</ele>
        <time>2013-03-09T13:57:39.000Z</time>
      </trkpt>
      <trkpt lat="45.09237" lon="5.61015">
        <ele>1664</ele>
        <time>2013-03-09T13:57:42.000Z</time>
      </trkpt>
      <trkpt lat="45.09235" lon="5.61015">
        <ele>1664</ele>
        <time>2013-03-09T13:57:43.000Z</time>
      </trkpt>
      <trkpt lat="45.09231" lon="5.61013">
        <ele>1664</ele>
        <time>2013-03-09T13:57:48.000Z</time>
      </trkpt>
      <trkpt lat="45.0923" lon="5.61014">
        <ele>1665</ele>
        <time>2013-03-09T13:57:49.000Z</time>
      </trkpt>
      <trkpt lat="45.09226" lon="5.61013">
        <ele>1665</ele>
        <time>2013-03-09T13:58:06.000Z</time>
      </trkpt>
      <trkpt lat="45.09225" lon="5.61014">
        <ele>1666</ele>
        <time>2013-03-09T13:58:07.000Z</time>
      </trkpt>
      <trkpt lat="45.09225" lon="5.61013">
        <ele>1666</ele>
        <time>2013-03-09T13:58:08.000Z</time>
      </trkpt>
      <trkpt lat="45.09217" lon="5.61009">
        <ele>1666</ele>
        <time>2013-03-09T13:58:15.000Z</time>
      </trkpt>
      <trkpt lat="45.09214" lon="5.61011">
        <ele>1667</ele>
        <time>2013-03-09T13:58:19.000Z</time>
      </trkpt>
      <trkpt lat="45.09213" lon="5.61011">
        <ele>1667</ele>
        <time>2013-03-09T13:58:20.000Z</time>
      </trkpt>
      <trkpt lat="45.09209" lon="5.61012">
        <ele>1667</ele>
        <time>2013-03-09T13:58:24.000Z</time>
      </trkpt>
      <trkpt lat="45.09207" lon="5.61011">
        <ele>1667</ele>
        <time>2013-03-09T13:58:25.000Z</time>
      </trkpt>
      <trkpt lat="45.09207" lon="5.61012">
        <ele>1667</ele>
        <time>2013-03-09T13:58:26.000Z</time>
      </trkpt>
      <trkpt lat="45.09201" lon="5.61012">
        <ele>1668</ele>
        <time>2013-03-09T13:58:33.000Z</time>
      </trkpt>
      <trkpt lat="45.09198" lon="5.61013">
        <ele>1668</ele>
        <time>2013-03-09T13:58:36.000Z</time>
      </trkpt>
      <trkpt lat="45.09196" lon="5.61014">
        <ele>1668</ele>
        <time>2013-03-09T13:58:37.000Z</time>
      </trkpt>
      <trkpt lat="45.09192" lon="5.61015">
        <ele>1668</ele>
        <time>2013-03-09T13:58:41.000Z</time>
      </trkpt>
      <trkpt lat="45.09191" lon="5.61015">
        <ele>1668</ele>
        <time>2013-03-09T13:58:42.000Z</time>
      </trkpt>
      <trkpt lat="45.09189" lon="5.61016">
        <ele>1668</ele>
        <time>2013-03-09T13:58:44.000Z</time>
      </trkpt>
      <trkpt lat="45.09185" lon="5.61016">
        <ele>1668</ele>
        <time>2013-03-09T13:58:51.000Z</time>
      </trkpt>
      <trkpt lat="45.09184" lon="5.61018">
        <ele>1669</ele>
        <time>2013-03-09T13:58:56.000Z</time>
      </trkpt>
      <trkpt lat="45.09181" lon="5.6102">
        <ele>1669</ele>
        <time>2013-03-09T13:58:57.000Z</time>
      </trkpt>
      <trkpt lat="45.09178" lon="5.61022">
        <ele>1669</ele>
        <time>2013-03-09T13:59:01.000Z</time>
      </trkpt>
      <trkpt lat="45.09176" lon="5.61022">
        <ele>1669</ele>
        <time>2013-03-09T13:59:02.000Z</time>
      </trkpt>
      <trkpt lat="45.09172" lon="5.61024">
        <ele>1669</ele>
        <time>2013-03-09T13:59:09.000Z</time>
      </trkpt>
      <trkpt lat="45.09168" lon="5.61025">
        <ele>1670</ele>
        <time>2013-03-09T13:59:11.000Z</time>
      </trkpt>
      <trkpt lat="45.09167" lon="5.61025">
        <ele>1670</ele>
        <time>2013-03-09T13:59:12.000Z</time>
      </trkpt>
      <trkpt lat="45.09162" lon="5.61025">
        <ele>1674</ele>
        <time>2013-03-09T13:59:18.000Z</time>
      </trkpt>
      <trkpt lat="45.09161" lon="5.61026">
        <ele>1674</ele>
        <time>2013-03-09T13:59:19.000Z</time>
      </trkpt>
      <trkpt lat="45.0916" lon="5.61028">
        <ele>1675</ele>
        <time>2013-03-09T13:59:20.000Z</time>
      </trkpt>
      <trkpt lat="45.09152" lon="5.61033">
        <ele>1676</ele>
        <time>2013-03-09T13:59:27.000Z</time>
      </trkpt>
      <trkpt lat="45.0915" lon="5.61036">
        <ele>1676</ele>
        <time>2013-03-09T13:59:30.000Z</time>
      </trkpt>
      <trkpt lat="45.09148" lon="5.61037">
        <ele>1677</ele>
        <time>2013-03-09T13:59:31.000Z</time>
      </trkpt>
      <trkpt lat="45.09145" lon="5.6104">
        <ele>1677</ele>
        <time>2013-03-09T13:59:34.000Z</time>
      </trkpt>
      <trkpt lat="45.09144" lon="5.6104">
        <ele>1677</ele>
        <time>2013-03-09T13:59:35.000Z</time>
      </trkpt>
      <trkpt lat="45.09143" lon="5.61042">
        <ele>1678</ele>
        <time>2013-03-09T13:59:38.000Z</time>
      </trkpt>
      <trkpt lat="45.09141" lon="5.61049">
        <ele>1679</ele>
        <time>2013-03-09T13:59:45.000Z</time>
      </trkpt>
      <trkpt lat="45.09138" lon="5.61054">
        <ele>1679</ele>
        <time>2013-03-09T13:59:50.000Z</time>
      </trkpt>
      <trkpt lat="45.09137" lon="5.61053">
        <ele>1679</ele>
        <time>2013-03-09T13:59:51.000Z</time>
      </trkpt>
      <trkpt lat="45.09134" lon="5.61057">
        <ele>1680</ele>
        <time>2013-03-09T13:59:56.000Z</time>
      </trkpt>
      <trkpt lat="45.09129" lon="5.61062">
        <ele>1681</ele>
        <time>2013-03-09T14:00:03.000Z</time>
      </trkpt>
      <trkpt lat="45.09125" lon="5.61064">
        <ele>1681</ele>
        <time>2013-03-09T14:00:08.000Z</time>
      </trkpt>
      <trkpt lat="45.09124" lon="5.61066">
        <ele>1681</ele>
        <time>2013-03-09T14:00:09.000Z</time>
      </trkpt>
      <trkpt lat="45.09121" lon="5.61069">
        <ele>1681</ele>
        <time>2013-03-09T14:00:14.000Z</time>
      </trkpt>
      <trkpt lat="45.09117" lon="5.61074">
        <ele>1682</ele>
        <time>2013-03-09T14:00:21.000Z</time>
      </trkpt>
      <trkpt lat="45.09113" lon="5.61076">
        <ele>1683</ele>
        <time>2013-03-09T14:00:24.000Z</time>
      </trkpt>
      <trkpt lat="45.09112" lon="5.61076">
        <ele>1683</ele>
        <time>2013-03-09T14:00:25.000Z</time>
      </trkpt>
      <trkpt lat="45.09108" lon="5.61077">
        <ele>1683</ele>
        <time>2013-03-09T14:00:32.000Z</time>
      </trkpt>
      <trkpt lat="45.09102" lon="5.61082">
        <ele>1685</ele>
        <time>2013-03-09T14:00:39.000Z</time>
      </trkpt>
      <trkpt lat="45.091" lon="5.61085">
        <ele>1693</ele>
        <time>2013-03-09T14:00:41.000Z</time>
      </trkpt>
      <trkpt lat="45.09099" lon="5.61087">
        <ele>1693</ele>
        <time>2013-03-09T14:00:42.000Z</time>
      </trkpt>
      <trkpt lat="45.09096" lon="5.61091">
        <ele>1693</ele>
        <time>2013-03-09T14:00:44.000Z</time>
      </trkpt>
      <trkpt lat="45.09095" lon="5.61091">
        <ele>1693</ele>
        <time>2013-03-09T14:00:45.000Z</time>
      </trkpt>
      <trkpt lat="45.09093" lon="5.61095">
        <ele>1694</ele>
        <time>2013-03-09T14:00:50.000Z</time>
      </trkpt>
      <trkpt lat="45.09086" lon="5.611">
        <ele>1694</ele>
        <time>2013-03-09T14:00:57.000Z</time>
      </trkpt>
      <trkpt lat="45.09085" lon="5.61104">
        <ele>1695</ele>
        <time>2013-03-09T14:00:59.000Z</time>
      </trkpt>
      <trkpt lat="45.09082" lon="5.61105">
        <ele>1697</ele>
        <time>2013-03-09T14:01:00.000Z</time>
      </trkpt>
      <trkpt lat="45.0908" lon="5.61109">
        <ele>1698</ele>
        <time>2013-03-09T14:01:02.000Z</time>
      </trkpt>
      <trkpt lat="45.09078" lon="5.61111">
        <ele>1698</ele>
        <time>2013-03-09T14:01:03.000Z</time>
      </trkpt>
      <trkpt lat="45.09076" lon="5.61115">
        <ele>1699</ele>
        <time>2013-03-09T14:01:08.000Z</time>
      </trkpt>
      <trkpt lat="45.09072" lon="5.61122">
        <ele>1700</ele>
        <time>2013-03-09T14:01:15.000Z</time>
      </trkpt>
      <trkpt lat="45.0907" lon="5.61127">
        <ele>1701</ele>
        <time>2013-03-09T14:01:22.000Z</time>
      </trkpt>
      <trkpt lat="45.09069" lon="5.61128">
        <ele>1701</ele>
        <time>2013-03-09T14:01:23.000Z</time>
      </trkpt>
      <trkpt lat="45.09068" lon="5.6113">
        <ele>1701</ele>
        <time>2013-03-09T14:01:26.000Z</time>
      </trkpt>
      <trkpt lat="45.09066" lon="5.61136">
        <ele>1702</ele>
        <time>2013-03-09T14:01:33.000Z</time>
      </trkpt>
      <trkpt lat="45.09062" lon="5.61138">
        <ele>1702</ele>
        <time>2013-03-09T14:01:38.000Z</time>
      </trkpt>
      <trkpt lat="45.09061" lon="5.61138">
        <ele>1702</ele>
        <time>2013-03-09T14:01:39.000Z</time>
      </trkpt>
      <trkpt lat="45.09057" lon="5.6114">
        <ele>1702</ele>
        <time>2013-03-09T14:01:44.000Z</time>
      </trkpt>
      <trkpt lat="45.09053" lon="5.61142">
        <ele>1703</ele>
        <time>2013-03-09T14:01:51.000Z</time>
      </trkpt>
      <trkpt lat="45.09049" lon="5.61143">
        <ele>1703</ele>
        <time>2013-03-09T14:01:54.000Z</time>
      </trkpt>
      <trkpt lat="45.09048" lon="5.61143">
        <ele>1703</ele>
        <time>2013-03-09T14:01:55.000Z</time>
      </trkpt>
      <trkpt lat="45.09045" lon="5.61147">
        <ele>1703</ele>
        <time>2013-03-09T14:01:59.000Z</time>
      </trkpt>
      <trkpt lat="45.09044" lon="5.61148">
        <ele>1703</ele>
        <time>2013-03-09T14:02:00.000Z</time>
      </trkpt>
      <trkpt lat="45.09043" lon="5.61149">
        <ele>1703</ele>
        <time>2013-03-09T14:02:02.000Z</time>
      </trkpt>
      <trkpt lat="45.0904" lon="5.61152">
        <ele>1704</ele>
        <time>2013-03-09T14:02:09.000Z</time>
      </trkpt>
      <trkpt lat="45.09038" lon="5.61158">
        <ele>1704</ele>
        <time>2013-03-09T14:02:14.000Z</time>
      </trkpt>
      <trkpt lat="45.09037" lon="5.61158">
        <ele>1704</ele>
        <time>2013-03-09T14:02:15.000Z</time>
      </trkpt>
      <trkpt lat="45.09034" lon="5.61163">
        <ele>1705</ele>
        <time>2013-03-09T14:02:20.000Z</time>
      </trkpt>
      <trkpt lat="45.09029" lon="5.61168">
        <ele>1718</ele>
        <time>2013-03-09T14:02:27.000Z</time>
      </trkpt>
      <trkpt lat="45.09029" lon="5.61173">
        <ele>1718</ele>
        <time>2013-03-09T14:02:32.000Z</time>
      </trkpt>
      <trkpt lat="45.09029" lon="5.61175">
        <ele>1718</ele>
        <time>2013-03-09T14:02:33.000Z</time>
      </trkpt>
      <trkpt lat="45.09029" lon="5.61178">
        <ele>1718</ele>
        <time>2013-03-09T14:02:38.000Z</time>
      </trkpt>
      <trkpt lat="45.09029" lon="5.61188">
        <ele>1719</ele>
        <time>2013-03-09T14:02:45.000Z</time>
      </trkpt>
      <trkpt lat="45.0903" lon="5.61194">
        <ele>1720</ele>
        <time>2013-03-09T14:02:50.000Z</time>
      </trkpt>
      <trkpt lat="45.0903" lon="5.61195">
        <ele>1720</ele>
        <time>2013-03-09T14:02:51.000Z</time>
      </trkpt>
      <trkpt lat="45.09029" lon="5.612">
        <ele>1721</ele>
        <time>2013-03-09T14:02:56.000Z</time>
      </trkpt>
      <trkpt lat="45.09033" lon="5.61208">
        <ele>1722</ele>
        <time>2013-03-09T14:03:03.000Z</time>
      </trkpt>
      <trkpt lat="45.09031" lon="5.61211">
        <ele>1722</ele>
        <time>2013-03-09T14:03:12.000Z</time>
      </trkpt>
      <trkpt lat="45.09029" lon="5.61213">
        <ele>1722</ele>
        <time>2013-03-09T14:03:13.000Z</time>
      </trkpt>
      <trkpt lat="45.09029" lon="5.61216">
        <ele>1723</ele>
        <time>2013-03-09T14:03:14.000Z</time>
      </trkpt>
      <trkpt lat="45.09031" lon="5.61222">
        <ele>1723</ele>
        <time>2013-03-09T14:03:21.000Z</time>
      </trkpt>
      <trkpt lat="45.09031" lon="5.61227">
        <ele>1724</ele>
        <time>2013-03-09T14:03:26.000Z</time>
      </trkpt>
      <trkpt lat="45.09032" lon="5.61229">
        <ele>1724</ele>
        <time>2013-03-09T14:03:27.000Z</time>
      </trkpt>
      <trkpt lat="45.09034" lon="5.61233">
        <ele>1725</ele>
        <time>2013-03-09T14:03:30.000Z</time>
      </trkpt>
      <trkpt lat="45.09035" lon="5.61235">
        <ele>1725</ele>
        <time>2013-03-09T14:03:31.000Z</time>
      </trkpt>
      <trkpt lat="45.09036" lon="5.61235">
        <ele>1725</ele>
        <time>2013-03-09T14:03:32.000Z</time>
      </trkpt>
      <trkpt lat="45.09034" lon="5.61243">
        <ele>1725</ele>
        <time>2013-03-09T14:03:39.000Z</time>
      </trkpt>
      <trkpt lat="45.0903" lon="5.61246">
        <ele>1726</ele>
        <time>2013-03-09T14:03:50.000Z</time>
      </trkpt>
      <trkpt lat="45.09026" lon="5.61245">
        <ele>1727</ele>
        <time>2013-03-09T14:03:57.000Z</time>
      </trkpt>
      <trkpt lat="45.09025" lon="5.61248">
        <ele>1727</ele>
        <time>2013-03-09T14:04:45.000Z</time>
      </trkpt>
      <trkpt lat="45.09019" lon="5.61253">
        <ele>1736</ele>
        <time>2013-03-09T14:04:52.000Z</time>
      </trkpt>
      <trkpt lat="45.09016" lon="5.61257">
        <ele>1736</ele>
        <time>2013-03-09T14:04:57.000Z</time>
      </trkpt>
      <trkpt lat="45.09014" lon="5.61257">
        <ele>1736</ele>
        <time>2013-03-09T14:04:58.000Z</time>
      </trkpt>
      <trkpt lat="45.09011" lon="5.61258">
        <ele>1736</ele>
        <time>2013-03-09T14:05:03.000Z</time>
      </trkpt>
      <trkpt lat="45.09007" lon="5.61255">
        <ele>1736</ele>
        <time>2013-03-09T14:05:10.000Z</time>
      </trkpt>
      <trkpt lat="45.09006" lon="5.61261">
        <ele>1736</ele>
        <time>2013-03-09T14:05:16.000Z</time>
      </trkpt>
      <trkpt lat="45.09006" lon="5.61262">
        <ele>1736</ele>
        <time>2013-03-09T14:05:17.000Z</time>
      </trkpt>
      <trkpt lat="45.09004" lon="5.61264">
        <ele>1736</ele>
        <time>2013-03-09T14:05:21.000Z</time>
      </trkpt>
      <trkpt lat="45.08998" lon="5.61258">
        <ele>1740</ele>
        <time>2013-03-09T14:05:28.000Z</time>
      </trkpt>
      <trkpt lat="45.08996" lon="5.61257">
        <ele>1740</ele>
        <time>2013-03-09T14:05:32.000Z</time>
      </trkpt>
      <trkpt lat="45.08994" lon="5.61254">
        <ele>1740</ele>
        <time>2013-03-09T14:05:33.000Z</time>
      </trkpt>
      <trkpt lat="45.0899" lon="5.61257">
        <ele>1742</ele>
        <time>2013-03-09T14:05:36.000Z</time>
      </trkpt>
      <trkpt lat="45.0899" lon="5.61257">
        <ele>1742</ele>
        <time>2013-03-09T14:05:37.000Z</time>
      </trkpt>
      <trkpt lat="45.08988" lon="5.61262">
        <ele>1744</ele>
        <time>2013-03-09T14:05:48.000Z</time>
      </trkpt>
      <trkpt lat="45.08987" lon="5.61265">
        <ele>1745</ele>
        <time>2013-03-09T14:05:49.000Z</time>
      </trkpt>
      <trkpt lat="45.08985" lon="5.61269">
        <ele>1747</ele>
        <time>2013-03-09T14:05:58.000Z</time>
      </trkpt>
      <trkpt lat="45.08984" lon="5.61269">
        <ele>1747</ele>
        <time>2013-03-09T14:05:59.000Z</time>
      </trkpt>
      <trkpt lat="45.08981" lon="5.61272">
        <ele>1748</ele>
        <time>2013-03-09T14:06:06.000Z</time>
      </trkpt>
      <trkpt lat="45.08979" lon="5.61275">
        <ele>1749</ele>
        <time>2013-03-09T14:06:08.000Z</time>
      </trkpt>
      <trkpt lat="45.08976" lon="5.61277">
        <ele>1750</ele>
        <time>2013-03-09T14:06:10.000Z</time>
      </trkpt>
      <trkpt lat="45.08975" lon="5.61279">
        <ele>1750</ele>
        <time>2013-03-09T14:06:11.000Z</time>
      </trkpt>
      <trkpt lat="45.08974" lon="5.61283">
        <ele>1751</ele>
        <time>2013-03-09T14:06:14.000Z</time>
      </trkpt>
      <trkpt lat="45.08974" lon="5.61285">
        <ele>1751</ele>
        <time>2013-03-09T14:06:15.000Z</time>
      </trkpt>
      <trkpt lat="45.08974" lon="5.61288">
        <ele>1751</ele>
        <time>2013-03-09T14:06:17.000Z</time>
      </trkpt>
      <trkpt lat="45.08975" lon="5.61297">
        <ele>1752</ele>
        <time>2013-03-09T14:06:24.000Z</time>
      </trkpt>
      <trkpt lat="45.08975" lon="5.61303">
        <ele>1752</ele>
        <time>2013-03-09T14:06:29.000Z</time>
      </trkpt>
      <trkpt lat="45.08975" lon="5.61304">
        <ele>1752</ele>
        <time>2013-03-09T14:06:30.000Z</time>
      </trkpt>
      <trkpt lat="45.08975" lon="5.61309">
        <ele>1753</ele>
        <time>2013-03-09T14:06:35.000Z</time>
      </trkpt>
      <trkpt lat="45.08974" lon="5.61316">
        <ele>1753</ele>
        <time>2013-03-09T14:06:42.000Z</time>
      </trkpt>
      <trkpt lat="45.08974" lon="5.61319">
        <ele>1753</ele>
        <time>2013-03-09T14:06:45.000Z</time>
      </trkpt>
      <trkpt lat="45.08974" lon="5.61323">
        <ele>1753</ele>
        <time>2013-03-09T14:06:46.000Z</time>
      </trkpt>
      <trkpt lat="45.08973" lon="5.61328">
        <ele>1753</ele>
        <time>2013-03-09T14:06:52.000Z</time>
      </trkpt>
      <trkpt lat="45.08972" lon="5.61329">
        <ele>1753</ele>
        <time>2013-03-09T14:06:53.000Z</time>
      </trkpt>
      <trkpt lat="45.08971" lon="5.61338">
        <ele>1763</ele>
        <time>2013-03-09T14:07:00.000Z</time>
      </trkpt>
      <trkpt lat="45.08972" lon="5.61343">
        <ele>1763</ele>
        <time>2013-03-09T14:07:05.000Z</time>
      </trkpt>
      <trkpt lat="45.08973" lon="5.61344">
        <ele>1763</ele>
        <time>2013-03-09T14:07:06.000Z</time>
      </trkpt>
      <trkpt lat="45.08971" lon="5.61348">
        <ele>1764</ele>
        <time>2013-03-09T14:07:11.000Z</time>
      </trkpt>
      <trkpt lat="45.08972" lon="5.61352">
        <ele>1765</ele>
        <time>2013-03-09T14:07:15.000Z</time>
      </trkpt>
      <trkpt lat="45.0897" lon="5.61357">
        <ele>1766</ele>
        <time>2013-03-09T14:07:24.000Z</time>
      </trkpt>
      <trkpt lat="45.0897" lon="5.61359">
        <ele>1766</ele>
        <time>2013-03-09T14:07:25.000Z</time>
      </trkpt>
      <trkpt lat="45.0897" lon="5.6136">
        <ele>1766</ele>
        <time>2013-03-09T14:07:27.000Z</time>
      </trkpt>
      <trkpt lat="45.08967" lon="5.61366">
        <ele>1768</ele>
        <time>2013-03-09T14:07:34.000Z</time>
      </trkpt>
      <trkpt lat="45.08968" lon="5.61372">
        <ele>1768</ele>
        <time>2013-03-09T14:07:37.000Z</time>
      </trkpt>
      <trkpt lat="45.08968" lon="5.61373">
        <ele>1768</ele>
        <time>2013-03-09T14:07:38.000Z</time>
      </trkpt>
      <trkpt lat="45.08968" lon="5.61379">
        <ele>1769</ele>
        <time>2013-03-09T14:07:43.000Z</time>
      </trkpt>
      <trkpt lat="45.08969" lon="5.6138">
        <ele>1769</ele>
        <time>2013-03-09T14:07:44.000Z</time>
      </trkpt>
      <trkpt lat="45.08969" lon="5.61382">
        <ele>1769</ele>
        <time>2013-03-09T14:07:45.000Z</time>
      </trkpt>
      <trkpt lat="45.08974" lon="5.61391">
        <ele>1769</ele>
        <time>2013-03-09T14:07:52.000Z</time>
      </trkpt>
      <trkpt lat="45.08976" lon="5.61394">
        <ele>1769</ele>
        <time>2013-03-09T14:07:57.000Z</time>
      </trkpt>
      <trkpt lat="45.08977" lon="5.61395">
        <ele>1769</ele>
        <time>2013-03-09T14:07:58.000Z</time>
      </trkpt>
      <trkpt lat="45.08978" lon="5.61398">
        <ele>1768</ele>
        <time>2013-03-09T14:08:03.000Z</time>
      </trkpt>
      <trkpt lat="45.0898" lon="5.61402">
        <ele>1768</ele>
        <time>2013-03-09T14:08:10.000Z</time>
      </trkpt>
      <trkpt lat="45.08982" lon="5.61407">
        <ele>1768</ele>
        <time>2013-03-09T14:08:18.000Z</time>
      </trkpt>
      <trkpt lat="45.08983" lon="5.61408">
        <ele>1767</ele>
        <time>2013-03-09T14:08:19.000Z</time>
      </trkpt>
      <trkpt lat="45.08984" lon="5.61411">
        <ele>1767</ele>
        <time>2013-03-09T14:08:21.000Z</time>
      </trkpt>
      <trkpt lat="45.08988" lon="5.61415">
        <ele>1766</ele>
        <time>2013-03-09T14:08:28.000Z</time>
      </trkpt>
      <trkpt lat="45.08989" lon="5.6142">
        <ele>1773</ele>
        <time>2013-03-09T14:08:32.000Z</time>
      </trkpt>
      <trkpt lat="45.08988" lon="5.61422">
        <ele>1774</ele>
        <time>2013-03-09T14:08:33.000Z</time>
      </trkpt>
      <trkpt lat="45.08989" lon="5.61428">
        <ele>1776</ele>
        <time>2013-03-09T14:08:39.000Z</time>
      </trkpt>
      <trkpt lat="45.08989" lon="5.61445">
        <ele>1782</ele>
        <time>2013-03-09T14:08:48.000Z</time>
      </trkpt>
      <trkpt lat="45.08995" lon="5.6145">
        <ele>1783</ele>
        <time>2013-03-09T14:08:51.000Z</time>
      </trkpt>
      <trkpt lat="45.08996" lon="5.61455">
        <ele>1784</ele>
        <time>2013-03-09T14:08:55.000Z</time>
      </trkpt>
      <trkpt lat="45.08998" lon="5.61456">
        <ele>1784</ele>
        <time>2013-03-09T14:08:56.000Z</time>
      </trkpt>
      <trkpt lat="45.08999" lon="5.61456">
        <ele>1784</ele>
        <time>2013-03-09T14:09:00.000Z</time>
      </trkpt>
      <trkpt lat="45.09003" lon="5.61461">
        <ele>1771</ele>
        <time>2013-03-09T14:09:07.000Z</time>
      </trkpt>
      <trkpt lat="45.09004" lon="5.61465">
        <ele>1772</ele>
        <time>2013-03-09T14:09:11.000Z</time>
      </trkpt>
      <trkpt lat="45.09004" lon="5.61468">
        <ele>1773</ele>
        <time>2013-03-09T14:09:12.000Z</time>
      </trkpt>
      <trkpt lat="45.09004" lon="5.61474">
        <ele>1775</ele>
        <time>2013-03-09T14:09:14.000Z</time>
      </trkpt>
      <trkpt lat="45.09005" lon="5.61475">
        <ele>1775</ele>
        <time>2013-03-09T14:09:15.000Z</time>
      </trkpt>
      <trkpt lat="45.09006" lon="5.61478">
        <ele>1776</ele>
        <time>2013-03-09T14:09:18.000Z</time>
      </trkpt>
      <trkpt lat="45.09012" lon="5.61488">
        <ele>1778</ele>
        <time>2013-03-09T14:09:25.000Z</time>
      </trkpt>
      <trkpt lat="45.09014" lon="5.61493">
        <ele>1779</ele>
        <time>2013-03-09T14:09:29.000Z</time>
      </trkpt>
      <trkpt lat="45.09016" lon="5.61492">
        <ele>1778</ele>
        <time>2013-03-09T14:09:30.000Z</time>
      </trkpt>
      <trkpt lat="45.09018" lon="5.61495">
        <ele>1778</ele>
        <time>2013-03-09T14:09:36.000Z</time>
      </trkpt>
      <trkpt lat="45.09019" lon="5.61503">
        <ele>1789</ele>
        <time>2013-03-09T14:09:43.000Z</time>
      </trkpt>
      <trkpt lat="45.09022" lon="5.61508">
        <ele>1789</ele>
        <time>2013-03-09T14:09:46.000Z</time>
      </trkpt>
      <trkpt lat="45.09022" lon="5.61509">
        <ele>1789</ele>
        <time>2013-03-09T14:09:47.000Z</time>
      </trkpt>
      <trkpt lat="45.09025" lon="5.61512">
        <ele>1789</ele>
        <time>2013-03-09T14:09:51.000Z</time>
      </trkpt>
      <trkpt lat="45.09025" lon="5.61515">
        <ele>1789</ele>
        <time>2013-03-09T14:09:52.000Z</time>
      </trkpt>
      <trkpt lat="45.09025" lon="5.61517">
        <ele>1789</ele>
        <time>2013-03-09T14:09:54.000Z</time>
      </trkpt>
      <trkpt lat="45.09029" lon="5.61519">
        <ele>1788</ele>
        <time>2013-03-09T14:10:01.000Z</time>
      </trkpt>
      <trkpt lat="45.0903" lon="5.61523">
        <ele>1789</ele>
        <time>2013-03-09T14:10:04.000Z</time>
      </trkpt>
      <trkpt lat="45.09029" lon="5.61525">
        <ele>1789</ele>
        <time>2013-03-09T14:10:05.000Z</time>
      </trkpt>
      <trkpt lat="45.09029" lon="5.61529">
        <ele>1790</ele>
        <time>2013-03-09T14:10:09.000Z</time>
      </trkpt>
      <trkpt lat="45.09027" lon="5.61532">
        <ele>1790</ele>
        <time>2013-03-09T14:10:10.000Z</time>
      </trkpt>
      <trkpt lat="45.09026" lon="5.61537">
        <ele>1791</ele>
        <time>2013-03-09T14:10:12.000Z</time>
      </trkpt>
      <trkpt lat="45.09027" lon="5.61538">
        <ele>1791</ele>
        <time>2013-03-09T14:10:15.000Z</time>
      </trkpt>
      <trkpt lat="45.09031" lon="5.61541">
        <ele>1791</ele>
        <time>2013-03-09T14:10:20.000Z</time>
      </trkpt>
      <trkpt lat="45.09033" lon="5.61542">
        <ele>1791</ele>
        <time>2013-03-09T14:10:21.000Z</time>
      </trkpt>
      <trkpt lat="45.09033" lon="5.61547">
        <ele>1792</ele>
        <time>2013-03-09T14:10:25.000Z</time>
      </trkpt>
      <trkpt lat="45.09033" lon="5.61549">
        <ele>1792</ele>
        <time>2013-03-09T14:10:26.000Z</time>
      </trkpt>
      <trkpt lat="45.09033" lon="5.61555">
        <ele>1793</ele>
        <time>2013-03-09T14:10:33.000Z</time>
      </trkpt>
      <trkpt lat="45.09033" lon="5.61557">
        <ele>1793</ele>
        <time>2013-03-09T14:10:35.000Z</time>
      </trkpt>
      <trkpt lat="45.09034" lon="5.61562">
        <ele>1794</ele>
        <time>2013-03-09T14:10:41.000Z</time>
      </trkpt>
      <trkpt lat="45.09033" lon="5.61564">
        <ele>1794</ele>
        <time>2013-03-09T14:10:42.000Z</time>
      </trkpt>
      <trkpt lat="45.09034" lon="5.61566">
        <ele>1794</ele>
        <time>2013-03-09T14:10:44.000Z</time>
      </trkpt>
      <trkpt lat="45.09037" lon="5.61574">
        <ele>1795</ele>
        <time>2013-03-09T14:10:51.000Z</time>
      </trkpt>
      <trkpt lat="45.09038" lon="5.6158">
        <ele>1795</ele>
        <time>2013-03-09T14:10:56.000Z</time>
      </trkpt>
      <trkpt lat="45.09039" lon="5.61581">
        <ele>1795</ele>
        <time>2013-03-09T14:10:57.000Z</time>
      </trkpt>
      <trkpt lat="45.0904" lon="5.61584">
        <ele>1808</ele>
        <time>2013-03-09T14:11:02.000Z</time>
      </trkpt>
      <trkpt lat="45.09041" lon="5.61589">
        <ele>1808</ele>
        <time>2013-03-09T14:11:09.000Z</time>
      </trkpt>
      <trkpt lat="45.09041" lon="5.61594">
        <ele>1809</ele>
        <time>2013-03-09T14:11:12.000Z</time>
      </trkpt>
      <trkpt lat="45.09041" lon="5.61596">
        <ele>1809</ele>
        <time>2013-03-09T14:11:13.000Z</time>
      </trkpt>
      <trkpt lat="45.09043" lon="5.61601">
        <ele>1809</ele>
        <time>2013-03-09T14:11:17.000Z</time>
      </trkpt>
      <trkpt lat="45.09044" lon="5.61603">
        <ele>1809</ele>
        <time>2013-03-09T14:11:18.000Z</time>
      </trkpt>
      <trkpt lat="45.09045" lon="5.61606">
        <ele>1809</ele>
        <time>2013-03-09T14:11:20.000Z</time>
      </trkpt>
      <trkpt lat="45.09049" lon="5.61615">
        <ele>1809</ele>
        <time>2013-03-09T14:11:27.000Z</time>
      </trkpt>
      <trkpt lat="45.0905" lon="5.61619">
        <ele>1810</ele>
        <time>2013-03-09T14:11:31.000Z</time>
      </trkpt>
      <trkpt lat="45.09051" lon="5.6162">
        <ele>1810</ele>
        <time>2013-03-09T14:11:32.000Z</time>
      </trkpt>
      <trkpt lat="45.09051" lon="5.61618">
        <ele>1809</ele>
        <time>2013-03-09T14:11:38.000Z</time>
      </trkpt>
      <trkpt lat="45.09047" lon="5.61613">
        <ele>1809</ele>
        <time>2013-03-09T14:11:45.000Z</time>
      </trkpt>
      <trkpt lat="45.09043" lon="5.61613">
        <ele>1810</ele>
        <time>2013-03-09T14:11:48.000Z</time>
      </trkpt>
      <trkpt lat="45.09041" lon="5.61612">
        <ele>1810</ele>
        <time>2013-03-09T14:11:49.000Z</time>
      </trkpt>
      <trkpt lat="45.0904" lon="5.61616">
        <ele>1811</ele>
        <time>2013-03-09T14:11:56.000Z</time>
      </trkpt>
      <trkpt lat="45.09042" lon="5.61627">
        <ele>1812</ele>
        <time>2013-03-09T14:12:03.000Z</time>
      </trkpt>
      <trkpt lat="45.09042" lon="5.61633">
        <ele>1812</ele>
        <time>2013-03-09T14:12:06.000Z</time>
      </trkpt>
      <trkpt lat="45.09041" lon="5.61634">
        <ele>1813</ele>
        <time>2013-03-09T14:12:07.000Z</time>
      </trkpt>
      <trkpt lat="45.09043" lon="5.61638">
        <ele>1813</ele>
        <time>2013-03-09T14:12:11.000Z</time>
      </trkpt>
      <trkpt lat="45.09043" lon="5.6164">
        <ele>1813</ele>
        <time>2013-03-09T14:12:12.000Z</time>
      </trkpt>
      <trkpt lat="45.09041" lon="5.61643">
        <ele>1814</ele>
        <time>2013-03-09T14:12:16.000Z</time>
      </trkpt>
      <trkpt lat="45.09039" lon="5.61646">
        <ele>1814</ele>
        <time>2013-03-09T14:12:18.000Z</time>
      </trkpt>
      <trkpt lat="45.0904" lon="5.61652">
        <ele>1815</ele>
        <time>2013-03-09T14:12:24.000Z</time>
      </trkpt>
      <trkpt lat="45.09041" lon="5.61652">
        <ele>1814</ele>
        <time>2013-03-09T14:12:25.000Z</time>
      </trkpt>
      <trkpt lat="45.09042" lon="5.61655">
        <ele>1814</ele>
        <time>2013-03-09T14:12:27.000Z</time>
      </trkpt>
      <trkpt lat="45.09045" lon="5.61662">
        <ele>1814</ele>
        <time>2013-03-09T14:12:34.000Z</time>
      </trkpt>
      <trkpt lat="45.09047" lon="5.61665">
        <ele>1814</ele>
        <time>2013-03-09T14:12:38.000Z</time>
      </trkpt>
      <trkpt lat="45.09049" lon="5.61667">
        <ele>1828</ele>
        <time>2013-03-09T14:12:39.000Z</time>
      </trkpt>
      <trkpt lat="45.09051" lon="5.61672">
        <ele>1828</ele>
        <time>2013-03-09T14:12:45.000Z</time>
      </trkpt>
      <trkpt lat="45.09055" lon="5.61677">
        <ele>1827</ele>
        <time>2013-03-09T14:12:52.000Z</time>
      </trkpt>
      <trkpt lat="45.09051" lon="5.61679">
        <ele>1828</ele>
        <time>2013-03-09T14:12:58.000Z</time>
      </trkpt>
      <trkpt lat="45.09051" lon="5.61679">
        <ele>1828</ele>
        <time>2013-03-09T14:12:59.000Z</time>
      </trkpt>
      <trkpt lat="45.09049" lon="5.6168">
        <ele>1829</ele>
        <time>2013-03-09T14:13:03.000Z</time>
      </trkpt>
      <trkpt lat="45.09043" lon="5.61679">
        <ele>1830</ele>
        <time>2013-03-09T14:13:10.000Z</time>
      </trkpt>
      <trkpt lat="45.09039" lon="5.61678">
        <ele>1831</ele>
        <time>2013-03-09T14:13:16.000Z</time>
      </trkpt>
      <trkpt lat="45.09038" lon="5.61677">
        <ele>1831</ele>
        <time>2013-03-09T14:13:17.000Z</time>
      </trkpt>
      <trkpt lat="45.09035" lon="5.61675">
        <ele>1831</ele>
        <time>2013-03-09T14:13:21.000Z</time>
      </trkpt>
      <trkpt lat="45.09029" lon="5.61671">
        <ele>1832</ele>
        <time>2013-03-09T14:13:28.000Z</time>
      </trkpt>
      <trkpt lat="45.09027" lon="5.61669">
        <ele>1832</ele>
        <time>2013-03-09T14:13:30.000Z</time>
      </trkpt>
      <trkpt lat="45.09026" lon="5.61666">
        <ele>1819</ele>
        <time>2013-03-09T14:13:31.000Z</time>
      </trkpt>
      <trkpt lat="45.09021" lon="5.61665">
        <ele>1820</ele>
        <time>2013-03-09T14:13:37.000Z</time>
      </trkpt>
      <trkpt lat="45.0902" lon="5.61664">
        <ele>1821</ele>
        <time>2013-03-09T14:13:38.000Z</time>
      </trkpt>
      <trkpt lat="45.09019" lon="5.61663">
        <ele>1821</ele>
        <time>2013-03-09T14:13:39.000Z</time>
      </trkpt>
      <trkpt lat="45.09014" lon="5.61659">
        <ele>1823</ele>
        <time>2013-03-09T14:13:46.000Z</time>
      </trkpt>
      <trkpt lat="45.0901" lon="5.61656">
        <ele>1823</ele>
        <time>2013-03-09T14:13:52.000Z</time>
      </trkpt>
      <trkpt lat="45.0901" lon="5.61656">
        <ele>1823</ele>
        <time>2013-03-09T14:13:53.000Z</time>
      </trkpt>
      <trkpt lat="45.09006" lon="5.61653">
        <ele>1823</ele>
        <time>2013-03-09T14:13:57.000Z</time>
      </trkpt>
      <trkpt lat="45.08999" lon="5.61647">
        <ele>1832</ele>
        <time>2013-03-09T14:14:04.000Z</time>
      </trkpt>
      <trkpt lat="45.08995" lon="5.61647">
        <ele>1832</ele>
        <time>2013-03-09T14:14:08.000Z</time>
      </trkpt>
      <trkpt lat="45.08994" lon="5.61648">
        <ele>1832</ele>
        <time>2013-03-09T14:14:09.000Z</time>
      </trkpt>
      <trkpt lat="45.0899" lon="5.61645">
        <ele>1832</ele>
        <time>2013-03-09T14:14:13.000Z</time>
      </trkpt>
      <trkpt lat="45.08988" lon="5.61645">
        <ele>1832</ele>
        <time>2013-03-09T14:14:14.000Z</time>
      </trkpt>
      <trkpt lat="45.08987" lon="5.61642">
        <ele>1832</ele>
        <time>2013-03-09T14:14:15.000Z</time>
      </trkpt>
      <trkpt lat="45.08983" lon="5.61636">
        <ele>1832</ele>
        <time>2013-03-09T14:14:22.000Z</time>
      </trkpt>
      <trkpt lat="45.08979" lon="5.61634">
        <ele>1832</ele>
        <time>2013-03-09T14:14:30.000Z</time>
      </trkpt>
      <trkpt lat="45.08978" lon="5.61633">
        <ele>1832</ele>
        <time>2013-03-09T14:14:31.000Z</time>
      </trkpt>
      <trkpt lat="45.08976" lon="5.61632">
        <ele>1832</ele>
        <time>2013-03-09T14:14:33.000Z</time>
      </trkpt>
      <trkpt lat="45.08972" lon="5.6163">
        <ele>1832</ele>
        <time>2013-03-09T14:14:40.000Z</time>
      </trkpt>
      <trkpt lat="45.08969" lon="5.61633">
        <ele>1832</ele>
        <time>2013-03-09T14:14:44.000Z</time>
      </trkpt>
      <trkpt lat="45.08967" lon="5.61634">
        <ele>1833</ele>
        <time>2013-03-09T14:14:45.000Z</time>
      </trkpt>
      <trkpt lat="45.08963" lon="5.61631">
        <ele>1833</ele>
        <time>2013-03-09T14:14:50.000Z</time>
      </trkpt>
      <trkpt lat="45.08961" lon="5.6163">
        <ele>1833</ele>
        <time>2013-03-09T14:14:51.000Z</time>
      </trkpt>
      <trkpt lat="45.08958" lon="5.6163">
        <ele>1833</ele>
        <time>2013-03-09T14:15:02.000Z</time>
      </trkpt>
      <trkpt lat="45.08956" lon="5.61632">
        <ele>1834</ele>
        <time>2013-03-09T14:15:03.000Z</time>
      </trkpt>
      <trkpt lat="45.08954" lon="5.61632">
        <ele>1834</ele>
        <time>2013-03-09T14:15:05.000Z</time>
      </trkpt>
      <trkpt lat="45.08952" lon="5.61632">
        <ele>1834</ele>
        <time>2013-03-09T14:15:06.000Z</time>
      </trkpt>
      <trkpt lat="45.08948" lon="5.61634">
        <ele>1835</ele>
        <time>2013-03-09T14:15:09.000Z</time>
      </trkpt>
      <trkpt lat="45.08946" lon="5.61642">
        <ele>1836</ele>
        <time>2013-03-09T14:15:16.000Z</time>
      </trkpt>
      <trkpt lat="45.08944" lon="5.61645">
        <ele>1837</ele>
        <time>2013-03-09T14:15:22.000Z</time>
      </trkpt>
      <trkpt lat="45.08944" lon="5.61648">
        <ele>1838</ele>
        <time>2013-03-09T14:15:23.000Z</time>
      </trkpt>
      <trkpt lat="45.08942" lon="5.6165">
        <ele>1838</ele>
        <time>2013-03-09T14:15:26.000Z</time>
      </trkpt>
      <trkpt lat="45.08947" lon="5.61653">
        <ele>1838</ele>
        <time>2013-03-09T14:15:27.000Z</time>
      </trkpt>
      <trkpt lat="45.08946" lon="5.6166">
        <ele>1839</ele>
        <time>2013-03-09T14:15:34.000Z</time>
      </trkpt>
      <trkpt lat="45.08945" lon="5.61666">
        <ele>1839</ele>
        <time>2013-03-09T14:15:40.000Z</time>
      </trkpt>
      <trkpt lat="45.08945" lon="5.61667">
        <ele>1853</ele>
        <time>2013-03-09T14:15:41.000Z</time>
      </trkpt>
      <trkpt lat="45.08944" lon="5.61671">
        <ele>1853</ele>
        <time>2013-03-09T14:15:45.000Z</time>
      </trkpt>
      <trkpt lat="45.08944" lon="5.61679">
        <ele>1853</ele>
        <time>2013-03-09T14:15:52.000Z</time>
      </trkpt>
      <trkpt lat="45.08945" lon="5.61684">
        <ele>1854</ele>
        <time>2013-03-09T14:15:58.000Z</time>
      </trkpt>
      <trkpt lat="45.08944" lon="5.61686">
        <ele>1854</ele>
        <time>2013-03-09T14:15:59.000Z</time>
      </trkpt>
      <trkpt lat="45.08945" lon="5.61688">
        <ele>1854</ele>
        <time>2013-03-09T14:16:03.000Z</time>
      </trkpt>
      <trkpt lat="45.08945" lon="5.61696">
        <ele>1855</ele>
        <time>2013-03-09T14:16:10.000Z</time>
      </trkpt>
      <trkpt lat="45.08946" lon="5.61702">
        <ele>1856</ele>
        <time>2013-03-09T14:16:16.000Z</time>
      </trkpt>
      <trkpt lat="45.08947" lon="5.61705">
        <ele>1857</ele>
        <time>2013-03-09T14:16:18.000Z</time>
      </trkpt>
      <trkpt lat="45.08949" lon="5.6171">
        <ele>1857</ele>
        <time>2013-03-09T14:16:27.000Z</time>
      </trkpt>
      <trkpt lat="45.08949" lon="5.61715">
        <ele>1858</ele>
        <time>2013-03-09T14:16:34.000Z</time>
      </trkpt>
      <trkpt lat="45.08949" lon="5.6172">
        <ele>1859</ele>
        <time>2013-03-09T14:16:41.000Z</time>
      </trkpt>
      <trkpt lat="45.08949" lon="5.61721">
        <ele>1859</ele>
        <time>2013-03-09T14:16:42.000Z</time>
      </trkpt>
      <trkpt lat="45.08946" lon="5.61724">
        <ele>1860</ele>
        <time>2013-03-09T14:16:52.000Z</time>
      </trkpt>
      <trkpt lat="45.08945" lon="5.61725">
        <ele>1861</ele>
        <time>2013-03-09T14:16:54.000Z</time>
      </trkpt>
      <trkpt lat="45.08941" lon="5.61726">
        <ele>1862</ele>
        <time>2013-03-09T14:17:03.000Z</time>
      </trkpt>
      <trkpt lat="45.08937" lon="5.61729">
        <ele>1863</ele>
        <time>2013-03-09T14:17:10.000Z</time>
      </trkpt>
      <trkpt lat="45.08936" lon="5.61735">
        <ele>1865</ele>
        <time>2013-03-09T14:17:17.000Z</time>
      </trkpt>
      <trkpt lat="45.08936" lon="5.61736">
        <ele>1865</ele>
        <time>2013-03-09T14:17:18.000Z</time>
      </trkpt>
      <trkpt lat="45.08936" lon="5.61738">
        <ele>1865</ele>
        <time>2013-03-09T14:17:21.000Z</time>
      </trkpt>
      <trkpt lat="45.08937" lon="5.61744">
        <ele>1866</ele>
        <time>2013-03-09T14:17:28.000Z</time>
      </trkpt>
      <trkpt lat="45.08937" lon="5.6175">
        <ele>1867</ele>
        <time>2013-03-09T14:17:33.000Z</time>
      </trkpt>
      <trkpt lat="45.08937" lon="5.61751">
        <ele>1881</ele>
        <time>2013-03-09T14:17:34.000Z</time>
      </trkpt>
      <trkpt lat="45.08935" lon="5.61756">
        <ele>1881</ele>
        <time>2013-03-09T14:17:49.000Z</time>
      </trkpt>
      <trkpt lat="45.08934" lon="5.61756">
        <ele>1881</ele>
        <time>2013-03-09T14:17:50.000Z</time>
      </trkpt>
      <trkpt lat="45.0893" lon="5.61758">
        <ele>1881</ele>
        <time>2013-03-09T14:17:57.000Z</time>
      </trkpt>
      <trkpt lat="45.08927" lon="5.6176">
        <ele>1881</ele>
        <time>2013-03-09T14:18:04.000Z</time>
      </trkpt>
      <trkpt lat="45.08928" lon="5.61764">
        <ele>1882</ele>
        <time>2013-03-09T14:18:07.000Z</time>
      </trkpt>
      <trkpt lat="45.08929" lon="5.61766">
        <ele>1882</ele>
        <time>2013-03-09T14:18:08.000Z</time>
      </trkpt>
      <trkpt lat="45.08931" lon="5.61771">
        <ele>1883</ele>
        <time>2013-03-09T14:18:11.000Z</time>
      </trkpt>
      <trkpt lat="45.08932" lon="5.61772">
        <ele>1883</ele>
        <time>2013-03-09T14:18:12.000Z</time>
      </trkpt>
      <trkpt lat="45.08932" lon="5.61776">
        <ele>1884</ele>
        <time>2013-03-09T14:18:15.000Z</time>
      </trkpt>
      <trkpt lat="45.08937" lon="5.61778">
        <ele>1884</ele>
        <time>2013-03-09T14:18:22.000Z</time>
      </trkpt>
      <trkpt lat="45.0894" lon="5.6178">
        <ele>1884</ele>
        <time>2013-03-09T14:18:26.000Z</time>
      </trkpt>
      <trkpt lat="45.08941" lon="5.61781">
        <ele>1884</ele>
        <time>2013-03-09T14:18:27.000Z</time>
      </trkpt>
      <trkpt lat="45.08945" lon="5.61784">
        <ele>1885</ele>
        <time>2013-03-09T14:18:32.000Z</time>
      </trkpt>
      <trkpt lat="45.08945" lon="5.61784">
        <ele>1884</ele>
        <time>2013-03-09T14:18:33.000Z</time>
      </trkpt>
      <trkpt lat="45.08951" lon="5.61786">
        <ele>1884</ele>
        <time>2013-03-09T14:18:40.000Z</time>
      </trkpt>
      <trkpt lat="45.08949" lon="5.61788">
        <ele>1885</ele>
        <time>2013-03-09T14:18:51.000Z</time>
      </trkpt>
      <trkpt lat="45.08945" lon="5.6179">
        <ele>1885</ele>
        <time>2013-03-09T14:18:58.000Z</time>
      </trkpt>
      <trkpt lat="45.08942" lon="5.61792">
        <ele>1886</ele>
        <time>2013-03-09T14:19:01.000Z</time>
      </trkpt>
      <trkpt lat="45.08941" lon="5.61795">
        <ele>1887</ele>
        <time>2013-03-09T14:19:02.000Z</time>
      </trkpt>
      <trkpt lat="45.08939" lon="5.61799">
        <ele>1888</ele>
        <time>2013-03-09T14:19:07.000Z</time>
      </trkpt>
      <trkpt lat="45.08938" lon="5.618">
        <ele>1888</ele>
        <time>2013-03-09T14:19:08.000Z</time>
      </trkpt>
      <trkpt lat="45.08938" lon="5.618">
        <ele>1888</ele>
        <time>2013-03-09T14:19:09.000Z</time>
      </trkpt>
      <trkpt lat="45.08934" lon="5.61804">
        <ele>1890</ele>
        <time>2013-03-09T14:19:16.000Z</time>
      </trkpt>
      <trkpt lat="45.08931" lon="5.61806">
        <ele>1891</ele>
        <time>2013-03-09T14:19:20.000Z</time>
      </trkpt>
      <trkpt lat="45.0893" lon="5.61806">
        <ele>1891</ele>
        <time>2013-03-09T14:19:21.000Z</time>
      </trkpt>
      <trkpt lat="45.08927" lon="5.6181">
        <ele>1892</ele>
        <time>2013-03-09T14:19:27.000Z</time>
      </trkpt>
      <trkpt lat="45.08931" lon="5.61815">
        <ele>1893</ele>
        <time>2013-03-09T14:19:34.000Z</time>
      </trkpt>
      <trkpt lat="45.08932" lon="5.61821">
        <ele>1895</ele>
        <time>2013-03-09T14:19:39.000Z</time>
      </trkpt>
      <trkpt lat="45.08933" lon="5.61821">
        <ele>1895</ele>
        <time>2013-03-09T14:19:40.000Z</time>
      </trkpt>
      <trkpt lat="45.08932" lon="5.61822">
        <ele>1895</ele>
        <time>2013-03-09T14:19:45.000Z</time>
      </trkpt>
      <trkpt lat="45.08928" lon="5.61829">
        <ele>1898</ele>
        <time>2013-03-09T14:19:52.000Z</time>
      </trkpt>
      <trkpt lat="45.08924" lon="5.61831">
        <ele>1901</ele>
        <time>2013-03-09T14:19:58.000Z</time>
      </trkpt>
      <trkpt lat="45.08924" lon="5.61832">
        <ele>1901</ele>
        <time>2013-03-09T14:19:59.000Z</time>
      </trkpt>
      <trkpt lat="45.08925" lon="5.61836">
        <ele>1908</ele>
        <time>2013-03-09T14:20:03.000Z</time>
      </trkpt>
      <trkpt lat="45.0893" lon="5.6184">
        <ele>1908</ele>
        <time>2013-03-09T14:20:10.000Z</time>
      </trkpt>
      <trkpt lat="45.08934" lon="5.6184">
        <ele>1908</ele>
        <time>2013-03-09T14:20:14.000Z</time>
      </trkpt>
      <trkpt lat="45.08936" lon="5.6184">
        <ele>1908</ele>
        <time>2013-03-09T14:20:15.000Z</time>
      </trkpt>
      <trkpt lat="45.08939" lon="5.61843">
        <ele>1909</ele>
        <time>2013-03-09T14:20:20.000Z</time>
      </trkpt>
      <trkpt lat="45.08939" lon="5.61844">
        <ele>1909</ele>
        <time>2013-03-09T14:20:21.000Z</time>
      </trkpt>
      <trkpt lat="45.08942" lon="5.61849">
        <ele>1909</ele>
        <time>2013-03-09T14:20:28.000Z</time>
      </trkpt>
      <trkpt lat="45.08945" lon="5.61852">
        <ele>1909</ele>
        <time>2013-03-09T14:20:32.000Z</time>
      </trkpt>
      <trkpt lat="45.08946" lon="5.61853">
        <ele>1909</ele>
        <time>2013-03-09T14:20:33.000Z</time>
      </trkpt>
      <trkpt lat="45.0895" lon="5.61856">
        <ele>1909</ele>
        <time>2013-03-09T14:20:39.000Z</time>
      </trkpt>
      <trkpt lat="45.08951" lon="5.61859">
        <ele>1910</ele>
        <time>2013-03-09T14:20:46.000Z</time>
      </trkpt>
      <trkpt lat="45.08951" lon="5.61865">
        <ele>1910</ele>
        <time>2013-03-09T14:20:53.000Z</time>
      </trkpt>
      <trkpt lat="45.0895" lon="5.61865">
        <ele>1910</ele>
        <time>2013-03-09T14:20:54.000Z</time>
      </trkpt>
      <trkpt lat="45.08952" lon="5.6187">
        <ele>1911</ele>
        <time>2013-03-09T14:21:04.000Z</time>
      </trkpt>
      <trkpt lat="45.08953" lon="5.61871">
        <ele>1911</ele>
        <time>2013-03-09T14:21:06.000Z</time>
      </trkpt>
      <trkpt lat="45.08956" lon="5.61874">
        <ele>1911</ele>
        <time>2013-03-09T14:21:13.000Z</time>
      </trkpt>
      <trkpt lat="45.08956" lon="5.61875">
        <ele>1911</ele>
        <time>2013-03-09T14:21:14.000Z</time>
      </trkpt>
      <trkpt lat="45.08957" lon="5.61876">
        <ele>1911</ele>
        <time>2013-03-09T14:21:15.000Z</time>
      </trkpt>
      <trkpt lat="45.0896" lon="5.6188">
        <ele>1912</ele>
        <time>2013-03-09T14:21:22.000Z</time>
      </trkpt>
      <trkpt lat="45.0896" lon="5.61886">
        <ele>1913</ele>
        <time>2013-03-09T14:21:29.000Z</time>
      </trkpt>
      <trkpt lat="45.0896" lon="5.61887">
        <ele>1913</ele>
        <time>2013-03-09T14:21:30.000Z</time>
      </trkpt>
      <trkpt lat="45.08961" lon="5.61889">
        <ele>1913</ele>
        <time>2013-03-09T14:21:33.000Z</time>
      </trkpt>
      <trkpt lat="45.08964" lon="5.61893">
        <ele>1914</ele>
        <time>2013-03-09T14:21:40.000Z</time>
      </trkpt>
      <trkpt lat="45.08964" lon="5.61899">
        <ele>1914</ele>
        <time>2013-03-09T14:21:44.000Z</time>
      </trkpt>
      <trkpt lat="45.08965" lon="5.619">
        <ele>1915</ele>
        <time>2013-03-09T14:21:45.000Z</time>
      </trkpt>
      <trkpt lat="45.08968" lon="5.61902">
        <ele>1915</ele>
        <time>2013-03-09T14:21:51.000Z</time>
      </trkpt>
      <trkpt lat="45.0897" lon="5.61909">
        <ele>1916</ele>
        <time>2013-03-09T14:21:58.000Z</time>
      </trkpt>
      <trkpt lat="45.08971" lon="5.61915">
        <ele>1916</ele>
        <time>2013-03-09T14:22:05.000Z</time>
      </trkpt>
      <trkpt lat="45.08971" lon="5.61916">
        <ele>1916</ele>
        <time>2013-03-09T14:22:06.000Z</time>
      </trkpt>
      <trkpt lat="45.08971" lon="5.61917">
        <ele>1919</ele>
        <time>2013-03-09T14:22:09.000Z</time>
      </trkpt>
      <trkpt lat="45.08974" lon="5.61923">
        <ele>1919</ele>
        <time>2013-03-09T14:22:16.000Z</time>
      </trkpt>
      <trkpt lat="45.08973" lon="5.61929">
        <ele>1918</ele>
        <time>2013-03-09T14:22:22.000Z</time>
      </trkpt>
      <trkpt lat="45.08972" lon="5.61929">
        <ele>1918</ele>
        <time>2013-03-09T14:22:23.000Z</time>
      </trkpt>
      <trkpt lat="45.08973" lon="5.61932">
        <ele>1918</ele>
        <time>2013-03-09T14:22:27.000Z</time>
      </trkpt>
      <trkpt lat="45.08974" lon="5.61936">
        <ele>1918</ele>
        <time>2013-03-09T14:22:34.000Z</time>
      </trkpt>
      <trkpt lat="45.08977" lon="5.61938">
        <ele>1919</ele>
        <time>2013-03-09T14:22:39.000Z</time>
      </trkpt>
      <trkpt lat="45.08978" lon="5.61938">
        <ele>1919</ele>
        <time>2013-03-09T14:22:40.000Z</time>
      </trkpt>
      <trkpt lat="45.08981" lon="5.61939">
        <ele>1919</ele>
        <time>2013-03-09T14:22:45.000Z</time>
      </trkpt>
      <trkpt lat="45.08984" lon="5.61946">
        <ele>1919</ele>
        <time>2013-03-09T14:22:52.000Z</time>
      </trkpt>
      <trkpt lat="45.08988" lon="5.61947">
        <ele>1920</ele>
        <time>2013-03-09T14:22:56.000Z</time>
      </trkpt>
      <trkpt lat="45.08989" lon="5.61948">
        <ele>1920</ele>
        <time>2013-03-09T14:22:57.000Z</time>
      </trkpt>
      <trkpt lat="45.08989" lon="5.61953">
        <ele>1920</ele>
        <time>2013-03-09T14:23:03.000Z</time>
      </trkpt>
      <trkpt lat="45.08987" lon="5.61957">
        <ele>1920</ele>
        <time>2013-03-09T14:23:10.000Z</time>
      </trkpt>
      <trkpt lat="45.08986" lon="5.61963">
        <ele>1920</ele>
        <time>2013-03-09T14:23:16.000Z</time>
      </trkpt>
      <trkpt lat="45.08985" lon="5.61965">
        <ele>1920</ele>
        <time>2013-03-09T14:23:18.000Z</time>
      </trkpt>
      <trkpt lat="45.08985" lon="5.61971">
        <ele>1921</ele>
        <time>2013-03-09T14:23:22.000Z</time>
      </trkpt>
      <trkpt lat="45.08985" lon="5.61973">
        <ele>1922</ele>
        <time>2013-03-09T14:23:23.000Z</time>
      </trkpt>
      <trkpt lat="45.08986" lon="5.61978">
        <ele>1924</ele>
        <time>2013-03-09T14:23:27.000Z</time>
      </trkpt>
      <trkpt lat="45.08984" lon="5.61982">
        <ele>1924</ele>
        <time>2013-03-09T14:23:34.000Z</time>
      </trkpt>
      <trkpt lat="45.08988" lon="5.61984">
        <ele>1927</ele>
        <time>2013-03-09T14:23:41.000Z</time>
      </trkpt>
      <trkpt lat="45.08989" lon="5.61984">
        <ele>1927</ele>
        <time>2013-03-09T14:23:42.000Z</time>
      </trkpt>
      <trkpt lat="45.0899" lon="5.61985">
        <ele>1928</ele>
        <time>2013-03-09T14:23:45.000Z</time>
      </trkpt>
      <trkpt lat="45.08995" lon="5.61987">
        <ele>1931</ele>
        <time>2013-03-09T14:23:52.000Z</time>
      </trkpt>
      <trkpt lat="45.08997" lon="5.61991">
        <ele>1935</ele>
        <time>2013-03-09T14:23:57.000Z</time>
      </trkpt>
      <trkpt lat="45.08998" lon="5.61991">
        <ele>1935</ele>
        <time>2013-03-09T14:23:58.000Z</time>
      </trkpt>
      <trkpt lat="45.09" lon="5.61996">
        <ele>1942</ele>
        <time>2013-03-09T14:24:03.000Z</time>
      </trkpt>
      <trkpt lat="45.09004" lon="5.61998">
        <ele>1942</ele>
        <time>2013-03-09T14:24:10.000Z</time>
      </trkpt>
      <trkpt lat="45.09006" lon="5.62003">
        <ele>1936</ele>
        <time>2013-03-09T14:24:15.000Z</time>
      </trkpt>
      <trkpt lat="45.09007" lon="5.62004">
        <ele>1935</ele>
        <time>2013-03-09T14:24:16.000Z</time>
      </trkpt>
      <trkpt lat="45.09011" lon="5.62007">
        <ele>1930</ele>
        <time>2013-03-09T14:24:28.000Z</time>
      </trkpt>
      <trkpt lat="45.09011" lon="5.6201">
        <ele>1929</ele>
        <time>2013-03-09T14:24:30.000Z</time>
      </trkpt>
      <trkpt lat="45.09014" lon="5.62005">
        <ele>1929</ele>
        <time>2013-03-09T14:25:07.000Z</time>
      </trkpt>
      <trkpt lat="45.09014" lon="5.62004">
        <ele>1929</ele>
        <time>2013-03-09T14:25:08.000Z</time>
      </trkpt>
      <trkpt lat="45.09018" lon="5.62002">
        <ele>1928</ele>
        <time>2013-03-09T14:29:55.000Z</time>
      </trkpt>
      <trkpt lat="45.09019" lon="5.62004">
        <ele>1927</ele>
        <time>2013-03-09T14:29:56.000Z</time>
      </trkpt>
      <trkpt lat="45.09021" lon="5.62004">
        <ele>1925</ele>
        <time>2013-03-09T14:29:57.000Z</time>
      </trkpt>
      <trkpt lat="45.09026" lon="5.62009">
        <ele>1922</ele>
        <time>2013-03-09T14:30:04.000Z</time>
      </trkpt>
      <trkpt lat="45.09028" lon="5.62003">
        <ele>1923</ele>
        <time>2013-03-09T14:30:30.000Z</time>
      </trkpt>
      <trkpt lat="45.09027" lon="5.62001">
        <ele>1923</ele>
        <time>2013-03-09T14:30:31.000Z</time>
      </trkpt>
      <trkpt lat="45.09026" lon="5.62001">
        <ele>1924</ele>
        <time>2013-03-09T14:30:33.000Z</time>
      </trkpt>
      <trkpt lat="45.09022" lon="5.61997">
        <ele>1933</ele>
        <time>2013-03-09T14:30:40.000Z</time>
      </trkpt>
      <trkpt lat="45.09019" lon="5.61994">
        <ele>1934</ele>
        <time>2013-03-09T14:30:46.000Z</time>
      </trkpt>
      <trkpt lat="45.09018" lon="5.61993">
        <ele>1934</ele>
        <time>2013-03-09T14:30:47.000Z</time>
      </trkpt>
      <trkpt lat="45.09015" lon="5.6199">
        <ele>1934</ele>
        <time>2013-03-09T14:30:50.000Z</time>
      </trkpt>
      <trkpt lat="45.09013" lon="5.61989">
        <ele>1935</ele>
        <time>2013-03-09T14:30:51.000Z</time>
      </trkpt>
      <trkpt lat="45.09006" lon="5.61984">
        <ele>1935</ele>
        <time>2013-03-09T14:30:58.000Z</time>
      </trkpt>
      <trkpt lat="45.09004" lon="5.6198">
        <ele>1933</ele>
        <time>2013-03-09T14:31:01.000Z</time>
      </trkpt>
      <trkpt lat="45.09004" lon="5.61979">
        <ele>1933</ele>
        <time>2013-03-09T14:31:02.000Z</time>
      </trkpt>
      <trkpt lat="45.09001" lon="5.61974">
        <ele>1932</ele>
        <time>2013-03-09T14:31:07.000Z</time>
      </trkpt>
      <trkpt lat="45.09001" lon="5.61972">
        <ele>1931</ele>
        <time>2013-03-09T14:31:08.000Z</time>
      </trkpt>
      <trkpt lat="45.09" lon="5.61966">
        <ele>1923</ele>
        <time>2013-03-09T14:31:16.000Z</time>
      </trkpt>
      <trkpt lat="45.09002" lon="5.61965">
        <ele>1929</ele>
        <time>2013-03-09T14:31:18.000Z</time>
      </trkpt>
      <trkpt lat="45.09" lon="5.6197">
        <ele>1930</ele>
        <time>2013-03-09T14:32:31.000Z</time>
      </trkpt>
      <trkpt lat="45.09" lon="5.61972">
        <ele>1931</ele>
        <time>2013-03-09T14:32:32.000Z</time>
      </trkpt>
      <trkpt lat="45.09" lon="5.61972">
        <ele>1931</ele>
        <time>2013-03-09T14:32:39.000Z</time>
      </trkpt>
      <trkpt lat="45.08985" lon="5.61961">
        <ele>1920</ele>
        <time>2013-03-09T14:32:46.000Z</time>
      </trkpt>
      <trkpt lat="45.08978" lon="5.61956">
        <ele>1918</ele>
        <time>2013-03-09T14:32:48.000Z</time>
      </trkpt>
      <trkpt lat="45.08977" lon="5.61947">
        <ele>1918</ele>
        <time>2013-03-09T14:32:49.000Z</time>
      </trkpt>
      <trkpt lat="45.08979" lon="5.61941">
        <ele>1919</ele>
        <time>2013-03-09T14:32:50.000Z</time>
      </trkpt>
      <trkpt lat="45.08982" lon="5.61932">
        <ele>1919</ele>
        <time>2013-03-09T14:32:51.000Z</time>
      </trkpt>
      <trkpt lat="45.08981" lon="5.61927">
        <ele>1920</ele>
        <time>2013-03-09T14:32:52.000Z</time>
      </trkpt>
      <trkpt lat="45.08978" lon="5.61922">
        <ele>1919</ele>
        <time>2013-03-09T14:32:53.000Z</time>
      </trkpt>
      <trkpt lat="45.08975" lon="5.61915">
        <ele>1917</ele>
        <time>2013-03-09T14:32:54.000Z</time>
      </trkpt>
      <trkpt lat="45.08976" lon="5.61908">
        <ele>1916</ele>
        <time>2013-03-09T14:32:55.000Z</time>
      </trkpt>
      <trkpt lat="45.08977" lon="5.61903">
        <ele>1916</ele>
        <time>2013-03-09T14:32:56.000Z</time>
      </trkpt>
      <trkpt lat="45.0898" lon="5.619">
        <ele>1915</ele>
        <time>2013-03-09T14:32:57.000Z</time>
      </trkpt>
      <trkpt lat="45.08989" lon="5.619">
        <ele>1916</ele>
        <time>2013-03-09T14:33:04.000Z</time>
      </trkpt>
      <trkpt lat="45.08988" lon="5.61901">
        <ele>1917</ele>
        <time>2013-03-09T14:33:27.000Z</time>
      </trkpt>
      <trkpt lat="45.09008" lon="5.61899">
        <ele>1907</ele>
        <time>2013-03-09T14:33:34.000Z</time>
      </trkpt>
      <trkpt lat="45.09013" lon="5.61901">
        <ele>1907</ele>
        <time>2013-03-09T14:33:36.000Z</time>
      </trkpt>
      <trkpt lat="45.09017" lon="5.61901">
        <ele>1905</ele>
        <time>2013-03-09T14:33:37.000Z</time>
      </trkpt>
      <trkpt lat="45.0902" lon="5.61902">
        <ele>1905</ele>
        <time>2013-03-09T14:33:38.000Z</time>
      </trkpt>
      <trkpt lat="45.09023" lon="5.61904">
        <ele>1904</ele>
        <time>2013-03-09T14:33:40.000Z</time>
      </trkpt>
      <trkpt lat="45.09025" lon="5.61905">
        <ele>1903</ele>
        <time>2013-03-09T14:33:41.000Z</time>
      </trkpt>
      <trkpt lat="45.09027" lon="5.61906">
        <ele>1903</ele>
        <time>2013-03-09T14:33:42.000Z</time>
      </trkpt>
      <trkpt lat="45.09029" lon="5.61906">
        <ele>1902</ele>
        <time>2013-03-09T14:33:43.000Z</time>
      </trkpt>
      <trkpt lat="45.09032" lon="5.61907">
        <ele>1901</ele>
        <time>2013-03-09T14:33:44.000Z</time>
      </trkpt>
      <trkpt lat="45.09036" lon="5.61908">
        <ele>1900</ele>
        <time>2013-03-09T14:33:45.000Z</time>
      </trkpt>
      <trkpt lat="45.09031" lon="5.6188">
        <ele>1896</ele>
        <time>2013-03-09T14:33:52.000Z</time>
      </trkpt>
      <trkpt lat="45.09027" lon="5.61876">
        <ele>1896</ele>
        <time>2013-03-09T14:33:54.000Z</time>
      </trkpt>
      <trkpt lat="45.09026" lon="5.6187">
        <ele>1895</ele>
        <time>2013-03-09T14:33:56.000Z</time>
      </trkpt>
      <trkpt lat="45.09027" lon="5.61867">
        <ele>1894</ele>
        <time>2013-03-09T14:33:57.000Z</time>
      </trkpt>
      <trkpt lat="45.09028" lon="5.61863">
        <ele>1893</ele>
        <time>2013-03-09T14:33:58.000Z</time>
      </trkpt>
      <trkpt lat="45.0903" lon="5.6186">
        <ele>1892</ele>
        <time>2013-03-09T14:33:59.000Z</time>
      </trkpt>
      <trkpt lat="45.09029" lon="5.61856">
        <ele>1892</ele>
        <time>2013-03-09T14:34:00.000Z</time>
      </trkpt>
      <trkpt lat="45.09027" lon="5.61852">
        <ele>1891</ele>
        <time>2013-03-09T14:34:01.000Z</time>
      </trkpt>
      <trkpt lat="45.09026" lon="5.6185">
        <ele>1891</ele>
        <time>2013-03-09T14:34:02.000Z</time>
      </trkpt>
      <trkpt lat="45.09024" lon="5.61846">
        <ele>1891</ele>
        <time>2013-03-09T14:34:03.000Z</time>
      </trkpt>
      <trkpt lat="45.09028" lon="5.61842">
        <ele>1890</ele>
        <time>2013-03-09T14:34:10.000Z</time>
      </trkpt>
      <trkpt lat="45.09032" lon="5.61842">
        <ele>1889</ele>
        <time>2013-03-09T14:34:13.000Z</time>
      </trkpt>
      <trkpt lat="45.09033" lon="5.61842">
        <ele>1889</ele>
        <time>2013-03-09T14:34:14.000Z</time>
      </trkpt>
      <trkpt lat="45.09036" lon="5.61842">
        <ele>1888</ele>
        <time>2013-03-09T14:35:06.000Z</time>
      </trkpt>
      <trkpt lat="45.09049" lon="5.61837">
        <ele>1884</ele>
        <time>2013-03-09T14:35:07.000Z</time>
      </trkpt>
      <trkpt lat="45.09058" lon="5.6183">
        <ele>1863</ele>
        <time>2013-03-09T14:35:08.000Z</time>
      </trkpt>
      <trkpt lat="45.09067" lon="5.61824">
        <ele>1861</ele>
        <time>2013-03-09T14:35:09.000Z</time>
      </trkpt>
      <trkpt lat="45.09078" lon="5.61822">
        <ele>1860</ele>
        <time>2013-03-09T14:35:10.000Z</time>
      </trkpt>
      <trkpt lat="45.09085" lon="5.61819">
        <ele>1854</ele>
        <time>2013-03-09T14:35:11.000Z</time>
      </trkpt>
      <trkpt lat="45.09091" lon="5.61809">
        <ele>1851</ele>
        <time>2013-03-09T14:35:12.000Z</time>
      </trkpt>
      <trkpt lat="45.09096" lon="5.61798">
        <ele>1849</ele>
        <time>2013-03-09T14:35:13.000Z</time>
      </trkpt>
      <trkpt lat="45.09103" lon="5.61789">
        <ele>1847</ele>
        <time>2013-03-09T14:35:14.000Z</time>
      </trkpt>
      <trkpt lat="45.09109" lon="5.61782">
        <ele>1845</ele>
        <time>2013-03-09T14:35:15.000Z</time>
      </trkpt>
      <trkpt lat="45.09164" lon="5.61712">
        <ele>1823</ele>
        <time>2013-03-09T14:35:22.000Z</time>
      </trkpt>
      <trkpt lat="45.09175" lon="5.61698">
        <ele>1822</ele>
        <time>2013-03-09T14:35:24.000Z</time>
      </trkpt>
      <trkpt lat="45.0918" lon="5.61695">
        <ele>1822</ele>
        <time>2013-03-09T14:35:25.000Z</time>
      </trkpt>
      <trkpt lat="45.09181" lon="5.61691">
        <ele>1821</ele>
        <time>2013-03-09T14:35:26.000Z</time>
      </trkpt>
      <trkpt lat="45.09174" lon="5.61691">
        <ele>1821</ele>
        <time>2013-03-09T14:35:27.000Z</time>
      </trkpt>
      <trkpt lat="45.09175" lon="5.61692">
        <ele>1821</ele>
        <time>2013-03-09T14:35:33.000Z</time>
      </trkpt>
      <trkpt lat="45.09184" lon="5.61681">
        <ele>1820</ele>
        <time>2013-03-09T14:35:40.000Z</time>
      </trkpt>
      <trkpt lat="45.0919" lon="5.6167">
        <ele>1819</ele>
        <time>2013-03-09T14:35:42.000Z</time>
      </trkpt>
      <trkpt lat="45.09193" lon="5.61661">
        <ele>1806</ele>
        <time>2013-03-09T14:35:43.000Z</time>
      </trkpt>
      <trkpt lat="45.09196" lon="5.6165">
        <ele>1805</ele>
        <time>2013-03-09T14:35:44.000Z</time>
      </trkpt>
      <trkpt lat="45.09198" lon="5.61638">
        <ele>1803</ele>
        <time>2013-03-09T14:35:45.000Z</time>
      </trkpt>
      <trkpt lat="45.09198" lon="5.61627">
        <ele>1802</ele>
        <time>2013-03-09T14:35:46.000Z</time>
      </trkpt>
      <trkpt lat="45.09201" lon="5.61617">
        <ele>1801</ele>
        <time>2013-03-09T14:35:47.000Z</time>
      </trkpt>
      <trkpt lat="45.09203" lon="5.61612">
        <ele>1800</ele>
        <time>2013-03-09T14:35:48.000Z</time>
      </trkpt>
      <trkpt lat="45.09206" lon="5.61606">
        <ele>1799</ele>
        <time>2013-03-09T14:35:49.000Z</time>
      </trkpt>
      <trkpt lat="45.09212" lon="5.61602">
        <ele>1799</ele>
        <time>2013-03-09T14:35:50.000Z</time>
      </trkpt>
      <trkpt lat="45.09217" lon="5.61601">
        <ele>1798</ele>
        <time>2013-03-09T14:35:51.000Z</time>
      </trkpt>
      <trkpt lat="45.09255" lon="5.61555">
        <ele>1783</ele>
        <time>2013-03-09T14:35:58.000Z</time>
      </trkpt>
      <trkpt lat="45.09266" lon="5.61541">
        <ele>1781</ele>
        <time>2013-03-09T14:36:00.000Z</time>
      </trkpt>
      <trkpt lat="45.0927" lon="5.61536">
        <ele>1780</ele>
        <time>2013-03-09T14:36:01.000Z</time>
      </trkpt>
      <trkpt lat="45.09275" lon="5.6153">
        <ele>1780</ele>
        <time>2013-03-09T14:36:02.000Z</time>
      </trkpt>
      <trkpt lat="45.09279" lon="5.61526">
        <ele>1779</ele>
        <time>2013-03-09T14:36:03.000Z</time>
      </trkpt>
      <trkpt lat="45.09284" lon="5.6152">
        <ele>1779</ele>
        <time>2013-03-09T14:36:04.000Z</time>
      </trkpt>
      <trkpt lat="45.09288" lon="5.61516">
        <ele>1779</ele>
        <time>2013-03-09T14:36:05.000Z</time>
      </trkpt>
      <trkpt lat="45.09291" lon="5.61508">
        <ele>1779</ele>
        <time>2013-03-09T14:36:06.000Z</time>
      </trkpt>
      <trkpt lat="45.09293" lon="5.615">
        <ele>1778</ele>
        <time>2013-03-09T14:36:07.000Z</time>
      </trkpt>
      <trkpt lat="45.09297" lon="5.61489">
        <ele>1768</ele>
        <time>2013-03-09T14:36:08.000Z</time>
      </trkpt>
      <trkpt lat="45.09302" lon="5.61478">
        <ele>1768</ele>
        <time>2013-03-09T14:36:09.000Z</time>
      </trkpt>
      <trkpt lat="45.09343" lon="5.61421">
        <ele>1762</ele>
        <time>2013-03-09T14:36:16.000Z</time>
      </trkpt>
      <trkpt lat="45.09351" lon="5.61408">
        <ele>1752</ele>
        <time>2013-03-09T14:36:18.000Z</time>
      </trkpt>
      <trkpt lat="45.09353" lon="5.61402">
        <ele>1750</ele>
        <time>2013-03-09T14:36:19.000Z</time>
      </trkpt>
      <trkpt lat="45.09354" lon="5.61394">
        <ele>1749</ele>
        <time>2013-03-09T14:36:20.000Z</time>
      </trkpt>
      <trkpt lat="45.09358" lon="5.61389">
        <ele>1748</ele>
        <time>2013-03-09T14:36:21.000Z</time>
      </trkpt>
      <trkpt lat="45.09357" lon="5.61386">
        <ele>1747</ele>
        <time>2013-03-09T14:36:22.000Z</time>
      </trkpt>
      <trkpt lat="45.09349" lon="5.6139">
        <ele>1748</ele>
        <time>2013-03-09T14:36:24.000Z</time>
      </trkpt>
      <trkpt lat="45.09347" lon="5.61391">
        <ele>1749</ele>
        <time>2013-03-09T14:36:28.000Z</time>
      </trkpt>
      <trkpt lat="45.09354" lon="5.61388">
        <ele>1748</ele>
        <time>2013-03-09T14:36:35.000Z</time>
      </trkpt>
      <trkpt lat="45.09361" lon="5.61377">
        <ele>1745</ele>
        <time>2013-03-09T14:36:37.000Z</time>
      </trkpt>
      <trkpt lat="45.09365" lon="5.61372">
        <ele>1745</ele>
        <time>2013-03-09T14:36:38.000Z</time>
      </trkpt>
      <trkpt lat="45.09369" lon="5.61366">
        <ele>1743</ele>
        <time>2013-03-09T14:36:39.000Z</time>
      </trkpt>
      <trkpt lat="45.09375" lon="5.6136">
        <ele>1742</ele>
        <time>2013-03-09T14:36:40.000Z</time>
      </trkpt>
      <trkpt lat="45.09379" lon="5.61355">
        <ele>1741</ele>
        <time>2013-03-09T14:36:41.000Z</time>
      </trkpt>
      <trkpt lat="45.09385" lon="5.61345">
        <ele>1740</ele>
        <time>2013-03-09T14:36:42.000Z</time>
      </trkpt>
      <trkpt lat="45.0939" lon="5.61338">
        <ele>1738</ele>
        <time>2013-03-09T14:36:43.000Z</time>
      </trkpt>
      <trkpt lat="45.09393" lon="5.61332">
        <ele>1725</ele>
        <time>2013-03-09T14:36:44.000Z</time>
      </trkpt>
      <trkpt lat="45.09391" lon="5.61328">
        <ele>1725</ele>
        <time>2013-03-09T14:36:46.000Z</time>
      </trkpt>
      <trkpt lat="45.09398" lon="5.61316">
        <ele>1724</ele>
        <time>2013-03-09T14:36:53.000Z</time>
      </trkpt>
      <trkpt lat="45.09402" lon="5.61317">
        <ele>1724</ele>
        <time>2013-03-09T14:36:56.000Z</time>
      </trkpt>
      <trkpt lat="45.09403" lon="5.61318">
        <ele>1724</ele>
        <time>2013-03-09T14:36:57.000Z</time>
      </trkpt>
      <trkpt lat="45.094" lon="5.61321">
        <ele>1725</ele>
        <time>2013-03-09T14:37:15.000Z</time>
      </trkpt>
      <trkpt lat="45.09406" lon="5.61313">
        <ele>1724</ele>
        <time>2013-03-09T14:37:16.000Z</time>
      </trkpt>
      <trkpt lat="45.09409" lon="5.61304">
        <ele>1723</ele>
        <time>2013-03-09T14:37:17.000Z</time>
      </trkpt>
      <trkpt lat="45.09412" lon="5.61291">
        <ele>1720</ele>
        <time>2013-03-09T14:37:18.000Z</time>
      </trkpt>
      <trkpt lat="45.09416" lon="5.61281">
        <ele>1718</ele>
        <time>2013-03-09T14:37:19.000Z</time>
      </trkpt>
      <trkpt lat="45.09418" lon="5.61269">
        <ele>1712</ele>
        <time>2013-03-09T14:37:20.000Z</time>
      </trkpt>
      <trkpt lat="45.09422" lon="5.61257">
        <ele>1709</ele>
        <time>2013-03-09T14:37:21.000Z</time>
      </trkpt>
      <trkpt lat="45.09425" lon="5.61245">
        <ele>1702</ele>
        <time>2013-03-09T14:37:22.000Z</time>
      </trkpt>
      <trkpt lat="45.09442" lon="5.61192">
        <ele>1690</ele>
        <time>2013-03-09T14:37:29.000Z</time>
      </trkpt>
      <trkpt lat="45.0944" lon="5.61189">
        <ele>1689</ele>
        <time>2013-03-09T14:37:31.000Z</time>
      </trkpt>
      <trkpt lat="45.09438" lon="5.61189">
        <ele>1689</ele>
        <time>2013-03-09T14:37:32.000Z</time>
      </trkpt>
      <trkpt lat="45.09438" lon="5.61189">
        <ele>1689</ele>
        <time>2013-03-09T14:37:50.000Z</time>
      </trkpt>
      <trkpt lat="45.09438" lon="5.61176">
        <ele>1687</ele>
        <time>2013-03-09T14:37:51.000Z</time>
      </trkpt>
      <trkpt lat="45.09437" lon="5.61161">
        <ele>1673</ele>
        <time>2013-03-09T14:37:52.000Z</time>
      </trkpt>
      <trkpt lat="45.09431" lon="5.6115">
        <ele>1672</ele>
        <time>2013-03-09T14:37:53.000Z</time>
      </trkpt>
      <trkpt lat="45.09429" lon="5.61137">
        <ele>1669</ele>
        <time>2013-03-09T14:37:54.000Z</time>
      </trkpt>
      <trkpt lat="45.09428" lon="5.61128">
        <ele>1666</ele>
        <time>2013-03-09T14:37:55.000Z</time>
      </trkpt>
      <trkpt lat="45.09426" lon="5.61119">
        <ele>1664</ele>
        <time>2013-03-09T14:37:56.000Z</time>
      </trkpt>
      <trkpt lat="45.09421" lon="5.61112">
        <ele>1663</ele>
        <time>2013-03-09T14:37:57.000Z</time>
      </trkpt>
      <trkpt lat="45.09415" lon="5.61108">
        <ele>1667</ele>
        <time>2013-03-09T14:37:58.000Z</time>
      </trkpt>
      <trkpt lat="45.0938" lon="5.61066">
        <ele>1651</ele>
        <time>2013-03-09T14:38:05.000Z</time>
      </trkpt>
      <trkpt lat="45.09374" lon="5.61052">
        <ele>1650</ele>
        <time>2013-03-09T14:38:07.000Z</time>
      </trkpt>
      <trkpt lat="45.09372" lon="5.61045">
        <ele>1649</ele>
        <time>2013-03-09T14:38:08.000Z</time>
      </trkpt>
      <trkpt lat="45.09372" lon="5.61038">
        <ele>1648</ele>
        <time>2013-03-09T14:38:09.000Z</time>
      </trkpt>
      <trkpt lat="45.09371" lon="5.61034">
        <ele>1648</ele>
        <time>2013-03-09T14:38:10.000Z</time>
      </trkpt>
      <trkpt lat="45.09367" lon="5.61033">
        <ele>1648</ele>
        <time>2013-03-09T14:38:11.000Z</time>
      </trkpt>
      <trkpt lat="45.09363" lon="5.61032">
        <ele>1648</ele>
        <time>2013-03-09T14:38:14.000Z</time>
      </trkpt>
      <trkpt lat="45.09359" lon="5.61032">
        <ele>1648</ele>
        <time>2013-03-09T14:38:16.000Z</time>
      </trkpt>
      <trkpt lat="45.0936" lon="5.61033">
        <ele>1648</ele>
        <time>2013-03-09T14:38:25.000Z</time>
      </trkpt>
      <trkpt lat="45.0936" lon="5.61026">
        <ele>1647</ele>
        <time>2013-03-09T14:38:26.000Z</time>
      </trkpt>
      <trkpt lat="45.09361" lon="5.61022">
        <ele>1647</ele>
        <time>2013-03-09T14:38:27.000Z</time>
      </trkpt>
      <trkpt lat="45.09383" lon="5.60975">
        <ele>1635</ele>
        <time>2013-03-09T14:38:34.000Z</time>
      </trkpt>
      <trkpt lat="45.09393" lon="5.60967">
        <ele>1634</ele>
        <time>2013-03-09T14:38:36.000Z</time>
      </trkpt>
      <trkpt lat="45.09395" lon="5.60964">
        <ele>1634</ele>
        <time>2013-03-09T14:38:37.000Z</time>
      </trkpt>
      <trkpt lat="45.09396" lon="5.60961">
        <ele>1634</ele>
        <time>2013-03-09T14:38:38.000Z</time>
      </trkpt>
      <trkpt lat="45.09393" lon="5.60964">
        <ele>1634</ele>
        <time>2013-03-09T14:38:45.000Z</time>
      </trkpt>
      <trkpt lat="45.09393" lon="5.60966">
        <ele>1634</ele>
        <time>2013-03-09T14:38:52.000Z</time>
      </trkpt>
      <trkpt lat="45.09397" lon="5.60965">
        <ele>1634</ele>
        <time>2013-03-09T14:40:40.000Z</time>
      </trkpt>
      <trkpt lat="45.094" lon="5.60961">
        <ele>1634</ele>
        <time>2013-03-09T14:40:42.000Z</time>
      </trkpt>
      <trkpt lat="45.09401" lon="5.60957">
        <ele>1634</ele>
        <time>2013-03-09T14:40:45.000Z</time>
      </trkpt>
      <trkpt lat="45.09402" lon="5.60955">
        <ele>1633</ele>
        <time>2013-03-09T14:40:46.000Z</time>
      </trkpt>
      <trkpt lat="45.09403" lon="5.60951">
        <ele>1633</ele>
        <time>2013-03-09T14:40:47.000Z</time>
      </trkpt>
      <trkpt lat="45.09404" lon="5.60946">
        <ele>1633</ele>
        <time>2013-03-09T14:40:48.000Z</time>
      </trkpt>
      <trkpt lat="45.09408" lon="5.6094">
        <ele>1632</ele>
        <time>2013-03-09T14:40:49.000Z</time>
      </trkpt>
      <trkpt lat="45.09411" lon="5.60936">
        <ele>1631</ele>
        <time>2013-03-09T14:40:50.000Z</time>
      </trkpt>
      <trkpt lat="45.09413" lon="5.60931">
        <ele>1631</ele>
        <time>2013-03-09T14:40:51.000Z</time>
      </trkpt>
      <trkpt lat="45.09422" lon="5.60921">
        <ele>1627</ele>
        <time>2013-03-09T14:40:58.000Z</time>
      </trkpt>
      <trkpt lat="45.09424" lon="5.6092">
        <ele>1627</ele>
        <time>2013-03-09T14:41:02.000Z</time>
      </trkpt>
      <trkpt lat="45.09426" lon="5.60919">
        <ele>1627</ele>
        <time>2013-03-09T14:41:03.000Z</time>
      </trkpt>
      <trkpt lat="45.09429" lon="5.60914">
        <ele>1624</ele>
        <time>2013-03-09T14:41:09.000Z</time>
      </trkpt>
      <trkpt lat="45.09434" lon="5.60909">
        <ele>1623</ele>
        <time>2013-03-09T14:41:16.000Z</time>
      </trkpt>
      <trkpt lat="45.09434" lon="5.60905">
        <ele>1623</ele>
        <time>2013-03-09T14:41:38.000Z</time>
      </trkpt>
      <trkpt lat="45.09437" lon="5.60904">
        <ele>1623</ele>
        <time>2013-03-09T14:41:39.000Z</time>
      </trkpt>
      <trkpt lat="45.09441" lon="5.60903">
        <ele>1622</ele>
        <time>2013-03-09T14:41:45.000Z</time>
      </trkpt>
      <trkpt lat="45.09448" lon="5.60897">
        <ele>1622</ele>
        <time>2013-03-09T14:41:52.000Z</time>
      </trkpt>
      <trkpt lat="45.09452" lon="5.60897">
        <ele>1621</ele>
        <time>2013-03-09T14:41:55.000Z</time>
      </trkpt>
      <trkpt lat="45.09453" lon="5.60897">
        <ele>1621</ele>
        <time>2013-03-09T14:41:56.000Z</time>
      </trkpt>
      <trkpt lat="45.09456" lon="5.60894">
        <ele>1621</ele>
        <time>2013-03-09T14:42:00.000Z</time>
      </trkpt>
      <trkpt lat="45.09457" lon="5.60894">
        <ele>1621</ele>
        <time>2013-03-09T14:42:01.000Z</time>
      </trkpt>
      <trkpt lat="45.09456" lon="5.60893">
        <ele>1621</ele>
        <time>2013-03-09T14:42:03.000Z</time>
      </trkpt>
      <trkpt lat="45.09461" lon="5.6089">
        <ele>1621</ele>
        <time>2013-03-09T14:42:10.000Z</time>
      </trkpt>
      <trkpt lat="45.09462" lon="5.60885">
        <ele>1620</ele>
        <time>2013-03-09T14:42:21.000Z</time>
      </trkpt>
      <trkpt lat="45.0946" lon="5.60884">
        <ele>1620</ele>
        <time>2013-03-09T14:42:28.000Z</time>
      </trkpt>
      <trkpt lat="45.0946" lon="5.6088">
        <ele>1620</ele>
        <time>2013-03-09T14:42:39.000Z</time>
      </trkpt>
      <trkpt lat="45.09463" lon="5.60873">
        <ele>1619</ele>
        <time>2013-03-09T14:42:46.000Z</time>
      </trkpt>
      <trkpt lat="45.09464" lon="5.60868">
        <ele>1619</ele>
        <time>2013-03-09T14:42:48.000Z</time>
      </trkpt>
      <trkpt lat="45.09468" lon="5.60868">
        <ele>1619</ele>
        <time>2013-03-09T14:42:49.000Z</time>
      </trkpt>
      <trkpt lat="45.09468" lon="5.60864">
        <ele>1619</ele>
        <time>2013-03-09T14:43:40.000Z</time>
      </trkpt>
      <trkpt lat="45.09469" lon="5.60858">
        <ele>1618</ele>
        <time>2013-03-09T14:43:41.000Z</time>
      </trkpt>
      <trkpt lat="45.09471" lon="5.60854">
        <ele>1618</ele>
        <time>2013-03-09T14:43:43.000Z</time>
      </trkpt>
      <trkpt lat="45.09472" lon="5.60853">
        <ele>1617</ele>
        <time>2013-03-09T14:43:44.000Z</time>
      </trkpt>
      <trkpt lat="45.09475" lon="5.60853">
        <ele>1617</ele>
        <time>2013-03-09T14:43:45.000Z</time>
      </trkpt>
      <trkpt lat="45.09482" lon="5.60852">
        <ele>1616</ele>
        <time>2013-03-09T14:43:52.000Z</time>
      </trkpt>
      <trkpt lat="45.09485" lon="5.60852">
        <ele>1616</ele>
        <time>2013-03-09T14:43:54.000Z</time>
      </trkpt>
      <trkpt lat="45.09488" lon="5.60852">
        <ele>1616</ele>
        <time>2013-03-09T14:43:55.000Z</time>
      </trkpt>
      <trkpt lat="45.09488" lon="5.60847">
        <ele>1615</ele>
        <time>2013-03-09T14:43:56.000Z</time>
      </trkpt>
      <trkpt lat="45.09488" lon="5.60843">
        <ele>1615</ele>
        <time>2013-03-09T14:43:57.000Z</time>
      </trkpt>
      <trkpt lat="45.0949" lon="5.60839">
        <ele>1614</ele>
        <time>2013-03-09T14:43:58.000Z</time>
      </trkpt>
      <trkpt lat="45.09492" lon="5.60837">
        <ele>1613</ele>
        <time>2013-03-09T14:43:59.000Z</time>
      </trkpt>
      <trkpt lat="45.09493" lon="5.60833">
        <ele>1607</ele>
        <time>2013-03-09T14:44:00.000Z</time>
      </trkpt>
      <trkpt lat="45.09495" lon="5.6083">
        <ele>1607</ele>
        <time>2013-03-09T14:44:01.000Z</time>
      </trkpt>
      <trkpt lat="45.09498" lon="5.60826">
        <ele>1606</ele>
        <time>2013-03-09T14:44:02.000Z</time>
      </trkpt>
      <trkpt lat="45.09501" lon="5.60822">
        <ele>1603</ele>
        <time>2013-03-09T14:44:03.000Z</time>
      </trkpt>
      <trkpt lat="45.09533" lon="5.60815">
        <ele>1596</ele>
        <time>2013-03-09T14:44:10.000Z</time>
      </trkpt>
      <trkpt lat="45.09532" lon="5.60811">
        <ele>1595</ele>
        <time>2013-03-09T14:44:12.000Z</time>
      </trkpt>
      <trkpt lat="45.09528" lon="5.60808">
        <ele>1595</ele>
        <time>2013-03-09T14:44:13.000Z</time>
      </trkpt>
      <trkpt lat="45.09525" lon="5.60806">
        <ele>1594</ele>
        <time>2013-03-09T14:44:14.000Z</time>
      </trkpt>
      <trkpt lat="45.09521" lon="5.60806">
        <ele>1595</ele>
        <time>2013-03-09T14:44:15.000Z</time>
      </trkpt>
      <trkpt lat="45.0952" lon="5.60801">
        <ele>1593</ele>
        <time>2013-03-09T14:44:50.000Z</time>
      </trkpt>
      <trkpt lat="45.09521" lon="5.60795">
        <ele>1592</ele>
        <time>2013-03-09T14:44:51.000Z</time>
      </trkpt>
      <trkpt lat="45.09523" lon="5.60789">
        <ele>1591</ele>
        <time>2013-03-09T14:44:52.000Z</time>
      </trkpt>
      <trkpt lat="45.09523" lon="5.60782">
        <ele>1589</ele>
        <time>2013-03-09T14:44:53.000Z</time>
      </trkpt>
      <trkpt lat="45.0952" lon="5.60775">
        <ele>1587</ele>
        <time>2013-03-09T14:44:54.000Z</time>
      </trkpt>
      <trkpt lat="45.09516" lon="5.60769">
        <ele>1585</ele>
        <time>2013-03-09T14:44:55.000Z</time>
      </trkpt>
      <trkpt lat="45.09514" lon="5.60766">
        <ele>1584</ele>
        <time>2013-03-09T14:44:56.000Z</time>
      </trkpt>
      <trkpt lat="45.09513" lon="5.60765">
        <ele>1584</ele>
        <time>2013-03-09T14:44:57.000Z</time>
      </trkpt>
      <trkpt lat="45.09514" lon="5.6076">
        <ele>1583</ele>
        <time>2013-03-09T14:45:09.000Z</time>
      </trkpt>
      <trkpt lat="45.09522" lon="5.60744">
        <ele>1564</ele>
        <time>2013-03-09T14:45:10.000Z</time>
      </trkpt>
      <trkpt lat="45.09522" lon="5.60734">
        <ele>1562</ele>
        <time>2013-03-09T14:45:11.000Z</time>
      </trkpt>
      <trkpt lat="45.09522" lon="5.60726">
        <ele>1560</ele>
        <time>2013-03-09T14:45:12.000Z</time>
      </trkpt>
      <trkpt lat="45.09517" lon="5.60722">
        <ele>1559</ele>
        <time>2013-03-09T14:45:13.000Z</time>
      </trkpt>
      <trkpt lat="45.09513" lon="5.60719">
        <ele>1558</ele>
        <time>2013-03-09T14:45:14.000Z</time>
      </trkpt>
      <trkpt lat="45.09511" lon="5.60716">
        <ele>1558</ele>
        <time>2013-03-09T14:45:15.000Z</time>
      </trkpt>
      <trkpt lat="45.09495" lon="5.60699">
        <ele>1555</ele>
        <time>2013-03-09T14:45:22.000Z</time>
      </trkpt>
      <trkpt lat="45.0949" lon="5.60691">
        <ele>1552</ele>
        <time>2013-03-09T14:45:24.000Z</time>
      </trkpt>
      <trkpt lat="45.09492" lon="5.60684">
        <ele>1549</ele>
        <time>2013-03-09T14:45:25.000Z</time>
      </trkpt>
      <trkpt lat="45.09494" lon="5.60679">
        <ele>1547</ele>
        <time>2013-03-09T14:45:29.000Z</time>
      </trkpt>
      <trkpt lat="45.09495" lon="5.60679">
        <ele>1547</ele>
        <time>2013-03-09T14:45:30.000Z</time>
      </trkpt>
      <trkpt lat="45.09495" lon="5.60678">
        <ele>1546</ele>
        <time>2013-03-09T14:45:32.000Z</time>
      </trkpt>
      <trkpt lat="45.09493" lon="5.60672">
        <ele>1544</ele>
        <time>2013-03-09T14:45:33.000Z</time>
      </trkpt>
      <trkpt lat="45.09471" lon="5.60655">
        <ele>1529</ele>
        <time>2013-03-09T14:45:40.000Z</time>
      </trkpt>
      <trkpt lat="45.09466" lon="5.60651">
        <ele>1528</ele>
        <time>2013-03-09T14:45:42.000Z</time>
      </trkpt>
      <trkpt lat="45.09464" lon="5.60648">
        <ele>1528</ele>
        <time>2013-03-09T14:45:43.000Z</time>
      </trkpt>
      <trkpt lat="45.09464" lon="5.60641">
        <ele>1526</ele>
        <time>2013-03-09T14:45:44.000Z</time>
      </trkpt>
      <trkpt lat="45.09464" lon="5.60634">
        <ele>1525</ele>
        <time>2013-03-09T14:45:45.000Z</time>
      </trkpt>
      <trkpt lat="45.09466" lon="5.60627">
        <ele>1524</ele>
        <time>2013-03-09T14:45:46.000Z</time>
      </trkpt>
      <trkpt lat="45.09467" lon="5.60619">
        <ele>1522</ele>
        <time>2013-03-09T14:45:47.000Z</time>
      </trkpt>
      <trkpt lat="45.09471" lon="5.6061">
        <ele>1520</ele>
        <time>2013-03-09T14:45:48.000Z</time>
      </trkpt>
      <trkpt lat="45.09473" lon="5.60605">
        <ele>1519</ele>
        <time>2013-03-09T14:45:49.000Z</time>
      </trkpt>
      <trkpt lat="45.09474" lon="5.60604">
        <ele>1519</ele>
        <time>2013-03-09T14:45:50.000Z</time>
      </trkpt>
      <trkpt lat="45.09476" lon="5.60599">
        <ele>1517</ele>
        <time>2013-03-09T14:46:00.000Z</time>
      </trkpt>
      <trkpt lat="45.09477" lon="5.60598">
        <ele>1517</ele>
        <time>2013-03-09T14:46:01.000Z</time>
      </trkpt>
      <trkpt lat="45.0948" lon="5.60597">
        <ele>1516</ele>
        <time>2013-03-09T14:46:02.000Z</time>
      </trkpt>
      <trkpt lat="45.09486" lon="5.60595">
        <ele>1514</ele>
        <time>2013-03-09T14:46:03.000Z</time>
      </trkpt>
      <trkpt lat="45.0949" lon="5.60594">
        <ele>1513</ele>
        <time>2013-03-09T14:46:04.000Z</time>
      </trkpt>
      <trkpt lat="45.09495" lon="5.60594">
        <ele>1512</ele>
        <time>2013-03-09T14:46:05.000Z</time>
      </trkpt>
      <trkpt lat="45.09499" lon="5.60592">
        <ele>1510</ele>
        <time>2013-03-09T14:46:06.000Z</time>
      </trkpt>
      <trkpt lat="45.09502" lon="5.60591">
        <ele>1507</ele>
        <time>2013-03-09T14:46:07.000Z</time>
      </trkpt>
      <trkpt lat="45.09504" lon="5.60591">
        <ele>1508</ele>
        <time>2013-03-09T14:46:08.000Z</time>
      </trkpt>
      <trkpt lat="45.09508" lon="5.6059">
        <ele>1508</ele>
        <time>2013-03-09T14:46:09.000Z</time>
      </trkpt>
      <trkpt lat="45.09534" lon="5.60561">
        <ele>1490</ele>
        <time>2013-03-09T14:46:16.000Z</time>
      </trkpt>
      <trkpt lat="45.09535" lon="5.60552">
        <ele>1489</ele>
        <time>2013-03-09T14:46:18.000Z</time>
      </trkpt>
      <trkpt lat="45.09536" lon="5.60546">
        <ele>1488</ele>
        <time>2013-03-09T14:46:19.000Z</time>
      </trkpt>
      <trkpt lat="45.09536" lon="5.60545">
        <ele>1488</ele>
        <time>2013-03-09T14:46:20.000Z</time>
      </trkpt>
      <trkpt lat="45.09538" lon="5.60543">
        <ele>1487</ele>
        <time>2013-03-09T14:46:21.000Z</time>
      </trkpt>
      <trkpt lat="45.0954" lon="5.60538">
        <ele>1486</ele>
        <time>2013-03-09T14:46:22.000Z</time>
      </trkpt>
      <trkpt lat="45.0954" lon="5.60533">
        <ele>1486</ele>
        <time>2013-03-09T14:46:23.000Z</time>
      </trkpt>
      <trkpt lat="45.09542" lon="5.6053">
        <ele>1485</ele>
        <time>2013-03-09T14:46:24.000Z</time>
      </trkpt>
      <trkpt lat="45.09545" lon="5.60529">
        <ele>1485</ele>
        <time>2013-03-09T14:46:26.000Z</time>
      </trkpt>
      <trkpt lat="45.09546" lon="5.60528">
        <ele>1485</ele>
        <time>2013-03-09T14:46:27.000Z</time>
      </trkpt>
      <trkpt lat="45.09545" lon="5.60526">
        <ele>1484</ele>
        <time>2013-03-09T14:47:07.000Z</time>
      </trkpt>
      <trkpt lat="45.09542" lon="5.60502">
        <ele>1482</ele>
        <time>2013-03-09T14:47:18.000Z</time>
      </trkpt>
      <trkpt lat="45.09539" lon="5.605">
        <ele>1483</ele>
        <time>2013-03-09T14:47:21.000Z</time>
      </trkpt>
      <trkpt lat="45.09536" lon="5.60495">
        <ele>1469</ele>
        <time>2013-03-09T14:47:22.000Z</time>
      </trkpt>
      <trkpt lat="45.09535" lon="5.60492">
        <ele>1469</ele>
        <time>2013-03-09T14:47:23.000Z</time>
      </trkpt>
      <trkpt lat="45.09533" lon="5.6049">
        <ele>1469</ele>
        <time>2013-03-09T14:47:24.000Z</time>
      </trkpt>
      <trkpt lat="45.0953" lon="5.60485">
        <ele>1469</ele>
        <time>2013-03-09T14:47:26.000Z</time>
      </trkpt>
      <trkpt lat="45.09527" lon="5.60484">
        <ele>1469</ele>
        <time>2013-03-09T14:47:27.000Z</time>
      </trkpt>
      <trkpt lat="45.09527" lon="5.60479">
        <ele>1469</ele>
        <time>2013-03-09T14:47:28.000Z</time>
      </trkpt>
      <trkpt lat="45.09528" lon="5.60477">
        <ele>1468</ele>
        <time>2013-03-09T14:47:29.000Z</time>
      </trkpt>
      <trkpt lat="45.09527" lon="5.60474">
        <ele>1468</ele>
        <time>2013-03-09T14:47:30.000Z</time>
      </trkpt>
      <trkpt lat="45.09525" lon="5.60435">
        <ele>1463</ele>
        <time>2013-03-09T14:47:38.000Z</time>
      </trkpt>
      <trkpt lat="45.09518" lon="5.6043">
        <ele>1462</ele>
        <time>2013-03-09T14:47:41.000Z</time>
      </trkpt>
      <trkpt lat="45.09514" lon="5.60429">
        <ele>1462</ele>
        <time>2013-03-09T14:47:43.000Z</time>
      </trkpt>
      <trkpt lat="45.09512" lon="5.60431">
        <ele>1463</ele>
        <time>2013-03-09T14:47:44.000Z</time>
      </trkpt>
      <trkpt lat="45.09515" lon="5.60428">
        <ele>1462</ele>
        <time>2013-03-09T14:52:03.000Z</time>
      </trkpt>
      <trkpt lat="45.09515" lon="5.60428">
        <ele>1462</ele>
        <time>2013-03-09T14:52:04.000Z</time>
      </trkpt>
      <trkpt lat="45.09514" lon="5.60427">
        <ele>1462</ele>
        <time>2013-03-09T14:52:43.000Z</time>
      </trkpt>
      <trkpt lat="45.09511" lon="5.60425">
        <ele>1462</ele>
        <time>2013-03-09T14:52:44.000Z</time>
      </trkpt>
      <trkpt lat="45.09509" lon="5.60422">
        <ele>1462</ele>
        <time>2013-03-09T14:52:46.000Z</time>
      </trkpt>
      <trkpt lat="45.09506" lon="5.60419">
        <ele>1462</ele>
        <time>2013-03-09T14:52:47.000Z</time>
      </trkpt>
      <trkpt lat="45.09501" lon="5.60409">
        <ele>1457</ele>
        <time>2013-03-09T14:52:54.000Z</time>
      </trkpt>
      <trkpt lat="45.09497" lon="5.60406">
        <ele>1460</ele>
        <time>2013-03-09T14:53:00.000Z</time>
      </trkpt>
      <trkpt lat="45.09497" lon="5.60407">
        <ele>1460</ele>
        <time>2013-03-09T14:53:01.000Z</time>
      </trkpt>
      <trkpt lat="45.09495" lon="5.60409">
        <ele>1461</ele>
        <time>2013-03-09T14:53:05.000Z</time>
      </trkpt>
      <trkpt lat="45.09493" lon="5.60411">
        <ele>1461</ele>
        <time>2013-03-09T14:53:12.000Z</time>
      </trkpt>
      <trkpt lat="45.09493" lon="5.60411">
        <ele>1461</ele>
        <time>2013-03-09T14:53:23.000Z</time>
      </trkpt>
      <trkpt lat="45.09486" lon="5.60409">
        <ele>1461</ele>
        <time>2013-03-09T14:53:30.000Z</time>
      </trkpt>
      <trkpt lat="45.0948" lon="5.6041">
        <ele>1461</ele>
        <time>2013-03-09T14:53:33.000Z</time>
      </trkpt>
      <trkpt lat="45.09477" lon="5.6041">
        <ele>1461</ele>
        <time>2013-03-09T14:53:34.000Z</time>
      </trkpt>
      <trkpt lat="45.09473" lon="5.60411">
        <ele>1461</ele>
        <time>2013-03-09T14:53:35.000Z</time>
      </trkpt>
      <trkpt lat="45.0947" lon="5.60411">
        <ele>1461</ele>
        <time>2013-03-09T14:53:36.000Z</time>
      </trkpt>
      <trkpt lat="45.09467" lon="5.60411">
        <ele>1461</ele>
        <time>2013-03-09T14:53:37.000Z</time>
      </trkpt>
      <trkpt lat="45.09463" lon="5.60413">
        <ele>1462</ele>
        <time>2013-03-09T14:53:40.000Z</time>
      </trkpt>
      <trkpt lat="45.0946" lon="5.60415">
        <ele>1462</ele>
        <time>2013-03-09T14:53:41.000Z</time>
      </trkpt>
      <trkpt lat="45.0946" lon="5.60415">
        <ele>1462</ele>
        <time>2013-03-09T14:53:42.000Z</time>
      </trkpt>
      <trkpt lat="45.09448" lon="5.60416">
        <ele>1464</ele>
        <time>2013-03-09T14:53:49.000Z</time>
      </trkpt>
      <trkpt lat="45.09444" lon="5.60418">
        <ele>1474</ele>
        <time>2013-03-09T14:53:53.000Z</time>
      </trkpt>
      <trkpt lat="45.09443" lon="5.60418">
        <ele>1474</ele>
        <time>2013-03-09T14:53:54.000Z</time>
      </trkpt>
      <trkpt lat="45.09441" lon="5.60418">
        <ele>1474</ele>
        <time>2013-03-09T14:54:00.000Z</time>
      </trkpt>
      <trkpt lat="45.09432" lon="5.60423">
        <ele>1475</ele>
        <time>2013-03-09T14:54:07.000Z</time>
      </trkpt>
      <trkpt lat="45.09429" lon="5.60424">
        <ele>1475</ele>
        <time>2013-03-09T14:54:09.000Z</time>
      </trkpt>
      <trkpt lat="45.09424" lon="5.6042">
        <ele>1474</ele>
        <time>2013-03-09T14:54:10.000Z</time>
      </trkpt>
      <trkpt lat="45.09423" lon="5.60418">
        <ele>1474</ele>
        <time>2013-03-09T14:54:14.000Z</time>
      </trkpt>
      <trkpt lat="45.0942" lon="5.60415">
        <ele>1471</ele>
        <time>2013-03-09T14:54:15.000Z</time>
      </trkpt>
      <trkpt lat="45.09418" lon="5.60413">
        <ele>1471</ele>
        <time>2013-03-09T14:54:18.000Z</time>
      </trkpt>
      <trkpt lat="45.09409" lon="5.60406">
        <ele>1472</ele>
        <time>2013-03-09T14:54:25.000Z</time>
      </trkpt>
      <trkpt lat="45.09405" lon="5.60406">
        <ele>1472</ele>
        <time>2013-03-09T14:54:27.000Z</time>
      </trkpt>
      <trkpt lat="45.09404" lon="5.60405">
        <ele>1472</ele>
        <time>2013-03-09T14:54:28.000Z</time>
      </trkpt>
      <trkpt lat="45.094" lon="5.60406">
        <ele>1472</ele>
        <time>2013-03-09T14:54:29.000Z</time>
      </trkpt>
      <trkpt lat="45.09398" lon="5.60405">
        <ele>1472</ele>
        <time>2013-03-09T14:54:30.000Z</time>
      </trkpt>
      <trkpt lat="45.09395" lon="5.60405">
        <ele>1473</ele>
        <time>2013-03-09T14:54:31.000Z</time>
      </trkpt>
      <trkpt lat="45.09393" lon="5.60405">
        <ele>1473</ele>
        <time>2013-03-09T14:54:32.000Z</time>
      </trkpt>
      <trkpt lat="45.09389" lon="5.60403">
        <ele>1473</ele>
        <time>2013-03-09T14:54:34.000Z</time>
      </trkpt>
      <trkpt lat="45.09387" lon="5.60403">
        <ele>1473</ele>
        <time>2013-03-09T14:54:35.000Z</time>
      </trkpt>
      <trkpt lat="45.09387" lon="5.60401">
        <ele>1473</ele>
        <time>2013-03-09T14:54:36.000Z</time>
      </trkpt>
      <trkpt lat="45.09379" lon="5.60403">
        <ele>1473</ele>
        <time>2013-03-09T14:54:43.000Z</time>
      </trkpt>
      <trkpt lat="45.09377" lon="5.60406">
        <ele>1473</ele>
        <time>2013-03-09T14:54:48.000Z</time>
      </trkpt>
      <trkpt lat="45.09376" lon="5.60408">
        <ele>1474</ele>
        <time>2013-03-09T14:54:49.000Z</time>
      </trkpt>
      <trkpt lat="45.09375" lon="5.60413">
        <ele>1474</ele>
        <time>2013-03-09T14:54:52.000Z</time>
      </trkpt>
      <trkpt lat="45.09376" lon="5.60415">
        <ele>1474</ele>
        <time>2013-03-09T14:54:53.000Z</time>
      </trkpt>
      <trkpt lat="45.09375" lon="5.60415">
        <ele>1474</ele>
        <time>2013-03-09T14:54:54.000Z</time>
      </trkpt>
      <trkpt lat="45.09374" lon="5.60427">
        <ele>1484</ele>
        <time>2013-03-09T14:55:01.000Z</time>
      </trkpt>
      <trkpt lat="45.09372" lon="5.6043">
        <ele>1484</ele>
        <time>2013-03-09T14:55:05.000Z</time>
      </trkpt>
      <trkpt lat="45.0937" lon="5.60432">
        <ele>1484</ele>
        <time>2013-03-09T14:55:06.000Z</time>
      </trkpt>
      <trkpt lat="45.09367" lon="5.60436">
        <ele>1485</ele>
        <time>2013-03-09T14:55:08.000Z</time>
      </trkpt>
      <trkpt lat="45.09365" lon="5.60437">
        <ele>1485</ele>
        <time>2013-03-09T14:55:09.000Z</time>
      </trkpt>
      <trkpt lat="45.09363" lon="5.60442">
        <ele>1485</ele>
        <time>2013-03-09T14:55:15.000Z</time>
      </trkpt>
      <trkpt lat="45.09361" lon="5.60443">
        <ele>1485</ele>
        <time>2013-03-09T14:55:17.000Z</time>
      </trkpt>
      <trkpt lat="45.0936" lon="5.60449">
        <ele>1486</ele>
        <time>2013-03-09T14:55:23.000Z</time>
      </trkpt>
      <trkpt lat="45.09359" lon="5.60451">
        <ele>1486</ele>
        <time>2013-03-09T14:55:24.000Z</time>
      </trkpt>
      <trkpt lat="45.09358" lon="5.60453">
        <ele>1487</ele>
        <time>2013-03-09T14:55:26.000Z</time>
      </trkpt>
      <trkpt lat="45.09359" lon="5.60459">
        <ele>1487</ele>
        <time>2013-03-09T14:55:33.000Z</time>
      </trkpt>
      <trkpt lat="45.09356" lon="5.60463">
        <ele>1488</ele>
        <time>2013-03-09T14:55:39.000Z</time>
      </trkpt>
      <trkpt lat="45.09356" lon="5.60465">
        <ele>1488</ele>
        <time>2013-03-09T14:55:40.000Z</time>
      </trkpt>
      <trkpt lat="45.09355" lon="5.6047">
        <ele>1489</ele>
        <time>2013-03-09T14:55:43.000Z</time>
      </trkpt>
      <trkpt lat="45.09354" lon="5.60471">
        <ele>1489</ele>
        <time>2013-03-09T14:55:44.000Z</time>
      </trkpt>
      <trkpt lat="45.09354" lon="5.60471">
        <ele>1489</ele>
        <time>2013-03-09T14:55:45.000Z</time>
      </trkpt>
      <trkpt lat="45.09355" lon="5.60482">
        <ele>1491</ele>
        <time>2013-03-09T14:55:53.000Z</time>
      </trkpt>
      <trkpt lat="45.09357" lon="5.60492">
        <ele>1491</ele>
        <time>2013-03-09T14:55:56.000Z</time>
      </trkpt>
      <trkpt lat="45.09357" lon="5.60494">
        <ele>1492</ele>
        <time>2013-03-09T14:55:57.000Z</time>
      </trkpt>
      <trkpt lat="45.09356" lon="5.60498">
        <ele>1492</ele>
        <time>2013-03-09T14:55:58.000Z</time>
      </trkpt>
      <trkpt lat="45.09358" lon="5.60502">
        <ele>1502</ele>
        <time>2013-03-09T14:56:04.000Z</time>
      </trkpt>
      <trkpt lat="45.0936" lon="5.60505">
        <ele>1502</ele>
        <time>2013-03-09T14:56:05.000Z</time>
      </trkpt>
      <trkpt lat="45.09352" lon="5.6051">
        <ele>1502</ele>
        <time>2013-03-09T14:56:13.000Z</time>
      </trkpt>
      <trkpt lat="45.09352" lon="5.60512">
        <ele>1502</ele>
        <time>2013-03-09T14:56:18.000Z</time>
      </trkpt>
      <trkpt lat="45.09352" lon="5.60517">
        <ele>1503</ele>
        <time>2013-03-09T14:56:19.000Z</time>
      </trkpt>
      <trkpt lat="45.0935" lon="5.60521">
        <ele>1503</ele>
        <time>2013-03-09T14:56:22.000Z</time>
      </trkpt>
      <trkpt lat="45.0935" lon="5.60524">
        <ele>1503</ele>
        <time>2013-03-09T14:56:23.000Z</time>
      </trkpt>
      <trkpt lat="45.09348" lon="5.60528">
        <ele>1504</ele>
        <time>2013-03-09T14:57:14.000Z</time>
      </trkpt>
      <trkpt lat="45.09345" lon="5.6053">
        <ele>1504</ele>
        <time>2013-03-09T14:57:16.000Z</time>
      </trkpt>
      <trkpt lat="45.09341" lon="5.60539">
        <ele>1506</ele>
        <time>2013-03-09T14:57:19.000Z</time>
      </trkpt>
      <trkpt lat="45.0934" lon="5.60543">
        <ele>1506</ele>
        <time>2013-03-09T14:57:21.000Z</time>
      </trkpt>
      <trkpt lat="45.09339" lon="5.60547">
        <ele>1507</ele>
        <time>2013-03-09T14:57:22.000Z</time>
      </trkpt>
      <trkpt lat="45.09341" lon="5.60552">
        <ele>1508</ele>
        <time>2013-03-09T14:57:23.000Z</time>
      </trkpt>
      <trkpt lat="45.09345" lon="5.60567">
        <ele>1510</ele>
        <time>2013-03-09T14:57:24.000Z</time>
      </trkpt>
      <trkpt lat="45.09345" lon="5.60572">
        <ele>1511</ele>
        <time>2013-03-09T14:57:26.000Z</time>
      </trkpt>
      <trkpt lat="45.09345" lon="5.60575">
        <ele>1512</ele>
        <time>2013-03-09T14:57:27.000Z</time>
      </trkpt>
      <trkpt lat="45.09346" lon="5.60577">
        <ele>1512</ele>
        <time>2013-03-09T14:57:28.000Z</time>
      </trkpt>
      <trkpt lat="45.09347" lon="5.6059">
        <ele>1522</ele>
        <time>2013-03-09T14:57:36.000Z</time>
      </trkpt>
      <trkpt lat="45.09343" lon="5.60591">
        <ele>1521</ele>
        <time>2013-03-09T14:57:39.000Z</time>
      </trkpt>
      <trkpt lat="45.09343" lon="5.60592">
        <ele>1521</ele>
        <time>2013-03-09T14:57:40.000Z</time>
      </trkpt>
      <trkpt lat="45.09344" lon="5.60593">
        <ele>1522</ele>
        <time>2013-03-09T14:57:44.000Z</time>
      </trkpt>
      <trkpt lat="45.09346" lon="5.60596">
        <ele>1523</ele>
        <time>2013-03-09T14:57:45.000Z</time>
      </trkpt>
      <trkpt lat="45.09347" lon="5.60598">
        <ele>1523</ele>
        <time>2013-03-09T14:57:48.000Z</time>
      </trkpt>
      <trkpt lat="45.09351" lon="5.606">
        <ele>1524</ele>
        <time>2013-03-09T14:57:55.000Z</time>
      </trkpt>
      <trkpt lat="45.09351" lon="5.60603">
        <ele>1525</ele>
        <time>2013-03-09T14:57:58.000Z</time>
      </trkpt>
      <trkpt lat="45.09347" lon="5.60606">
        <ele>1525</ele>
        <time>2013-03-09T14:57:59.000Z</time>
      </trkpt>
      <trkpt lat="45.09351" lon="5.60609">
        <ele>1526</ele>
        <time>2013-03-09T14:58:03.000Z</time>
      </trkpt>
      <trkpt lat="45.09353" lon="5.60607">
        <ele>1525</ele>
        <time>2013-03-09T14:58:04.000Z</time>
      </trkpt>
      <trkpt lat="45.09357" lon="5.6061">
        <ele>1526</ele>
        <time>2013-03-09T14:58:22.000Z</time>
      </trkpt>
      <trkpt lat="45.09359" lon="5.60612">
        <ele>1527</ele>
        <time>2013-03-09T14:58:23.000Z</time>
      </trkpt>
      <trkpt lat="45.09363" lon="5.60615">
        <ele>1527</ele>
        <time>2013-03-09T14:58:26.000Z</time>
      </trkpt>
      <trkpt lat="45.09364" lon="5.60618">
        <ele>1527</ele>
        <time>2013-03-09T14:58:27.000Z</time>
      </trkpt>
      <trkpt lat="45.09371" lon="5.60624">
        <ele>1528</ele>
        <time>2013-03-09T14:58:34.000Z</time>
      </trkpt>
      <trkpt lat="45.09372" lon="5.60629">
        <ele>1529</ele>
        <time>2013-03-09T14:58:42.000Z</time>
      </trkpt>
      <trkpt lat="45.09372" lon="5.60632">
        <ele>1530</ele>
        <time>2013-03-09T14:58:43.000Z</time>
      </trkpt>
      <trkpt lat="45.09373" lon="5.60634">
        <ele>1530</ele>
        <time>2013-03-09T14:58:45.000Z</time>
      </trkpt>
      <trkpt lat="45.0938" lon="5.60635">
        <ele>1530</ele>
        <time>2013-03-09T14:58:52.000Z</time>
      </trkpt>
      <trkpt lat="45.09381" lon="5.6064">
        <ele>1531</ele>
        <time>2013-03-09T14:58:55.000Z</time>
      </trkpt>
      <trkpt lat="45.09382" lon="5.60641">
        <ele>1531</ele>
        <time>2013-03-09T14:58:56.000Z</time>
      </trkpt>
      <trkpt lat="45.09386" lon="5.60641">
        <ele>1531</ele>
        <time>2013-03-09T14:58:59.000Z</time>
      </trkpt>
      <trkpt lat="45.0939" lon="5.60641">
        <ele>1531</ele>
        <time>2013-03-09T14:59:00.000Z</time>
      </trkpt>
      <trkpt lat="45.09393" lon="5.60643">
        <ele>1532</ele>
        <time>2013-03-09T14:59:03.000Z</time>
      </trkpt>
      <trkpt lat="45.09396" lon="5.60649">
        <ele>1533</ele>
        <time>2013-03-09T14:59:10.000Z</time>
      </trkpt>
      <trkpt lat="45.09398" lon="5.60654">
        <ele>1534</ele>
        <time>2013-03-09T14:59:19.000Z</time>
      </trkpt>
      <trkpt lat="45.09399" lon="5.60655">
        <ele>1534</ele>
        <time>2013-03-09T14:59:20.000Z</time>
      </trkpt>
      <trkpt lat="45.09401" lon="5.6066">
        <ele>1535</ele>
        <time>2013-03-09T14:59:28.000Z</time>
      </trkpt>
      <trkpt lat="45.09403" lon="5.60659">
        <ele>1535</ele>
        <time>2013-03-09T14:59:30.000Z</time>
      </trkpt>
      <trkpt lat="45.09405" lon="5.60661">
        <ele>1536</ele>
        <time>2013-03-09T14:59:32.000Z</time>
      </trkpt>
      <trkpt lat="45.09407" lon="5.60663">
        <ele>1537</ele>
        <time>2013-03-09T14:59:33.000Z</time>
      </trkpt>
      <trkpt lat="45.09409" lon="5.60666">
        <ele>1538</ele>
        <time>2013-03-09T14:59:35.000Z</time>
      </trkpt>
      <trkpt lat="45.0941" lon="5.60667">
        <ele>1546</ele>
        <time>2013-03-09T14:59:36.000Z</time>
      </trkpt>
      <trkpt lat="45.09411" lon="5.60667">
        <ele>1546</ele>
        <time>2013-03-09T14:59:39.000Z</time>
      </trkpt>
      <trkpt lat="45.09415" lon="5.6067">
        <ele>1544</ele>
        <time>2013-03-09T14:59:46.000Z</time>
      </trkpt>
      <trkpt lat="45.09418" lon="5.6067">
        <ele>1544</ele>
        <time>2013-03-09T14:59:53.000Z</time>
      </trkpt>
      <trkpt lat="45.0942" lon="5.6067">
        <ele>1544</ele>
        <time>2013-03-09T14:59:54.000Z</time>
      </trkpt>
      <trkpt lat="45.09423" lon="5.60672">
        <ele>1546</ele>
        <time>2013-03-09T15:00:04.000Z</time>
      </trkpt>
      <trkpt lat="45.09423" lon="5.60676">
        <ele>1548</ele>
        <time>2013-03-09T15:00:06.000Z</time>
      </trkpt>
      <trkpt lat="45.09425" lon="5.6068">
        <ele>1550</ele>
        <time>2013-03-09T15:00:09.000Z</time>
      </trkpt>
      <trkpt lat="45.09426" lon="5.60681">
        <ele>1550</ele>
        <time>2013-03-09T15:00:10.000Z</time>
      </trkpt>
      <trkpt lat="45.09429" lon="5.60679">
        <ele>1550</ele>
        <time>2013-03-09T15:00:15.000Z</time>
      </trkpt>
      <trkpt lat="45.09432" lon="5.6068">
        <ele>1551</ele>
        <time>2013-03-09T15:00:17.000Z</time>
      </trkpt>
      <trkpt lat="45.09436" lon="5.60684">
        <ele>1553</ele>
        <time>2013-03-09T15:00:20.000Z</time>
      </trkpt>
      <trkpt lat="45.09438" lon="5.60685">
        <ele>1553</ele>
        <time>2013-03-09T15:00:21.000Z</time>
      </trkpt>
      <trkpt lat="45.09441" lon="5.60687">
        <ele>1554</ele>
        <time>2013-03-09T15:00:26.000Z</time>
      </trkpt>
      <trkpt lat="45.09442" lon="5.60688">
        <ele>1554</ele>
        <time>2013-03-09T15:00:27.000Z</time>
      </trkpt>
      <trkpt lat="45.09443" lon="5.6069">
        <ele>1555</ele>
        <time>2013-03-09T15:00:28.000Z</time>
      </trkpt>
      <trkpt lat="45.09448" lon="5.60691">
        <ele>1555</ele>
        <time>2013-03-09T15:00:35.000Z</time>
      </trkpt>
      <trkpt lat="45.09452" lon="5.60694">
        <ele>1556</ele>
        <time>2013-03-09T15:00:42.000Z</time>
      </trkpt>
      <trkpt lat="45.09453" lon="5.60696">
        <ele>1556</ele>
        <time>2013-03-09T15:00:43.000Z</time>
      </trkpt>
      <trkpt lat="45.09453" lon="5.60701">
        <ele>1557</ele>
        <time>2013-03-09T15:00:46.000Z</time>
      </trkpt>
      <trkpt lat="45.09454" lon="5.60702">
        <ele>1558</ele>
        <time>2013-03-09T15:00:53.000Z</time>
      </trkpt>
      <trkpt lat="45.09457" lon="5.60707">
        <ele>1559</ele>
        <time>2013-03-09T15:00:56.000Z</time>
      </trkpt>
      <trkpt lat="45.09458" lon="5.60709">
        <ele>1559</ele>
        <time>2013-03-09T15:00:57.000Z</time>
      </trkpt>
      <trkpt lat="45.09461" lon="5.6071">
        <ele>1559</ele>
        <time>2013-03-09T15:01:03.000Z</time>
      </trkpt>
      <trkpt lat="45.09462" lon="5.60711">
        <ele>1559</ele>
        <time>2013-03-09T15:01:04.000Z</time>
      </trkpt>
      <trkpt lat="45.09467" lon="5.60714">
        <ele>1560</ele>
        <time>2013-03-09T15:01:11.000Z</time>
      </trkpt>
      <trkpt lat="45.09468" lon="5.60718">
        <ele>1561</ele>
        <time>2013-03-09T15:01:18.000Z</time>
      </trkpt>
      <trkpt lat="45.09469" lon="5.60719">
        <ele>1561</ele>
        <time>2013-03-09T15:01:19.000Z</time>
      </trkpt>
      <trkpt lat="45.09473" lon="5.6072">
        <ele>1561</ele>
        <time>2013-03-09T15:01:22.000Z</time>
      </trkpt>
      <trkpt lat="45.09479" lon="5.60726">
        <ele>1563</ele>
        <time>2013-03-09T15:01:29.000Z</time>
      </trkpt>
      <trkpt lat="45.09483" lon="5.60728">
        <ele>1564</ele>
        <time>2013-03-09T15:01:33.000Z</time>
      </trkpt>
      <trkpt lat="45.09484" lon="5.60728">
        <ele>1564</ele>
        <time>2013-03-09T15:01:34.000Z</time>
      </trkpt>
      <trkpt lat="45.09487" lon="5.60731">
        <ele>1565</ele>
        <time>2013-03-09T15:01:37.000Z</time>
      </trkpt>
      <trkpt lat="45.09487" lon="5.60732">
        <ele>1565</ele>
        <time>2013-03-09T15:01:38.000Z</time>
      </trkpt>
      <trkpt lat="45.09487" lon="5.60732">
        <ele>1565</ele>
        <time>2013-03-09T15:01:40.000Z</time>
      </trkpt>
      <trkpt lat="45.09491" lon="5.60738">
        <ele>1568</ele>
        <time>2013-03-09T15:01:47.000Z</time>
      </trkpt>
      <trkpt lat="45.09494" lon="5.60741">
        <ele>1569</ele>
        <time>2013-03-09T15:01:51.000Z</time>
      </trkpt>
      <trkpt lat="45.09496" lon="5.60743">
        <ele>1570</ele>
        <time>2013-03-09T15:01:52.000Z</time>
      </trkpt>
      <trkpt lat="45.09499" lon="5.60746">
        <ele>1572</ele>
        <time>2013-03-09T15:01:56.000Z</time>
      </trkpt>
      <trkpt lat="45.095" lon="5.60745">
        <ele>1572</ele>
        <time>2013-03-09T15:01:57.000Z</time>
      </trkpt>
      <trkpt lat="45.09501" lon="5.60745">
        <ele>1571</ele>
        <time>2013-03-09T15:01:58.000Z</time>
      </trkpt>
      <trkpt lat="45.09505" lon="5.60751">
        <ele>1578</ele>
        <time>2013-03-09T15:02:05.000Z</time>
      </trkpt>
      <trkpt lat="45.09509" lon="5.60751">
        <ele>1579</ele>
        <time>2013-03-09T15:02:11.000Z</time>
      </trkpt>
      <trkpt lat="45.09509" lon="5.60752">
        <ele>1580</ele>
        <time>2013-03-09T15:02:12.000Z</time>
      </trkpt>
      <trkpt lat="45.0951" lon="5.60756">
        <ele>1581</ele>
        <time>2013-03-09T15:02:16.000Z</time>
      </trkpt>
      <trkpt lat="45.09514" lon="5.60761">
        <ele>1583</ele>
        <time>2013-03-09T15:02:23.000Z</time>
      </trkpt>
      <trkpt lat="45.09518" lon="5.60763">
        <ele>1584</ele>
        <time>2013-03-09T15:02:31.000Z</time>
      </trkpt>
      <trkpt lat="45.09519" lon="5.60764">
        <ele>1584</ele>
        <time>2013-03-09T15:02:32.000Z</time>
      </trkpt>
      <trkpt lat="45.0952" lon="5.60764">
        <ele>1585</ele>
        <time>2013-03-09T15:02:34.000Z</time>
      </trkpt>
      <trkpt lat="45.09527" lon="5.60771">
        <ele>1586</ele>
        <time>2013-03-09T15:02:41.000Z</time>
      </trkpt>
      <trkpt lat="45.09529" lon="5.60776">
        <ele>1588</ele>
        <time>2013-03-09T15:03:01.000Z</time>
      </trkpt>
      <trkpt lat="45.09529" lon="5.60776">
        <ele>1588</ele>
        <time>2013-03-09T15:03:02.000Z</time>
      </trkpt>
      <trkpt lat="45.09531" lon="5.6078">
        <ele>1588</ele>
        <time>2013-03-09T15:03:04.000Z</time>
      </trkpt>
      <trkpt lat="45.09534" lon="5.60781">
        <ele>1589</ele>
        <time>2013-03-09T15:03:05.000Z</time>
      </trkpt>
      <trkpt lat="45.09538" lon="5.60782">
        <ele>1589</ele>
        <time>2013-03-09T15:03:09.000Z</time>
      </trkpt>
      <trkpt lat="45.0954" lon="5.60783">
        <ele>1589</ele>
        <time>2013-03-09T15:03:10.000Z</time>
      </trkpt>
      <trkpt lat="45.09546" lon="5.60785">
        <ele>1589</ele>
        <time>2013-03-09T15:03:18.000Z</time>
      </trkpt>
      <trkpt lat="45.09546" lon="5.60789">
        <ele>1590</ele>
        <time>2013-03-09T15:03:21.000Z</time>
      </trkpt>
      <trkpt lat="45.09542" lon="5.60791">
        <ele>1591</ele>
        <time>2013-03-09T15:03:22.000Z</time>
      </trkpt>
      <trkpt lat="45.09542" lon="5.60797">
        <ele>1592</ele>
        <time>2013-03-09T15:03:29.000Z</time>
      </trkpt>
      <trkpt lat="45.09538" lon="5.60799">
        <ele>1592</ele>
        <time>2013-03-09T15:03:36.000Z</time>
      </trkpt>
      <trkpt lat="45.09535" lon="5.60801">
        <ele>1593</ele>
        <time>2013-03-09T15:03:38.000Z</time>
      </trkpt>
      <trkpt lat="45.09533" lon="5.60802">
        <ele>1593</ele>
        <time>2013-03-09T15:03:39.000Z</time>
      </trkpt>
      <trkpt lat="45.09529" lon="5.60801">
        <ele>1593</ele>
        <time>2013-03-09T15:03:45.000Z</time>
      </trkpt>
      <trkpt lat="45.09527" lon="5.60801">
        <ele>1593</ele>
        <time>2013-03-09T15:03:46.000Z</time>
      </trkpt>
      <trkpt lat="45.09528" lon="5.60802">
        <ele>1593</ele>
        <time>2013-03-09T15:03:47.000Z</time>
      </trkpt>
      <trkpt lat="45.09525" lon="5.60809">
        <ele>1595</ele>
        <time>2013-03-09T15:03:54.000Z</time>
      </trkpt>
      <trkpt lat="45.09521" lon="5.60809">
        <ele>1596</ele>
        <time>2013-03-09T15:03:57.000Z</time>
      </trkpt>
      <trkpt lat="45.09519" lon="5.60805">
        <ele>1595</ele>
        <time>2013-03-09T15:03:58.000Z</time>
      </trkpt>
      <trkpt lat="45.09515" lon="5.60804">
        <ele>1595</ele>
        <time>2013-03-09T15:04:01.000Z</time>
      </trkpt>
      <trkpt lat="45.09513" lon="5.60804">
        <ele>1595</ele>
        <time>2013-03-09T15:04:02.000Z</time>
      </trkpt>
      <trkpt lat="45.09511" lon="5.60806">
        <ele>1596</ele>
        <time>2013-03-09T15:04:05.000Z</time>
      </trkpt>
      <trkpt lat="45.09503" lon="5.60804">
        <ele>1596</ele>
        <time>2013-03-09T15:04:12.000Z</time>
      </trkpt>
      <trkpt lat="45.09499" lon="5.60803">
        <ele>1598</ele>
        <time>2013-03-09T15:04:16.000Z</time>
      </trkpt>
      <trkpt lat="45.09496" lon="5.60802">
        <ele>1598</ele>
        <time>2013-03-09T15:04:17.000Z</time>
      </trkpt>
      <trkpt lat="45.09492" lon="5.60804">
        <ele>1598</ele>
        <time>2013-03-09T15:04:21.000Z</time>
      </trkpt>
      <trkpt lat="45.09492" lon="5.60805">
        <ele>1599</ele>
        <time>2013-03-09T15:04:22.000Z</time>
      </trkpt>
      <trkpt lat="45.09491" lon="5.60804">
        <ele>1599</ele>
        <time>2013-03-09T15:04:23.000Z</time>
      </trkpt>
      <trkpt lat="45.09486" lon="5.6081">
        <ele>1600</ele>
        <time>2013-03-09T15:04:30.000Z</time>
      </trkpt>
      <trkpt lat="45.09483" lon="5.60812">
        <ele>1600</ele>
        <time>2013-03-09T15:04:41.000Z</time>
      </trkpt>
      <trkpt lat="45.09476" lon="5.60806">
        <ele>1599</ele>
        <time>2013-03-09T15:04:48.000Z</time>
      </trkpt>
      <trkpt lat="45.09473" lon="5.60808">
        <ele>1599</ele>
        <time>2013-03-09T15:04:52.000Z</time>
      </trkpt>
      <trkpt lat="45.09472" lon="5.60809">
        <ele>1599</ele>
        <time>2013-03-09T15:04:53.000Z</time>
      </trkpt>
      <trkpt lat="45.09469" lon="5.60813">
        <ele>1600</ele>
        <time>2013-03-09T15:04:58.000Z</time>
      </trkpt>
      <trkpt lat="45.09469" lon="5.60814">
        <ele>1600</ele>
        <time>2013-03-09T15:04:59.000Z</time>
      </trkpt>
      <trkpt lat="45.09462" lon="5.60814">
        <ele>1600</ele>
        <time>2013-03-09T15:05:06.000Z</time>
      </trkpt>
      <trkpt lat="45.09459" lon="5.60813">
        <ele>1600</ele>
        <time>2013-03-09T15:05:13.000Z</time>
      </trkpt>
      <trkpt lat="45.09457" lon="5.60811">
        <ele>1600</ele>
        <time>2013-03-09T15:05:14.000Z</time>
      </trkpt>
      <trkpt lat="45.09454" lon="5.60812">
        <ele>1600</ele>
        <time>2013-03-09T15:05:17.000Z</time>
      </trkpt>
      <trkpt lat="45.09447" lon="5.60812">
        <ele>1601</ele>
        <time>2013-03-09T15:05:24.000Z</time>
      </trkpt>
      <trkpt lat="45.09451" lon="5.6082">
        <ele>1602</ele>
        <time>2013-03-09T15:05:26.000Z</time>
      </trkpt>
      <trkpt lat="45.09453" lon="5.60821">
        <ele>1602</ele>
        <time>2013-03-09T15:05:35.000Z</time>
      </trkpt>
      <trkpt lat="45.09453" lon="5.60827">
        <ele>1603</ele>
        <time>2013-03-09T15:05:42.000Z</time>
      </trkpt>
      <trkpt lat="45.09449" lon="5.60828">
        <ele>1603</ele>
        <time>2013-03-09T15:05:49.000Z</time>
      </trkpt>
      <trkpt lat="45.09447" lon="5.60829">
        <ele>1604</ele>
        <time>2013-03-09T15:05:50.000Z</time>
      </trkpt>
      <trkpt lat="45.09444" lon="5.60829">
        <ele>1604</ele>
        <time>2013-03-09T15:05:52.000Z</time>
      </trkpt>
      <trkpt lat="45.09442" lon="5.6083">
        <ele>1605</ele>
        <time>2013-03-09T15:05:53.000Z</time>
      </trkpt>
      <trkpt lat="45.09438" lon="5.6083">
        <ele>1606</ele>
        <time>2013-03-09T15:06:03.000Z</time>
      </trkpt>
      <trkpt lat="45.09437" lon="5.6083">
        <ele>1606</ele>
        <time>2013-03-09T15:06:04.000Z</time>
      </trkpt>
      <trkpt lat="45.09434" lon="5.60834">
        <ele>1618</ele>
        <time>2013-03-09T15:06:09.000Z</time>
      </trkpt>
      <trkpt lat="45.09433" lon="5.60835">
        <ele>1618</ele>
        <time>2013-03-09T15:06:10.000Z</time>
      </trkpt>
      <trkpt lat="45.0943" lon="5.60839">
        <ele>1618</ele>
        <time>2013-03-09T15:06:18.000Z</time>
      </trkpt>
      <trkpt lat="45.09429" lon="5.6084">
        <ele>1618</ele>
        <time>2013-03-09T15:06:19.000Z</time>
      </trkpt>
      <trkpt lat="45.09426" lon="5.60845">
        <ele>1618</ele>
        <time>2013-03-09T15:06:27.000Z</time>
      </trkpt>
      <trkpt lat="45.09424" lon="5.60848">
        <ele>1618</ele>
        <time>2013-03-09T15:06:34.000Z</time>
      </trkpt>
      <trkpt lat="45.09427" lon="5.60853">
        <ele>1619</ele>
        <time>2013-03-09T15:06:42.000Z</time>
      </trkpt>
      <trkpt lat="45.09429" lon="5.60854">
        <ele>1619</ele>
        <time>2013-03-09T15:06:43.000Z</time>
      </trkpt>
      <trkpt lat="45.09426" lon="5.60857">
        <ele>1619</ele>
        <time>2013-03-09T15:06:52.000Z</time>
      </trkpt>
      <trkpt lat="45.09424" lon="5.6086">
        <ele>1619</ele>
        <time>2013-03-09T15:06:54.000Z</time>
      </trkpt>
      <trkpt lat="45.0942" lon="5.60861">
        <ele>1619</ele>
        <time>2013-03-09T15:06:58.000Z</time>
      </trkpt>
      <trkpt lat="45.09418" lon="5.60862">
        <ele>1619</ele>
        <time>2013-03-09T15:06:59.000Z</time>
      </trkpt>
      <trkpt lat="45.09416" lon="5.60865">
        <ele>1624</ele>
        <time>2013-03-09T15:07:02.000Z</time>
      </trkpt>
      <trkpt lat="45.09413" lon="5.60861">
        <ele>1624</ele>
        <time>2013-03-09T15:07:03.000Z</time>
      </trkpt>
      <trkpt lat="45.09403" lon="5.60865">
        <ele>1625</ele>
        <time>2013-03-09T15:07:10.000Z</time>
      </trkpt>
      <trkpt lat="45.094" lon="5.60871">
        <ele>1626</ele>
        <time>2013-03-09T15:07:12.000Z</time>
      </trkpt>
      <trkpt lat="45.09397" lon="5.60875">
        <ele>1626</ele>
        <time>2013-03-09T15:07:14.000Z</time>
      </trkpt>
      <trkpt lat="45.09396" lon="5.60878">
        <ele>1627</ele>
        <time>2013-03-09T15:07:15.000Z</time>
      </trkpt>
      <trkpt lat="45.09392" lon="5.60881">
        <ele>1627</ele>
        <time>2013-03-09T15:07:17.000Z</time>
      </trkpt>
      <trkpt lat="45.0939" lon="5.60885">
        <ele>1627</ele>
        <time>2013-03-09T15:07:18.000Z</time>
      </trkpt>
      <trkpt lat="45.09388" lon="5.60887">
        <ele>1628</ele>
        <time>2013-03-09T15:07:19.000Z</time>
      </trkpt>
      <trkpt lat="45.09386" lon="5.60892">
        <ele>1628</ele>
        <time>2013-03-09T15:07:20.000Z</time>
      </trkpt>
      <trkpt lat="45.09385" lon="5.60898">
        <ele>1628</ele>
        <time>2013-03-09T15:07:21.000Z</time>
      </trkpt>
      <trkpt lat="45.09371" lon="5.60927">
        <ele>1635</ele>
        <time>2013-03-09T15:07:28.000Z</time>
      </trkpt>
      <trkpt lat="45.09369" lon="5.60931">
        <ele>1636</ele>
        <time>2013-03-09T15:07:30.000Z</time>
      </trkpt>
      <trkpt lat="45.09369" lon="5.60933">
        <ele>1636</ele>
        <time>2013-03-09T15:07:31.000Z</time>
      </trkpt>
      <trkpt lat="45.0937" lon="5.60935">
        <ele>1635</ele>
        <time>2013-03-09T15:07:39.000Z</time>
      </trkpt>
      <trkpt lat="45.09365" lon="5.60938">
        <ele>1636</ele>
        <time>2013-03-09T15:07:46.000Z</time>
      </trkpt>
      <trkpt lat="45.09363" lon="5.6094">
        <ele>1636</ele>
        <time>2013-03-09T15:07:48.000Z</time>
      </trkpt>
      <trkpt lat="45.0936" lon="5.6094">
        <ele>1636</ele>
        <time>2013-03-09T15:07:49.000Z</time>
      </trkpt>
      <trkpt lat="45.09357" lon="5.60941">
        <ele>1637</ele>
        <time>2013-03-09T15:07:53.000Z</time>
      </trkpt>
      <trkpt lat="45.09356" lon="5.60942">
        <ele>1637</ele>
        <time>2013-03-09T15:07:54.000Z</time>
      </trkpt>
      <trkpt lat="45.09352" lon="5.60943">
        <ele>1637</ele>
        <time>2013-03-09T15:07:57.000Z</time>
      </trkpt>
      <trkpt lat="45.09346" lon="5.60948">
        <ele>1637</ele>
        <time>2013-03-09T15:08:04.000Z</time>
      </trkpt>
      <trkpt lat="45.09343" lon="5.60951">
        <ele>1637</ele>
        <time>2013-03-09T15:08:07.000Z</time>
      </trkpt>
      <trkpt lat="45.09342" lon="5.6095">
        <ele>1637</ele>
        <time>2013-03-09T15:08:08.000Z</time>
      </trkpt>
      <trkpt lat="45.09338" lon="5.60949">
        <ele>1638</ele>
        <time>2013-03-09T15:08:11.000Z</time>
      </trkpt>
      <trkpt lat="45.09337" lon="5.60949">
        <ele>1638</ele>
        <time>2013-03-09T15:08:12.000Z</time>
      </trkpt>
      <trkpt lat="45.09334" lon="5.60951">
        <ele>1638</ele>
        <time>2013-03-09T15:08:15.000Z</time>
      </trkpt>
      <trkpt lat="45.09333" lon="5.60956">
        <ele>1644</ele>
        <time>2013-03-09T15:08:17.000Z</time>
      </trkpt>
      <trkpt lat="45.0933" lon="5.60958">
        <ele>1645</ele>
        <time>2013-03-09T15:08:19.000Z</time>
      </trkpt>
      <trkpt lat="45.09329" lon="5.6096">
        <ele>1645</ele>
        <time>2013-03-09T15:08:20.000Z</time>
      </trkpt>
      <trkpt lat="45.09327" lon="5.60965">
        <ele>1645</ele>
        <time>2013-03-09T15:08:24.000Z</time>
      </trkpt>
      <trkpt lat="45.09322" lon="5.6096">
        <ele>1645</ele>
        <time>2013-03-09T15:08:25.000Z</time>
      </trkpt>
      <trkpt lat="45.09319" lon="5.60958">
        <ele>1645</ele>
        <time>2013-03-09T15:08:28.000Z</time>
      </trkpt>
      <trkpt lat="45.09313" lon="5.60963">
        <ele>1645</ele>
        <time>2013-03-09T15:08:35.000Z</time>
      </trkpt>
      <trkpt lat="45.09309" lon="5.60966">
        <ele>1645</ele>
        <time>2013-03-09T15:08:42.000Z</time>
      </trkpt>
      <trkpt lat="45.09309" lon="5.60967">
        <ele>1645</ele>
        <time>2013-03-09T15:08:43.000Z</time>
      </trkpt>
      <trkpt lat="45.09308" lon="5.60971">
        <ele>1646</ele>
        <time>2013-03-09T15:08:46.000Z</time>
      </trkpt>
      <trkpt lat="45.09301" lon="5.60977">
        <ele>1646</ele>
        <time>2013-03-09T15:08:53.000Z</time>
      </trkpt>
      <trkpt lat="45.09301" lon="5.60981">
        <ele>1646</ele>
        <time>2013-03-09T15:08:58.000Z</time>
      </trkpt>
      <trkpt lat="45.09301" lon="5.60983">
        <ele>1646</ele>
        <time>2013-03-09T15:08:59.000Z</time>
      </trkpt>
      <trkpt lat="45.09298" lon="5.60985">
        <ele>1647</ele>
        <time>2013-03-09T15:09:03.000Z</time>
      </trkpt>
      <trkpt lat="45.09297" lon="5.60986">
        <ele>1647</ele>
        <time>2013-03-09T15:09:04.000Z</time>
      </trkpt>
      <trkpt lat="45.09292" lon="5.6099">
        <ele>1647</ele>
        <time>2013-03-09T15:09:11.000Z</time>
      </trkpt>
      <trkpt lat="45.09288" lon="5.60991">
        <ele>1647</ele>
        <time>2013-03-09T15:09:15.000Z</time>
      </trkpt>
      <trkpt lat="45.09287" lon="5.6099">
        <ele>1648</ele>
        <time>2013-03-09T15:09:16.000Z</time>
      </trkpt>
      <trkpt lat="45.09284" lon="5.6099">
        <ele>1648</ele>
        <time>2013-03-09T15:09:19.000Z</time>
      </trkpt>
      <trkpt lat="45.09287" lon="5.61001">
        <ele>1656</ele>
        <time>2013-03-09T15:09:20.000Z</time>
      </trkpt>
      <trkpt lat="45.09285" lon="5.61003">
        <ele>1657</ele>
        <time>2013-03-09T15:09:22.000Z</time>
      </trkpt>
      <trkpt lat="45.09277" lon="5.61001">
        <ele>1657</ele>
        <time>2013-03-09T15:09:29.000Z</time>
      </trkpt>
      <trkpt lat="45.09274" lon="5.61002">
        <ele>1657</ele>
        <time>2013-03-09T15:09:32.000Z</time>
      </trkpt>
      <trkpt lat="45.09272" lon="5.61002">
        <ele>1657</ele>
        <time>2013-03-09T15:09:33.000Z</time>
      </trkpt>
      <trkpt lat="45.09275" lon="5.61009">
        <ele>1657</ele>
        <time>2013-03-09T15:09:34.000Z</time>
      </trkpt>
      <trkpt lat="45.09272" lon="5.61014">
        <ele>1658</ele>
        <time>2013-03-09T15:09:39.000Z</time>
      </trkpt>
      <trkpt lat="45.09271" lon="5.61014">
        <ele>1658</ele>
        <time>2013-03-09T15:09:40.000Z</time>
      </trkpt>
      <trkpt lat="45.09262" lon="5.61011">
        <ele>1657</ele>
        <time>2013-03-09T15:09:47.000Z</time>
      </trkpt>
      <trkpt lat="45.09258" lon="5.6101">
        <ele>1657</ele>
        <time>2013-03-09T15:09:51.000Z</time>
      </trkpt>
      <trkpt lat="45.09257" lon="5.61009">
        <ele>1657</ele>
        <time>2013-03-09T15:09:52.000Z</time>
      </trkpt>
      <trkpt lat="45.09253" lon="5.61007">
        <ele>1656</ele>
        <time>2013-03-09T15:09:55.000Z</time>
      </trkpt>
      <trkpt lat="45.09252" lon="5.61005">
        <ele>1656</ele>
        <time>2013-03-09T15:09:56.000Z</time>
      </trkpt>
      <trkpt lat="45.09248" lon="5.61006">
        <ele>1659</ele>
        <time>2013-03-09T15:10:07.000Z</time>
      </trkpt>
      <trkpt lat="45.09247" lon="5.61005">
        <ele>1658</ele>
        <time>2013-03-09T15:10:08.000Z</time>
      </trkpt>
      <trkpt lat="45.09243" lon="5.61006">
        <ele>1660</ele>
        <time>2013-03-09T15:10:10.000Z</time>
      </trkpt>
      <trkpt lat="45.0924" lon="5.61007">
        <ele>1661</ele>
        <time>2013-03-09T15:10:11.000Z</time>
      </trkpt>
      <trkpt lat="45.09236" lon="5.61007">
        <ele>1662</ele>
        <time>2013-03-09T15:10:13.000Z</time>
      </trkpt>
      <trkpt lat="45.09234" lon="5.61005">
        <ele>1663</ele>
        <time>2013-03-09T15:10:14.000Z</time>
      </trkpt>
      <trkpt lat="45.09231" lon="5.61004">
        <ele>1663</ele>
        <time>2013-03-09T15:10:16.000Z</time>
      </trkpt>
      <trkpt lat="45.09224" lon="5.61004">
        <ele>1665</ele>
        <time>2013-03-09T15:10:23.000Z</time>
      </trkpt>
      <trkpt lat="45.0922" lon="5.61005">
        <ele>1665</ele>
        <time>2013-03-09T15:10:26.000Z</time>
      </trkpt>
      <trkpt lat="45.09219" lon="5.61006">
        <ele>1666</ele>
        <time>2013-03-09T15:10:27.000Z</time>
      </trkpt>
      <trkpt lat="45.09216" lon="5.61005">
        <ele>1666</ele>
        <time>2013-03-09T15:10:32.000Z</time>
      </trkpt>
      <trkpt lat="45.09214" lon="5.61004">
        <ele>1666</ele>
        <time>2013-03-09T15:10:33.000Z</time>
      </trkpt>
      <trkpt lat="45.0921" lon="5.61005">
        <ele>1667</ele>
        <time>2013-03-09T15:10:41.000Z</time>
      </trkpt>
      <trkpt lat="45.09209" lon="5.61005">
        <ele>1667</ele>
        <time>2013-03-09T15:10:43.000Z</time>
      </trkpt>
      <trkpt lat="45.09205" lon="5.61003">
        <ele>1667</ele>
        <time>2013-03-09T15:10:47.000Z</time>
      </trkpt>
      <trkpt lat="45.09204" lon="5.61002">
        <ele>1667</ele>
        <time>2013-03-09T15:10:48.000Z</time>
      </trkpt>
      <trkpt lat="45.09201" lon="5.61003">
        <ele>1667</ele>
        <time>2013-03-09T15:10:52.000Z</time>
      </trkpt>
      <trkpt lat="45.09195" lon="5.61007">
        <ele>1668</ele>
        <time>2013-03-09T15:10:59.000Z</time>
      </trkpt>
      <trkpt lat="45.09191" lon="5.61007">
        <ele>1668</ele>
        <time>2013-03-09T15:11:03.000Z</time>
      </trkpt>
      <trkpt lat="45.0919" lon="5.61007">
        <ele>1668</ele>
        <time>2013-03-09T15:11:04.000Z</time>
      </trkpt>
      <trkpt lat="45.09186" lon="5.61009">
        <ele>1668</ele>
        <time>2013-03-09T15:11:09.000Z</time>
      </trkpt>
      <trkpt lat="45.09185" lon="5.61009">
        <ele>1668</ele>
        <time>2013-03-09T15:11:10.000Z</time>
      </trkpt>
      <trkpt lat="45.09181" lon="5.61011">
        <ele>1668</ele>
        <time>2013-03-09T15:11:17.000Z</time>
      </trkpt>
      <trkpt lat="45.09177" lon="5.61015">
        <ele>1668</ele>
        <time>2013-03-09T15:11:24.000Z</time>
      </trkpt>
      <trkpt lat="45.09177" lon="5.61016">
        <ele>1668</ele>
        <time>2013-03-09T15:11:25.000Z</time>
      </trkpt>
      <trkpt lat="45.09174" lon="5.61018">
        <ele>1668</ele>
        <time>2013-03-09T15:11:42.000Z</time>
      </trkpt>
      <trkpt lat="45.09173" lon="5.61019">
        <ele>1669</ele>
        <time>2013-03-09T15:11:43.000Z</time>
      </trkpt>
      <trkpt lat="45.09168" lon="5.61017">
        <ele>1668</ele>
        <time>2013-03-09T15:11:46.000Z</time>
      </trkpt>
      <trkpt lat="45.09164" lon="5.61018">
        <ele>1672</ele>
        <time>2013-03-09T15:11:53.000Z</time>
      </trkpt>
      <trkpt lat="45.09163" lon="5.61024">
        <ele>1674</ele>
        <time>2013-03-09T15:11:57.000Z</time>
      </trkpt>
      <trkpt lat="45.09161" lon="5.61025">
        <ele>1674</ele>
        <time>2013-03-09T15:11:58.000Z</time>
      </trkpt>
      <trkpt lat="45.09158" lon="5.61026">
        <ele>1674</ele>
        <time>2013-03-09T15:12:04.000Z</time>
      </trkpt>
      <trkpt lat="45.09151" lon="5.61024">
        <ele>1674</ele>
        <time>2013-03-09T15:12:11.000Z</time>
      </trkpt>
      <trkpt lat="45.0915" lon="5.61026">
        <ele>1675</ele>
        <time>2013-03-09T15:12:14.000Z</time>
      </trkpt>
      <trkpt lat="45.09147" lon="5.61026">
        <ele>1675</ele>
        <time>2013-03-09T15:12:15.000Z</time>
      </trkpt>
      <trkpt lat="45.09143" lon="5.61029">
        <ele>1676</ele>
        <time>2013-03-09T15:12:19.000Z</time>
      </trkpt>
      <trkpt lat="45.09143" lon="5.61032">
        <ele>1676</ele>
        <time>2013-03-09T15:12:20.000Z</time>
      </trkpt>
      <trkpt lat="45.09142" lon="5.61034">
        <ele>1677</ele>
        <time>2013-03-09T15:12:22.000Z</time>
      </trkpt>
      <trkpt lat="45.0914" lon="5.61037">
        <ele>1677</ele>
        <time>2013-03-09T15:12:23.000Z</time>
      </trkpt>
      <trkpt lat="45.09137" lon="5.6104">
        <ele>1678</ele>
        <time>2013-03-09T15:12:27.000Z</time>
      </trkpt>
      <trkpt lat="45.09137" lon="5.61043">
        <ele>1678</ele>
        <time>2013-03-09T15:12:28.000Z</time>
      </trkpt>
      <trkpt lat="45.09135" lon="5.61047">
        <ele>1679</ele>
        <time>2013-03-09T15:12:37.000Z</time>
      </trkpt>
      <trkpt lat="45.09134" lon="5.61048">
        <ele>1679</ele>
        <time>2013-03-09T15:12:38.000Z</time>
      </trkpt>
      <trkpt lat="45.09132" lon="5.61051">
        <ele>1679</ele>
        <time>2013-03-09T15:12:46.000Z</time>
      </trkpt>
      <trkpt lat="45.09124" lon="5.6105">
        <ele>1679</ele>
        <time>2013-03-09T15:12:53.000Z</time>
      </trkpt>
      <trkpt lat="45.09122" lon="5.61055">
        <ele>1680</ele>
        <time>2013-03-09T15:12:58.000Z</time>
      </trkpt>
      <trkpt lat="45.09123" lon="5.61059">
        <ele>1680</ele>
        <time>2013-03-09T15:12:59.000Z</time>
      </trkpt>
      <trkpt lat="45.0912" lon="5.61062">
        <ele>1681</ele>
        <time>2013-03-09T15:13:04.000Z</time>
      </trkpt>
      <trkpt lat="45.0912" lon="5.61065">
        <ele>1681</ele>
        <time>2013-03-09T15:13:05.000Z</time>
      </trkpt>
      <trkpt lat="45.09115" lon="5.61066">
        <ele>1682</ele>
        <time>2013-03-09T15:13:17.000Z</time>
      </trkpt>
      <trkpt lat="45.09115" lon="5.61066">
        <ele>1682</ele>
        <time>2013-03-09T15:13:18.000Z</time>
      </trkpt>
      <trkpt lat="45.0911" lon="5.61066">
        <ele>1682</ele>
        <time>2013-03-09T15:13:20.000Z</time>
      </trkpt>
      <trkpt lat="45.09109" lon="5.61067">
        <ele>1682</ele>
        <time>2013-03-09T15:13:21.000Z</time>
      </trkpt>
      <trkpt lat="45.09107" lon="5.61069">
        <ele>1683</ele>
        <time>2013-03-09T15:13:23.000Z</time>
      </trkpt>
      <trkpt lat="45.09101" lon="5.61073">
        <ele>1684</ele>
        <time>2013-03-09T15:13:30.000Z</time>
      </trkpt>
      <trkpt lat="45.09099" lon="5.61075">
        <ele>1685</ele>
        <time>2013-03-09T15:13:32.000Z</time>
      </trkpt>
      <trkpt lat="45.09097" lon="5.61076">
        <ele>1685</ele>
        <time>2013-03-09T15:13:33.000Z</time>
      </trkpt>
      <trkpt lat="45.09094" lon="5.6108">
        <ele>1687</ele>
        <time>2013-03-09T15:13:37.000Z</time>
      </trkpt>
      <trkpt lat="45.09093" lon="5.6108">
        <ele>1687</ele>
        <time>2013-03-09T15:13:38.000Z</time>
      </trkpt>
      <trkpt lat="45.09091" lon="5.61083">
        <ele>1688</ele>
        <time>2013-03-09T15:13:41.000Z</time>
      </trkpt>
      <trkpt lat="45.09087" lon="5.61088">
        <ele>1692</ele>
        <time>2013-03-09T15:13:48.000Z</time>
      </trkpt>
      <trkpt lat="45.09084" lon="5.61091">
        <ele>1693</ele>
        <time>2013-03-09T15:13:52.000Z</time>
      </trkpt>
      <trkpt lat="45.09083" lon="5.61092">
        <ele>1694</ele>
        <time>2013-03-09T15:13:53.000Z</time>
      </trkpt>
      <trkpt lat="45.09081" lon="5.61097">
        <ele>1695</ele>
        <time>2013-03-09T15:13:59.000Z</time>
      </trkpt>
      <trkpt lat="45.09074" lon="5.61104">
        <ele>1697</ele>
        <time>2013-03-09T15:14:06.000Z</time>
      </trkpt>
      <trkpt lat="45.09072" lon="5.6111">
        <ele>1698</ele>
        <time>2013-03-09T15:14:10.000Z</time>
      </trkpt>
      <trkpt lat="45.09073" lon="5.61112">
        <ele>1698</ele>
        <time>2013-03-09T15:14:11.000Z</time>
      </trkpt>
      <trkpt lat="45.0907" lon="5.61115">
        <ele>1699</ele>
        <time>2013-03-09T15:14:17.000Z</time>
      </trkpt>
      <trkpt lat="45.09066" lon="5.61119">
        <ele>1700</ele>
        <time>2013-03-09T15:14:24.000Z</time>
      </trkpt>
      <trkpt lat="45.09063" lon="5.61122">
        <ele>1700</ele>
        <time>2013-03-09T15:14:30.000Z</time>
      </trkpt>
      <trkpt lat="45.09063" lon="5.61122">
        <ele>1700</ele>
        <time>2013-03-09T15:14:31.000Z</time>
      </trkpt>
      <trkpt lat="45.09061" lon="5.61125">
        <ele>1700</ele>
        <time>2013-03-09T15:14:35.000Z</time>
      </trkpt>
      <trkpt lat="45.09057" lon="5.61128">
        <ele>1701</ele>
        <time>2013-03-09T15:14:42.000Z</time>
      </trkpt>
      <trkpt lat="45.09054" lon="5.6113">
        <ele>1701</ele>
        <time>2013-03-09T15:14:48.000Z</time>
      </trkpt>
      <trkpt lat="45.09052" lon="5.61131">
        <ele>1701</ele>
        <time>2013-03-09T15:14:49.000Z</time>
      </trkpt>
      <trkpt lat="45.0905" lon="5.61128">
        <ele>1701</ele>
        <time>2013-03-09T15:14:53.000Z</time>
      </trkpt>
      <trkpt lat="45.09048" lon="5.61134">
        <ele>1702</ele>
        <time>2013-03-09T15:15:00.000Z</time>
      </trkpt>
      <trkpt lat="45.09046" lon="5.61133">
        <ele>1702</ele>
        <time>2013-03-09T15:15:03.000Z</time>
      </trkpt>
      <trkpt lat="45.09043" lon="5.61132">
        <ele>1702</ele>
        <time>2013-03-09T15:15:04.000Z</time>
      </trkpt>
      <trkpt lat="45.09041" lon="5.61136">
        <ele>1702</ele>
        <time>2013-03-09T15:15:09.000Z</time>
      </trkpt>
      <trkpt lat="45.09039" lon="5.61137">
        <ele>1702</ele>
        <time>2013-03-09T15:15:10.000Z</time>
      </trkpt>
      <trkpt lat="45.09038" lon="5.6114">
        <ele>1703</ele>
        <time>2013-03-09T15:15:11.000Z</time>
      </trkpt>
      <trkpt lat="45.09035" lon="5.61151">
        <ele>1704</ele>
        <time>2013-03-09T15:15:16.000Z</time>
      </trkpt>
      <trkpt lat="45.09033" lon="5.61156">
        <ele>1705</ele>
        <time>2013-03-09T15:15:21.000Z</time>
      </trkpt>
      <trkpt lat="45.09033" lon="5.61157">
        <ele>1705</ele>
        <time>2013-03-09T15:15:22.000Z</time>
      </trkpt>
      <trkpt lat="45.09031" lon="5.61162">
        <ele>1705</ele>
        <time>2013-03-09T15:15:26.000Z</time>
      </trkpt>
      <trkpt lat="45.0903" lon="5.61163">
        <ele>1705</ele>
        <time>2013-03-09T15:15:27.000Z</time>
      </trkpt>
      <trkpt lat="45.09029" lon="5.61164">
        <ele>1706</ele>
        <time>2013-03-09T15:15:28.000Z</time>
      </trkpt>
      <trkpt lat="45.09026" lon="5.61174">
        <ele>1718</ele>
        <time>2013-03-09T15:15:35.000Z</time>
      </trkpt>
      <trkpt lat="45.09028" lon="5.6118">
        <ele>1718</ele>
        <time>2013-03-09T15:15:40.000Z</time>
      </trkpt>
      <trkpt lat="45.09029" lon="5.6118">
        <ele>1718</ele>
        <time>2013-03-09T15:15:41.000Z</time>
      </trkpt>
      <trkpt lat="45.09032" lon="5.6118">
        <ele>1718</ele>
        <time>2013-03-09T15:15:43.000Z</time>
      </trkpt>
      <trkpt lat="45.09034" lon="5.61178">
        <ele>1718</ele>
        <time>2013-03-09T15:15:44.000Z</time>
      </trkpt>
      <trkpt lat="45.09035" lon="5.61182">
        <ele>1719</ele>
        <time>2013-03-09T15:15:46.000Z</time>
      </trkpt>
      <trkpt lat="45.09029" lon="5.61194">
        <ele>1720</ele>
        <time>2013-03-09T15:15:53.000Z</time>
      </trkpt>
      <trkpt lat="45.09026" lon="5.61199">
        <ele>1721</ele>
        <time>2013-03-09T15:15:55.000Z</time>
      </trkpt>
      <trkpt lat="45.09027" lon="5.61203">
        <ele>1721</ele>
        <time>2013-03-09T15:15:59.000Z</time>
      </trkpt>
      <trkpt lat="45.09027" lon="5.61206">
        <ele>1721</ele>
        <time>2013-03-09T15:16:00.000Z</time>
      </trkpt>
      <trkpt lat="45.09028" lon="5.61209">
        <ele>1722</ele>
        <time>2013-03-09T15:16:04.000Z</time>
      </trkpt>
      <trkpt lat="45.09023" lon="5.61217">
        <ele>1723</ele>
        <time>2013-03-09T15:16:11.000Z</time>
      </trkpt>
      <trkpt lat="45.09021" lon="5.61222">
        <ele>1724</ele>
        <time>2013-03-09T15:16:14.000Z</time>
      </trkpt>
      <trkpt lat="45.0902" lon="5.61224">
        <ele>1725</ele>
        <time>2013-03-09T15:16:15.000Z</time>
      </trkpt>
      <trkpt lat="45.09025" lon="5.61224">
        <ele>1724</ele>
        <time>2013-03-09T15:16:18.000Z</time>
      </trkpt>
      <trkpt lat="45.09025" lon="5.61225">
        <ele>1724</ele>
        <time>2013-03-09T15:16:19.000Z</time>
      </trkpt>
      <trkpt lat="45.09026" lon="5.61226">
        <ele>1724</ele>
        <time>2013-03-09T15:16:22.000Z</time>
      </trkpt>
      <trkpt lat="45.09026" lon="5.61233">
        <ele>1725</ele>
        <time>2013-03-09T15:16:29.000Z</time>
      </trkpt>
      <trkpt lat="45.09026" lon="5.61239">
        <ele>1726</ele>
        <time>2013-03-09T15:16:40.000Z</time>
      </trkpt>
      <trkpt lat="45.09023" lon="5.61248">
        <ele>1727</ele>
        <time>2013-03-09T15:16:47.000Z</time>
      </trkpt>
      <trkpt lat="45.0902" lon="5.61251">
        <ele>1736</ele>
        <time>2013-03-09T15:16:57.000Z</time>
      </trkpt>
      <trkpt lat="45.09019" lon="5.61252">
        <ele>1736</ele>
        <time>2013-03-09T15:16:58.000Z</time>
      </trkpt>
      <trkpt lat="45.09018" lon="5.61258">
        <ele>1736</ele>
        <time>2013-03-09T15:17:05.000Z</time>
      </trkpt>
      <trkpt lat="45.09017" lon="5.61264">
        <ele>1736</ele>
        <time>2013-03-09T15:17:08.000Z</time>
      </trkpt>
      <trkpt lat="45.09016" lon="5.61265">
        <ele>1736</ele>
        <time>2013-03-09T15:17:09.000Z</time>
      </trkpt>
      <trkpt lat="45.09012" lon="5.61264">
        <ele>1736</ele>
        <time>2013-03-09T15:17:14.000Z</time>
      </trkpt>
      <trkpt lat="45.09011" lon="5.61262">
        <ele>1736</ele>
        <time>2013-03-09T15:17:15.000Z</time>
      </trkpt>
      <trkpt lat="45.0901" lon="5.61261">
        <ele>1736</ele>
        <time>2013-03-09T15:17:16.000Z</time>
      </trkpt>
      <trkpt lat="45.09004" lon="5.61255">
        <ele>1735</ele>
        <time>2013-03-09T15:17:23.000Z</time>
      </trkpt>
      <trkpt lat="45.09001" lon="5.61254">
        <ele>1735</ele>
        <time>2013-03-09T15:17:27.000Z</time>
      </trkpt>
      <trkpt lat="45.08999" lon="5.61252">
        <ele>1737</ele>
        <time>2013-03-09T15:17:28.000Z</time>
      </trkpt>
      <trkpt lat="45.08996" lon="5.61254">
        <ele>1739</ele>
        <time>2013-03-09T15:17:34.000Z</time>
      </trkpt>
      <trkpt lat="45.08989" lon="5.61255">
        <ele>1742</ele>
        <time>2013-03-09T15:17:41.000Z</time>
      </trkpt>
      <trkpt lat="45.08985" lon="5.61252">
        <ele>1743</ele>
        <time>2013-03-09T15:17:45.000Z</time>
      </trkpt>
      <trkpt lat="45.08985" lon="5.61251">
        <ele>1743</ele>
        <time>2013-03-09T15:17:46.000Z</time>
      </trkpt>
      <trkpt lat="45.08983" lon="5.61251">
        <ele>1744</ele>
        <time>2013-03-09T15:17:52.000Z</time>
      </trkpt>
      <trkpt lat="45.0898" lon="5.61256">
        <ele>1746</ele>
        <time>2013-03-09T15:17:59.000Z</time>
      </trkpt>
      <trkpt lat="45.08979" lon="5.61262">
        <ele>1747</ele>
        <time>2013-03-09T15:18:03.000Z</time>
      </trkpt>
      <trkpt lat="45.08978" lon="5.61263">
        <ele>1747</ele>
        <time>2013-03-09T15:18:04.000Z</time>
      </trkpt>
      <trkpt lat="45.08979" lon="5.61264">
        <ele>1747</ele>
        <time>2013-03-09T15:18:10.000Z</time>
      </trkpt>
      <trkpt lat="45.08974" lon="5.6126">
        <ele>1748</ele>
        <time>2013-03-09T15:18:17.000Z</time>
      </trkpt>
      <trkpt lat="45.08971" lon="5.61264">
        <ele>1749</ele>
        <time>2013-03-09T15:18:23.000Z</time>
      </trkpt>
      <trkpt lat="45.08969" lon="5.61264">
        <ele>1749</ele>
        <time>2013-03-09T15:18:24.000Z</time>
      </trkpt>
      <trkpt lat="45.08967" lon="5.61264">
        <ele>1750</ele>
        <time>2013-03-09T15:18:28.000Z</time>
      </trkpt>
      <trkpt lat="45.08963" lon="5.6127">
        <ele>1751</ele>
        <time>2013-03-09T15:18:35.000Z</time>
      </trkpt>
      <trkpt lat="45.08962" lon="5.61276">
        <ele>1752</ele>
        <time>2013-03-09T15:18:39.000Z</time>
      </trkpt>
      <trkpt lat="45.08963" lon="5.61277">
        <ele>1752</ele>
        <time>2013-03-09T15:18:40.000Z</time>
      </trkpt>
      <trkpt lat="45.08962" lon="5.61283">
        <ele>1753</ele>
        <time>2013-03-09T15:18:44.000Z</time>
      </trkpt>
      <trkpt lat="45.08962" lon="5.61284">
        <ele>1753</ele>
        <time>2013-03-09T15:18:45.000Z</time>
      </trkpt>
      <trkpt lat="45.08961" lon="5.61285">
        <ele>1753</ele>
        <time>2013-03-09T15:18:46.000Z</time>
      </trkpt>
      <trkpt lat="45.08959" lon="5.61292">
        <ele>1754</ele>
        <time>2013-03-09T15:18:53.000Z</time>
      </trkpt>
      <trkpt lat="45.08958" lon="5.61297">
        <ele>1755</ele>
        <time>2013-03-09T15:18:57.000Z</time>
      </trkpt>
      <trkpt lat="45.08958" lon="5.61299">
        <ele>1755</ele>
        <time>2013-03-09T15:18:58.000Z</time>
      </trkpt>
      <trkpt lat="45.08959" lon="5.61305">
        <ele>1755</ele>
        <time>2013-03-09T15:19:02.000Z</time>
      </trkpt>
      <trkpt lat="45.08959" lon="5.61306">
        <ele>1755</ele>
        <time>2013-03-09T15:19:03.000Z</time>
      </trkpt>
      <trkpt lat="45.0896" lon="5.61307">
        <ele>1755</ele>
        <time>2013-03-09T15:19:04.000Z</time>
      </trkpt>
      <trkpt lat="45.08959" lon="5.61317">
        <ele>1756</ele>
        <time>2013-03-09T15:19:11.000Z</time>
      </trkpt>
      <trkpt lat="45.08956" lon="5.61322">
        <ele>1757</ele>
        <time>2013-03-09T15:19:19.000Z</time>
      </trkpt>
      <trkpt lat="45.08956" lon="5.61324">
        <ele>1758</ele>
        <time>2013-03-09T15:19:20.000Z</time>
      </trkpt>
      <trkpt lat="45.08958" lon="5.61327">
        <ele>1757</ele>
        <time>2013-03-09T15:19:22.000Z</time>
      </trkpt>
      <trkpt lat="45.08959" lon="5.61338">
        <ele>1768</ele>
        <time>2013-03-09T15:19:29.000Z</time>
      </trkpt>
      <trkpt lat="45.08958" lon="5.61343">
        <ele>1768</ele>
        <time>2013-03-09T15:19:36.000Z</time>
      </trkpt>
      <trkpt lat="45.08958" lon="5.61345">
        <ele>1768</ele>
        <time>2013-03-09T15:19:37.000Z</time>
      </trkpt>
      <trkpt lat="45.08958" lon="5.6135">
        <ele>1769</ele>
        <time>2013-03-09T15:19:40.000Z</time>
      </trkpt>
      <trkpt lat="45.08962" lon="5.61358">
        <ele>1768</ele>
        <time>2013-03-09T15:19:47.000Z</time>
      </trkpt>
      <trkpt lat="45.08962" lon="5.61364">
        <ele>1769</ele>
        <time>2013-03-09T15:19:55.000Z</time>
      </trkpt>
      <trkpt lat="45.08962" lon="5.61366">
        <ele>1769</ele>
        <time>2013-03-09T15:19:56.000Z</time>
      </trkpt>
      <trkpt lat="45.08963" lon="5.61368">
        <ele>1769</ele>
        <time>2013-03-09T15:19:58.000Z</time>
      </trkpt>
      <trkpt lat="45.08965" lon="5.61377">
        <ele>1769</ele>
        <time>2013-03-09T15:20:05.000Z</time>
      </trkpt>
      <trkpt lat="45.08966" lon="5.61382">
        <ele>1770</ele>
        <time>2013-03-09T15:20:07.000Z</time>
      </trkpt>
      <trkpt lat="45.08966" lon="5.61383">
        <ele>1770</ele>
        <time>2013-03-09T15:20:08.000Z</time>
      </trkpt>
      <trkpt lat="45.08966" lon="5.61388">
        <ele>1770</ele>
        <time>2013-03-09T15:20:11.000Z</time>
      </trkpt>
      <trkpt lat="45.08966" lon="5.6139">
        <ele>1770</ele>
        <time>2013-03-09T15:20:12.000Z</time>
      </trkpt>
      <trkpt lat="45.08966" lon="5.61396">
        <ele>1771</ele>
        <time>2013-03-09T15:20:22.000Z</time>
      </trkpt>
      <trkpt lat="45.08968" lon="5.61398">
        <ele>1770</ele>
        <time>2013-03-09T15:20:23.000Z</time>
      </trkpt>
      <trkpt lat="45.0897" lon="5.61402">
        <ele>1770</ele>
        <time>2013-03-09T15:20:27.000Z</time>
      </trkpt>
      <trkpt lat="45.08971" lon="5.61403">
        <ele>1770</ele>
        <time>2013-03-09T15:20:28.000Z</time>
      </trkpt>
      <trkpt lat="45.08973" lon="5.61409">
        <ele>1770</ele>
        <time>2013-03-09T15:20:35.000Z</time>
      </trkpt>
      <trkpt lat="45.08969" lon="5.61411">
        <ele>1770</ele>
        <time>2013-03-09T15:20:37.000Z</time>
      </trkpt>
      <trkpt lat="45.08969" lon="5.61413">
        <ele>1771</ele>
        <time>2013-03-09T15:20:38.000Z</time>
      </trkpt>
      <trkpt lat="45.0897" lon="5.61419">
        <ele>1782</ele>
        <time>2013-03-09T15:20:44.000Z</time>
      </trkpt>
      <trkpt lat="45.08972" lon="5.61419">
        <ele>1782</ele>
        <time>2013-03-09T15:20:45.000Z</time>
      </trkpt>
      <trkpt lat="45.08973" lon="5.6142">
        <ele>1781</ele>
        <time>2013-03-09T15:20:46.000Z</time>
      </trkpt>
      <trkpt lat="45.08973" lon="5.61427">
        <ele>1782</ele>
        <time>2013-03-09T15:20:53.000Z</time>
      </trkpt>
      <trkpt lat="45.08973" lon="5.61424">
        <ele>1782</ele>
        <time>2013-03-09T15:21:04.000Z</time>
      </trkpt>
      <trkpt lat="45.08967" lon="5.61413">
        <ele>1771</ele>
        <time>2013-03-09T15:21:11.000Z</time>
      </trkpt>
      <trkpt lat="45.08963" lon="5.61414">
        <ele>1772</ele>
        <time>2013-03-09T15:21:14.000Z</time>
      </trkpt>
      <trkpt lat="45.08962" lon="5.61415">
        <ele>1772</ele>
        <time>2013-03-09T15:21:15.000Z</time>
      </trkpt>
      <trkpt lat="45.0896" lon="5.6142">
        <ele>1785</ele>
        <time>2013-03-09T15:21:18.000Z</time>
      </trkpt>
      <trkpt lat="45.08959" lon="5.61421">
        <ele>1786</ele>
        <time>2013-03-09T15:21:19.000Z</time>
      </trkpt>
      <trkpt lat="45.08955" lon="5.6142">
        <ele>1787</ele>
        <time>2013-03-09T15:21:22.000Z</time>
      </trkpt>
      <trkpt lat="45.0895" lon="5.61419">
        <ele>1788</ele>
        <time>2013-03-09T15:21:29.000Z</time>
      </trkpt>
      <trkpt lat="45.08947" lon="5.61417">
        <ele>1789</ele>
        <time>2013-03-09T15:21:33.000Z</time>
      </trkpt>
      <trkpt lat="45.08945" lon="5.61417">
        <ele>1789</ele>
        <time>2013-03-09T15:21:34.000Z</time>
      </trkpt>
      <trkpt lat="45.08942" lon="5.61413">
        <ele>1779</ele>
        <time>2013-03-09T15:21:36.000Z</time>
      </trkpt>
      <trkpt lat="45.08941" lon="5.61409">
        <ele>1779</ele>
        <time>2013-03-09T15:21:37.000Z</time>
      </trkpt>
      <trkpt lat="45.08939" lon="5.61411">
        <ele>1780</ele>
        <time>2013-03-09T15:21:40.000Z</time>
      </trkpt>
      <trkpt lat="45.08936" lon="5.61409">
        <ele>1781</ele>
        <time>2013-03-09T15:21:47.000Z</time>
      </trkpt>
      <trkpt lat="45.08933" lon="5.61409">
        <ele>1782</ele>
        <time>2013-03-09T15:21:51.000Z</time>
      </trkpt>
      <trkpt lat="45.08931" lon="5.6141">
        <ele>1783</ele>
        <time>2013-03-09T15:21:52.000Z</time>
      </trkpt>
      <trkpt lat="45.08927" lon="5.61412">
        <ele>1785</ele>
        <time>2013-03-09T15:21:58.000Z</time>
      </trkpt>
      <trkpt lat="45.08924" lon="5.61415">
        <ele>1788</ele>
        <time>2013-03-09T15:22:05.000Z</time>
      </trkpt>
      <trkpt lat="45.0892" lon="5.61413">
        <ele>1790</ele>
        <time>2013-03-09T15:22:10.000Z</time>
      </trkpt>
      <trkpt lat="45.0892" lon="5.61413">
        <ele>1790</ele>
        <time>2013-03-09T15:22:11.000Z</time>
      </trkpt>
      <trkpt lat="45.08918" lon="5.61414">
        <ele>1791</ele>
        <time>2013-03-09T15:22:16.000Z</time>
      </trkpt>
      <trkpt lat="45.08913" lon="5.61416">
        <ele>1795</ele>
        <time>2013-03-09T15:22:23.000Z</time>
      </trkpt>
      <trkpt lat="45.08909" lon="5.6142">
        <ele>1800</ele>
        <time>2013-03-09T15:22:26.000Z</time>
      </trkpt>
      <trkpt lat="45.08909" lon="5.61421">
        <ele>1801</ele>
        <time>2013-03-09T15:22:27.000Z</time>
      </trkpt>
      <trkpt lat="45.08905" lon="5.61424">
        <ele>1803</ele>
        <time>2013-03-09T15:22:33.000Z</time>
      </trkpt>
      <trkpt lat="45.08904" lon="5.61424">
        <ele>1804</ele>
        <time>2013-03-09T15:22:34.000Z</time>
      </trkpt>
      <trkpt lat="45.08901" lon="5.61427">
        <ele>1805</ele>
        <time>2013-03-09T15:22:41.000Z</time>
      </trkpt>
      <trkpt lat="45.08898" lon="5.61427">
        <ele>1807</ele>
        <time>2013-03-09T15:22:43.000Z</time>
      </trkpt>
      <trkpt lat="45.08895" lon="5.61429">
        <ele>1808</ele>
        <time>2013-03-09T15:22:52.000Z</time>
      </trkpt>
      <trkpt lat="45.08895" lon="5.61438">
        <ele>1810</ele>
        <time>2013-03-09T15:22:59.000Z</time>
      </trkpt>
      <trkpt lat="45.08896" lon="5.61444">
        <ele>1811</ele>
        <time>2013-03-09T15:23:02.000Z</time>
      </trkpt>
      <trkpt lat="45.08895" lon="5.61445">
        <ele>1811</ele>
        <time>2013-03-09T15:23:03.000Z</time>
      </trkpt>
      <trkpt lat="45.08897" lon="5.6145">
        <ele>1811</ele>
        <time>2013-03-09T15:23:09.000Z</time>
      </trkpt>
      <trkpt lat="45.08897" lon="5.61451">
        <ele>1812</ele>
        <time>2013-03-09T15:23:10.000Z</time>
      </trkpt>
      <trkpt lat="45.08898" lon="5.61458">
        <ele>1813</ele>
        <time>2013-03-09T15:23:17.000Z</time>
      </trkpt>
      <trkpt lat="45.08897" lon="5.61464">
        <ele>1814</ele>
        <time>2013-03-09T15:23:24.000Z</time>
      </trkpt>
      <trkpt lat="45.08897" lon="5.61465">
        <ele>1814</ele>
        <time>2013-03-09T15:23:25.000Z</time>
      </trkpt>
      <trkpt lat="45.08898" lon="5.61468">
        <ele>1814</ele>
        <time>2013-03-09T15:23:28.000Z</time>
      </trkpt>
      <trkpt lat="45.08897" lon="5.61474">
        <ele>1815</ele>
        <time>2013-03-09T15:23:35.000Z</time>
      </trkpt>
      <trkpt lat="45.08894" lon="5.61475">
        <ele>1815</ele>
        <time>2013-03-09T15:23:39.000Z</time>
      </trkpt>
      <trkpt lat="45.08893" lon="5.61477">
        <ele>1815</ele>
        <time>2013-03-09T15:23:40.000Z</time>
      </trkpt>
      <trkpt lat="45.08891" lon="5.61482">
        <ele>1816</ele>
        <time>2013-03-09T15:23:46.000Z</time>
      </trkpt>
      <trkpt lat="45.08892" lon="5.61491">
        <ele>1816</ele>
        <time>2013-03-09T15:23:53.000Z</time>
      </trkpt>
      <trkpt lat="45.08891" lon="5.61496">
        <ele>1817</ele>
        <time>2013-03-09T15:23:58.000Z</time>
      </trkpt>
      <trkpt lat="45.08891" lon="5.61498">
        <ele>1817</ele>
        <time>2013-03-09T15:23:59.000Z</time>
      </trkpt>
      <trkpt lat="45.08892" lon="5.61503">
        <ele>1827</ele>
        <time>2013-03-09T15:24:04.000Z</time>
      </trkpt>
      <trkpt lat="45.08894" lon="5.61508">
        <ele>1827</ele>
        <time>2013-03-09T15:24:11.000Z</time>
      </trkpt>
      <trkpt lat="45.08896" lon="5.61512">
        <ele>1827</ele>
        <time>2013-03-09T15:24:19.000Z</time>
      </trkpt>
      <trkpt lat="45.08898" lon="5.61515">
        <ele>1827</ele>
        <time>2013-03-09T15:24:20.000Z</time>
      </trkpt>
      <trkpt lat="45.08898" lon="5.61516">
        <ele>1827</ele>
        <time>2013-03-09T15:24:22.000Z</time>
      </trkpt>
      <trkpt lat="45.089" lon="5.61525">
        <ele>1829</ele>
        <time>2013-03-09T15:24:29.000Z</time>
      </trkpt>
      <trkpt lat="45.08901" lon="5.61529">
        <ele>1830</ele>
        <time>2013-03-09T15:24:31.000Z</time>
      </trkpt>
      <trkpt lat="45.08902" lon="5.61531">
        <ele>1830</ele>
        <time>2013-03-09T15:24:32.000Z</time>
      </trkpt>
      <trkpt lat="45.08901" lon="5.61537">
        <ele>1831</ele>
        <time>2013-03-09T15:24:38.000Z</time>
      </trkpt>
      <trkpt lat="45.08901" lon="5.61538">
        <ele>1831</ele>
        <time>2013-03-09T15:24:39.000Z</time>
      </trkpt>
      <trkpt lat="45.08901" lon="5.61538">
        <ele>1831</ele>
        <time>2013-03-09T15:24:40.000Z</time>
      </trkpt>
      <trkpt lat="45.08901" lon="5.61547">
        <ele>1833</ele>
        <time>2013-03-09T15:24:47.000Z</time>
      </trkpt>
      <trkpt lat="45.08901" lon="5.61552">
        <ele>1833</ele>
        <time>2013-03-09T15:24:50.000Z</time>
      </trkpt>
      <trkpt lat="45.08902" lon="5.61554">
        <ele>1833</ele>
        <time>2013-03-09T15:24:51.000Z</time>
      </trkpt>
      <trkpt lat="45.08903" lon="5.6156">
        <ele>1833</ele>
        <time>2013-03-09T15:24:56.000Z</time>
      </trkpt>
      <trkpt lat="45.08904" lon="5.6156">
        <ele>1833</ele>
        <time>2013-03-09T15:24:57.000Z</time>
      </trkpt>
      <trkpt lat="45.08905" lon="5.61561">
        <ele>1833</ele>
        <time>2013-03-09T15:24:58.000Z</time>
      </trkpt>
      <trkpt lat="45.08909" lon="5.61568">
        <ele>1833</ele>
        <time>2013-03-09T15:25:05.000Z</time>
      </trkpt>
      <trkpt lat="45.08911" lon="5.61572">
        <ele>1833</ele>
        <time>2013-03-09T15:25:08.000Z</time>
      </trkpt>
      <trkpt lat="45.08912" lon="5.61572">
        <ele>1833</ele>
        <time>2013-03-09T15:25:09.000Z</time>
      </trkpt>
      <trkpt lat="45.08915" lon="5.61578">
        <ele>1833</ele>
        <time>2013-03-09T15:25:12.000Z</time>
      </trkpt>
      <trkpt lat="45.08916" lon="5.61578">
        <ele>1833</ele>
        <time>2013-03-09T15:25:13.000Z</time>
      </trkpt>
      <trkpt lat="45.08916" lon="5.61582">
        <ele>1832</ele>
        <time>2013-03-09T15:25:16.000Z</time>
      </trkpt>
      <trkpt lat="45.08919" lon="5.61586">
        <ele>1832</ele>
        <time>2013-03-09T15:25:23.000Z</time>
      </trkpt>
      <trkpt lat="45.08923" lon="5.6159">
        <ele>1832</ele>
        <time>2013-03-09T15:25:27.000Z</time>
      </trkpt>
      <trkpt lat="45.08924" lon="5.61591">
        <ele>1832</ele>
        <time>2013-03-09T15:25:28.000Z</time>
      </trkpt>
      <trkpt lat="45.08926" lon="5.61594">
        <ele>1832</ele>
        <time>2013-03-09T15:25:33.000Z</time>
      </trkpt>
      <trkpt lat="45.08929" lon="5.61592">
        <ele>1832</ele>
        <time>2013-03-09T15:25:34.000Z</time>
      </trkpt>
      <trkpt lat="45.08929" lon="5.61603">
        <ele>1833</ele>
        <time>2013-03-09T15:25:41.000Z</time>
      </trkpt>
      <trkpt lat="45.08932" lon="5.61606">
        <ele>1833</ele>
        <time>2013-03-09T15:25:44.000Z</time>
      </trkpt>
      <trkpt lat="45.08932" lon="5.61608">
        <ele>1833</ele>
        <time>2013-03-09T15:25:45.000Z</time>
      </trkpt>
      <trkpt lat="45.08936" lon="5.6161">
        <ele>1833</ele>
        <time>2013-03-09T15:25:51.000Z</time>
      </trkpt>
      <trkpt lat="45.08936" lon="5.6161">
        <ele>1833</ele>
        <time>2013-03-09T15:25:52.000Z</time>
      </trkpt>
      <trkpt lat="45.08937" lon="5.61616">
        <ele>1834</ele>
        <time>2013-03-09T15:25:59.000Z</time>
      </trkpt>
      <trkpt lat="45.08938" lon="5.61621">
        <ele>1834</ele>
        <time>2013-03-09T15:26:03.000Z</time>
      </trkpt>
      <trkpt lat="45.08938" lon="5.61622">
        <ele>1834</ele>
        <time>2013-03-09T15:26:04.000Z</time>
      </trkpt>
      <trkpt lat="45.08939" lon="5.61628">
        <ele>1835</ele>
        <time>2013-03-09T15:26:08.000Z</time>
      </trkpt>
      <trkpt lat="45.08941" lon="5.61629">
        <ele>1835</ele>
        <time>2013-03-09T15:26:09.000Z</time>
      </trkpt>
      <trkpt lat="45.08941" lon="5.6163">
        <ele>1835</ele>
        <time>2013-03-09T15:26:10.000Z</time>
      </trkpt>
      <trkpt lat="45.0894" lon="5.61638">
        <ele>1837</ele>
        <time>2013-03-09T15:26:17.000Z</time>
      </trkpt>
      <trkpt lat="45.08942" lon="5.61642">
        <ele>1837</ele>
        <time>2013-03-09T15:26:22.000Z</time>
      </trkpt>
      <trkpt lat="45.08942" lon="5.61645">
        <ele>1837</ele>
        <time>2013-03-09T15:26:23.000Z</time>
      </trkpt>
      <trkpt lat="45.08945" lon="5.61648">
        <ele>1837</ele>
        <time>2013-03-09T15:26:28.000Z</time>
      </trkpt>
      <trkpt lat="45.08948" lon="5.61655">
        <ele>1838</ele>
        <time>2013-03-09T15:26:35.000Z</time>
      </trkpt>
      <trkpt lat="45.08948" lon="5.61661">
        <ele>1838</ele>
        <time>2013-03-09T15:26:40.000Z</time>
      </trkpt>
      <trkpt lat="45.08947" lon="5.61663">
        <ele>1838</ele>
        <time>2013-03-09T15:26:41.000Z</time>
      </trkpt>
      <trkpt lat="45.08948" lon="5.61667">
        <ele>1852</ele>
        <time>2013-03-09T15:26:46.000Z</time>
      </trkpt>
      <trkpt lat="45.08949" lon="5.61671">
        <ele>1852</ele>
        <time>2013-03-09T15:26:53.000Z</time>
      </trkpt>
      <trkpt lat="45.08945" lon="5.61673">
        <ele>1853</ele>
        <time>2013-03-09T15:26:58.000Z</time>
      </trkpt>
      <trkpt lat="45.08944" lon="5.61675">
        <ele>1853</ele>
        <time>2013-03-09T15:26:59.000Z</time>
      </trkpt>
      <trkpt lat="45.08942" lon="5.61681">
        <ele>1854</ele>
        <time>2013-03-09T15:27:01.000Z</time>
      </trkpt>
      <trkpt lat="45.08941" lon="5.61682">
        <ele>1854</ele>
        <time>2013-03-09T15:27:02.000Z</time>
      </trkpt>
      <trkpt lat="45.08939" lon="5.61687">
        <ele>1855</ele>
        <time>2013-03-09T15:27:15.000Z</time>
      </trkpt>
      <trkpt lat="45.08941" lon="5.61689">
        <ele>1855</ele>
        <time>2013-03-09T15:27:17.000Z</time>
      </trkpt>
      <trkpt lat="45.08944" lon="5.61693">
        <ele>1855</ele>
        <time>2013-03-09T15:27:20.000Z</time>
      </trkpt>
      <trkpt lat="45.08944" lon="5.61695">
        <ele>1855</ele>
        <time>2013-03-09T15:27:21.000Z</time>
      </trkpt>
      <trkpt lat="45.08946" lon="5.617">
        <ele>1856</ele>
        <time>2013-03-09T15:27:27.000Z</time>
      </trkpt>
      <trkpt lat="45.08946" lon="5.61701">
        <ele>1856</ele>
        <time>2013-03-09T15:27:28.000Z</time>
      </trkpt>
      <trkpt lat="45.08947" lon="5.61708">
        <ele>1857</ele>
        <time>2013-03-09T15:27:35.000Z</time>
      </trkpt>
      <trkpt lat="45.08948" lon="5.61713">
        <ele>1858</ele>
        <time>2013-03-09T15:27:41.000Z</time>
      </trkpt>
      <trkpt lat="45.08948" lon="5.61715">
        <ele>1858</ele>
        <time>2013-03-09T15:27:42.000Z</time>
      </trkpt>
      <trkpt lat="45.08947" lon="5.61719">
        <ele>1859</ele>
        <time>2013-03-09T15:27:53.000Z</time>
      </trkpt>
      <trkpt lat="45.08943" lon="5.61721">
        <ele>1860</ele>
        <time>2013-03-09T15:27:55.000Z</time>
      </trkpt>
      <trkpt lat="45.08939" lon="5.61721">
        <ele>1861</ele>
        <time>2013-03-09T15:28:01.000Z</time>
      </trkpt>
      <trkpt lat="45.08938" lon="5.61721">
        <ele>1861</ele>
        <time>2013-03-09T15:28:02.000Z</time>
      </trkpt>
      <trkpt lat="45.08938" lon="5.61721">
        <ele>1861</ele>
        <time>2013-03-09T15:28:04.000Z</time>
      </trkpt>
      <trkpt lat="45.08931" lon="5.61723">
        <ele>1862</ele>
        <time>2013-03-09T15:28:11.000Z</time>
      </trkpt>
      <trkpt lat="45.08927" lon="5.61722">
        <ele>1863</ele>
        <time>2013-03-09T15:28:16.000Z</time>
      </trkpt>
      <trkpt lat="45.08927" lon="5.61721">
        <ele>1862</ele>
        <time>2013-03-09T15:28:17.000Z</time>
      </trkpt>
      <trkpt lat="45.08924" lon="5.61725">
        <ele>1864</ele>
        <time>2013-03-09T15:28:20.000Z</time>
      </trkpt>
      <trkpt lat="45.08923" lon="5.61724">
        <ele>1864</ele>
        <time>2013-03-09T15:28:21.000Z</time>
      </trkpt>
      <trkpt lat="45.08922" lon="5.61723">
        <ele>1864</ele>
        <time>2013-03-09T15:28:22.000Z</time>
      </trkpt>
      <trkpt lat="45.08917" lon="5.61725">
        <ele>1865</ele>
        <time>2013-03-09T15:28:29.000Z</time>
      </trkpt>
      <trkpt lat="45.08917" lon="5.61731">
        <ele>1867</ele>
        <time>2013-03-09T15:28:33.000Z</time>
      </trkpt>
      <trkpt lat="45.08916" lon="5.61733">
        <ele>1878</ele>
        <time>2013-03-09T15:28:34.000Z</time>
      </trkpt>
      <trkpt lat="45.08919" lon="5.61736">
        <ele>1869</ele>
        <time>2013-03-09T15:28:39.000Z</time>
      </trkpt>
      <trkpt lat="45.08919" lon="5.61737">
        <ele>1870</ele>
        <time>2013-03-09T15:28:40.000Z</time>
      </trkpt>
      <trkpt lat="45.08922" lon="5.61745">
        <ele>1873</ele>
        <time>2013-03-09T15:28:47.000Z</time>
      </trkpt>
      <trkpt lat="45.08922" lon="5.61751">
        <ele>1880</ele>
        <time>2013-03-09T15:28:53.000Z</time>
      </trkpt>
      <trkpt lat="45.08922" lon="5.61752">
        <ele>1880</ele>
        <time>2013-03-09T15:28:54.000Z</time>
      </trkpt>
      <trkpt lat="45.08924" lon="5.61756">
        <ele>1881</ele>
        <time>2013-03-09T15:28:58.000Z</time>
      </trkpt>
      <trkpt lat="45.08925" lon="5.61762">
        <ele>1882</ele>
        <time>2013-03-09T15:29:05.000Z</time>
      </trkpt>
      <trkpt lat="45.08927" lon="5.61768">
        <ele>1882</ele>
        <time>2013-03-09T15:29:10.000Z</time>
      </trkpt>
      <trkpt lat="45.08927" lon="5.61769">
        <ele>1883</ele>
        <time>2013-03-09T15:29:11.000Z</time>
      </trkpt>
      <trkpt lat="45.08925" lon="5.61772">
        <ele>1883</ele>
        <time>2013-03-09T15:29:28.000Z</time>
      </trkpt>
      <trkpt lat="45.08919" lon="5.61773">
        <ele>1884</ele>
        <time>2013-03-09T15:29:35.000Z</time>
      </trkpt>
      <trkpt lat="45.0892" lon="5.61778">
        <ele>1885</ele>
        <time>2013-03-09T15:29:39.000Z</time>
      </trkpt>
      <trkpt lat="45.0892" lon="5.61781">
        <ele>1885</ele>
        <time>2013-03-09T15:29:40.000Z</time>
      </trkpt>
      <trkpt lat="45.08923" lon="5.61783">
        <ele>1885</ele>
        <time>2013-03-09T15:29:46.000Z</time>
      </trkpt>
      <trkpt lat="45.08921" lon="5.61792">
        <ele>1888</ele>
        <time>2013-03-09T15:29:53.000Z</time>
      </trkpt>
      <trkpt lat="45.08922" lon="5.61798">
        <ele>1889</ele>
        <time>2013-03-09T15:29:59.000Z</time>
      </trkpt>
      <trkpt lat="45.08922" lon="5.61798">
        <ele>1889</ele>
        <time>2013-03-09T15:30:00.000Z</time>
      </trkpt>
      <trkpt lat="45.08922" lon="5.61803">
        <ele>1891</ele>
        <time>2013-03-09T15:30:04.000Z</time>
      </trkpt>
      <trkpt lat="45.08923" lon="5.6181">
        <ele>1893</ele>
        <time>2013-03-09T15:30:11.000Z</time>
      </trkpt>
      <trkpt lat="45.08924" lon="5.61814">
        <ele>1894</ele>
        <time>2013-03-09T15:30:15.000Z</time>
      </trkpt>
      <trkpt lat="45.08923" lon="5.61817">
        <ele>1895</ele>
        <time>2013-03-09T15:30:17.000Z</time>
      </trkpt>
      <trkpt lat="45.08922" lon="5.61822">
        <ele>1898</ele>
        <time>2013-03-09T15:30:25.000Z</time>
      </trkpt>
      <trkpt lat="45.08921" lon="5.61823">
        <ele>1899</ele>
        <time>2013-03-09T15:30:26.000Z</time>
      </trkpt>
      <trkpt lat="45.08922" lon="5.61829">
        <ele>1902</ele>
        <time>2013-03-09T15:30:35.000Z</time>
      </trkpt>
      <trkpt lat="45.08921" lon="5.61831">
        <ele>1903</ele>
        <time>2013-03-09T15:30:37.000Z</time>
      </trkpt>
      <trkpt lat="45.0892" lon="5.61836">
        <ele>1908</ele>
        <time>2013-03-09T15:30:43.000Z</time>
      </trkpt>
      <trkpt lat="45.08919" lon="5.61837">
        <ele>1908</ele>
        <time>2013-03-09T15:30:44.000Z</time>
      </trkpt>
      <trkpt lat="45.08919" lon="5.61839">
        <ele>1908</ele>
        <time>2013-03-09T15:30:46.000Z</time>
      </trkpt>
      <trkpt lat="45.0892" lon="5.61843">
        <ele>1908</ele>
        <time>2013-03-09T15:30:53.000Z</time>
      </trkpt>
      <trkpt lat="45.08919" lon="5.61848">
        <ele>1909</ele>
        <time>2013-03-09T15:30:58.000Z</time>
      </trkpt>
      <trkpt lat="45.08918" lon="5.61849">
        <ele>1909</ele>
        <time>2013-03-09T15:30:59.000Z</time>
      </trkpt>
      <trkpt lat="45.08918" lon="5.61854">
        <ele>1910</ele>
        <time>2013-03-09T15:31:04.000Z</time>
      </trkpt>
      <trkpt lat="45.08919" lon="5.61859">
        <ele>1910</ele>
        <time>2013-03-09T15:31:11.000Z</time>
      </trkpt>
      <trkpt lat="45.08916" lon="5.61863">
        <ele>1902</ele>
        <time>2013-03-09T15:31:14.000Z</time>
      </trkpt>
      <trkpt lat="45.08916" lon="5.61864">
        <ele>1902</ele>
        <time>2013-03-09T15:31:15.000Z</time>
      </trkpt>
      <trkpt lat="45.08916" lon="5.61869">
        <ele>1902</ele>
        <time>2013-03-09T15:31:22.000Z</time>
      </trkpt>
      <trkpt lat="45.08913" lon="5.61872">
        <ele>1902</ele>
        <time>2013-03-09T15:31:29.000Z</time>
      </trkpt>
      <trkpt lat="45.08913" lon="5.61877">
        <ele>1902</ele>
        <time>2013-03-09T15:31:35.000Z</time>
      </trkpt>
      <trkpt lat="45.08912" lon="5.61879">
        <ele>1902</ele>
        <time>2013-03-09T15:31:36.000Z</time>
      </trkpt>
      <trkpt lat="45.08915" lon="5.61883">
        <ele>1903</ele>
        <time>2013-03-09T15:31:40.000Z</time>
      </trkpt>
      <trkpt lat="45.08918" lon="5.61886">
        <ele>1914</ele>
        <time>2013-03-09T15:31:47.000Z</time>
      </trkpt>
      <trkpt lat="45.0892" lon="5.6189">
        <ele>1915</ele>
        <time>2013-03-09T15:31:51.000Z</time>
      </trkpt>
      <trkpt lat="45.08922" lon="5.6189">
        <ele>1915</ele>
        <time>2013-03-09T15:31:52.000Z</time>
      </trkpt>
      <trkpt lat="45.08925" lon="5.61894">
        <ele>1916</ele>
        <time>2013-03-09T15:31:57.000Z</time>
      </trkpt>
      <trkpt lat="45.08926" lon="5.61895">
        <ele>1916</ele>
        <time>2013-03-09T15:31:58.000Z</time>
      </trkpt>
      <trkpt lat="45.08933" lon="5.61894">
        <ele>1915</ele>
        <time>2013-03-09T15:32:05.000Z</time>
      </trkpt>
      <trkpt lat="45.08937" lon="5.61898">
        <ele>1915</ele>
        <time>2013-03-09T15:32:10.000Z</time>
      </trkpt>
      <trkpt lat="45.08938" lon="5.61899">
        <ele>1916</ele>
        <time>2013-03-09T15:32:11.000Z</time>
      </trkpt>
      <trkpt lat="45.0894" lon="5.61899">
        <ele>1915</ele>
        <time>2013-03-09T15:32:13.000Z</time>
      </trkpt>
      <trkpt lat="45.08942" lon="5.61898">
        <ele>1915</ele>
        <time>2013-03-09T15:32:14.000Z</time>
      </trkpt>
      <trkpt lat="45.08943" lon="5.61897">
        <ele>1915</ele>
        <time>2013-03-09T15:32:16.000Z</time>
      </trkpt>
      <trkpt lat="45.08947" lon="5.61898">
        <ele>1915</ele>
        <time>2013-03-09T15:32:23.000Z</time>
      </trkpt>
      <trkpt lat="45.08951" lon="5.61901">
        <ele>1915</ele>
        <time>2013-03-09T15:32:34.000Z</time>
      </trkpt>
      <trkpt lat="45.08955" lon="5.61905">
        <ele>1915</ele>
        <time>2013-03-09T15:32:41.000Z</time>
      </trkpt>
      <trkpt lat="45.0896" lon="5.61907">
        <ele>1915</ele>
        <time>2013-03-09T15:32:43.000Z</time>
      </trkpt>
      <trkpt lat="45.08963" lon="5.61908">
        <ele>1915</ele>
        <time>2013-03-09T15:32:45.000Z</time>
      </trkpt>
      <trkpt lat="45.08966" lon="5.61909">
        <ele>1916</ele>
        <time>2013-03-09T15:32:46.000Z</time>
      </trkpt>
      <trkpt lat="45.08969" lon="5.6191">
        <ele>1916</ele>
        <time>2013-03-09T15:32:50.000Z</time>
      </trkpt>
      <trkpt lat="45.08971" lon="5.6191">
        <ele>1916</ele>
        <time>2013-03-09T15:32:51.000Z</time>
      </trkpt>
      <trkpt lat="45.0897" lon="5.61911">
        <ele>1916</ele>
        <time>2013-03-09T15:32:52.000Z</time>
      </trkpt>
      <trkpt lat="45.08967" lon="5.61918">
        <ele>1918</ele>
        <time>2013-03-09T15:32:59.000Z</time>
      </trkpt>
      <trkpt lat="45.08969" lon="5.61923">
        <ele>1918</ele>
        <time>2013-03-09T15:33:05.000Z</time>
      </trkpt>
      <trkpt lat="45.08969" lon="5.61924">
        <ele>1918</ele>
        <time>2013-03-09T15:33:06.000Z</time>
      </trkpt>
      <trkpt lat="45.08969" lon="5.61927">
        <ele>1918</ele>
        <time>2013-03-09T15:33:10.000Z</time>
      </trkpt>
      <trkpt lat="45.08973" lon="5.61931">
        <ele>1918</ele>
        <time>2013-03-09T15:33:17.000Z</time>
      </trkpt>
      <trkpt lat="45.08974" lon="5.61932">
        <ele>1918</ele>
        <time>2013-03-09T15:33:19.000Z</time>
      </trkpt>
      <trkpt lat="45.08974" lon="5.61937">
        <ele>1918</ele>
        <time>2013-03-09T15:33:20.000Z</time>
      </trkpt>
      <trkpt lat="45.08977" lon="5.61937">
        <ele>1919</ele>
        <time>2013-03-09T15:33:28.000Z</time>
      </trkpt>
      <trkpt lat="45.08977" lon="5.61945">
        <ele>1918</ele>
        <time>2013-03-09T15:33:35.000Z</time>
      </trkpt>
      <trkpt lat="45.08979" lon="5.6195">
        <ele>1918</ele>
        <time>2013-03-09T15:33:43.000Z</time>
      </trkpt>
      <trkpt lat="45.08979" lon="5.61951">
        <ele>1918</ele>
        <time>2013-03-09T15:33:44.000Z</time>
      </trkpt>
      <trkpt lat="45.08981" lon="5.61956">
        <ele>1919</ele>
        <time>2013-03-09T15:33:57.000Z</time>
      </trkpt>
      <trkpt lat="45.08982" lon="5.61957">
        <ele>1919</ele>
        <time>2013-03-09T15:33:58.000Z</time>
      </trkpt>
      <trkpt lat="45.08986" lon="5.61958">
        <ele>1920</ele>
        <time>2013-03-09T15:34:01.000Z</time>
      </trkpt>
      <trkpt lat="45.08987" lon="5.61959">
        <ele>1920</ele>
        <time>2013-03-09T15:34:02.000Z</time>
      </trkpt>
      <trkpt lat="45.08986" lon="5.61965">
        <ele>1921</ele>
        <time>2013-03-09T15:34:14.000Z</time>
      </trkpt>
      <trkpt lat="45.08986" lon="5.61966">
        <ele>1921</ele>
        <time>2013-03-09T15:34:15.000Z</time>
      </trkpt>
      <trkpt lat="45.08984" lon="5.61972">
        <ele>1921</ele>
        <time>2013-03-09T15:34:21.000Z</time>
      </trkpt>
      <trkpt lat="45.08985" lon="5.61973">
        <ele>1922</ele>
        <time>2013-03-09T15:34:22.000Z</time>
      </trkpt>
      <trkpt lat="45.08986" lon="5.61978">
        <ele>1924</ele>
        <time>2013-03-09T15:34:29.000Z</time>
      </trkpt>
      <trkpt lat="45.08988" lon="5.61978">
        <ele>1924</ele>
        <time>2013-03-09T15:34:31.000Z</time>
      </trkpt>
      <trkpt lat="45.08991" lon="5.61982">
        <ele>1927</ele>
        <time>2013-03-09T15:34:40.000Z</time>
      </trkpt>
      <trkpt lat="45.08999" lon="5.61993">
        <ele>1937</ele>
        <time>2013-03-09T15:34:47.000Z</time>
      </trkpt>
      <trkpt lat="45.08999" lon="5.61991">
        <ele>1936</ele>
        <time>2013-03-09T15:34:58.000Z</time>
      </trkpt>
      <trkpt lat="45.09006" lon="5.61991">
        <ele>1938</ele>
        <time>2013-03-09T15:35:05.000Z</time>
      </trkpt>
      <trkpt lat="45.09005" lon="5.61996">
        <ele>1941</ele>
        <time>2013-03-09T15:35:13.000Z</time>
      </trkpt>
      <trkpt lat="45.09006" lon="5.61997">
        <ele>1941</ele>
        <time>2013-03-09T15:35:14.000Z</time>
      </trkpt>
      <trkpt lat="45.09006" lon="5.61994">
        <ele>1940</ele>
        <time>2013-03-09T15:35:16.000Z</time>
      </trkpt>
      <trkpt lat="45.09012" lon="5.61998">
        <ele>1938</ele>
        <time>2013-03-09T15:35:23.000Z</time>
      </trkpt>
      <trkpt lat="45.09015" lon="5.62001">
        <ele>1930</ele>
        <time>2013-03-09T15:35:25.000Z</time>
      </trkpt>
      <trkpt lat="45.09016" lon="5.62001">
        <ele>1929</ele>
        <time>2013-03-09T15:35:26.000Z</time>
      </trkpt>
      <trkpt lat="45.09012" lon="5.62001">
        <ele>1932</ele>
        <time>2013-03-09T15:41:04.000Z</time>
      </trkpt>
      <trkpt lat="45.09008" lon="5.61999">
        <ele>1940</ele>
        <time>2013-03-09T15:41:06.000Z</time>
      </trkpt>
      <trkpt lat="45.09006" lon="5.61997">
        <ele>1941</ele>
        <time>2013-03-09T15:41:07.000Z</time>
      </trkpt>
      <trkpt lat="45.09004" lon="5.61995">
        <ele>1941</ele>
        <time>2013-03-09T15:41:08.000Z</time>
      </trkpt>
      <trkpt lat="45.09003" lon="5.61991">
        <ele>1939</ele>
        <time>2013-03-09T15:41:10.000Z</time>
      </trkpt>
      <trkpt lat="45.09001" lon="5.61988">
        <ele>1938</ele>
        <time>2013-03-09T15:41:11.000Z</time>
      </trkpt>
      <trkpt lat="45.08998" lon="5.61987">
        <ele>1932</ele>
        <time>2013-03-09T15:41:12.000Z</time>
      </trkpt>
      <trkpt lat="45.08996" lon="5.61986">
        <ele>1931</ele>
        <time>2013-03-09T15:41:13.000Z</time>
      </trkpt>
      <trkpt lat="45.08993" lon="5.61985">
        <ele>1929</ele>
        <time>2013-03-09T15:41:15.000Z</time>
      </trkpt>
      <trkpt lat="45.08991" lon="5.61985">
        <ele>1928</ele>
        <time>2013-03-09T15:41:17.000Z</time>
      </trkpt>
      <trkpt lat="45.08992" lon="5.61987">
        <ele>1930</ele>
        <time>2013-03-09T15:42:31.000Z</time>
      </trkpt>
      <trkpt lat="45.08996" lon="5.61991">
        <ele>1934</ele>
        <time>2013-03-09T15:42:35.000Z</time>
      </trkpt>
      <trkpt lat="45.08992" lon="5.61988">
        <ele>1930</ele>
        <time>2013-03-09T15:42:40.000Z</time>
      </trkpt>
      <trkpt lat="45.08992" lon="5.61987">
        <ele>1930</ele>
        <time>2013-03-09T15:42:41.000Z</time>
      </trkpt>
      <trkpt lat="45.08992" lon="5.61987">
        <ele>1930</ele>
        <time>2013-03-09T15:42:44.000Z</time>
      </trkpt>
      <trkpt lat="45.08989" lon="5.6198">
        <ele>1925</ele>
        <time>2013-03-09T15:42:51.000Z</time>
      </trkpt>
      <trkpt lat="45.08986" lon="5.61979">
        <ele>1924</ele>
        <time>2013-03-09T15:42:57.000Z</time>
      </trkpt>
      <trkpt lat="45.08984" lon="5.61978">
        <ele>1923</ele>
        <time>2013-03-09T15:42:58.000Z</time>
      </trkpt>
      <trkpt lat="45.08981" lon="5.61979">
        <ele>1922</ele>
        <time>2013-03-09T15:42:59.000Z</time>
      </trkpt>
      <trkpt lat="45.08977" lon="5.61978">
        <ele>1920</ele>
        <time>2013-03-09T15:43:00.000Z</time>
      </trkpt>
      <trkpt lat="45.08974" lon="5.61977">
        <ele>1919</ele>
        <time>2013-03-09T15:43:01.000Z</time>
      </trkpt>
      <trkpt lat="45.08969" lon="5.61976">
        <ele>1916</ele>
        <time>2013-03-09T15:43:02.000Z</time>
      </trkpt>
      <trkpt lat="45.08933" lon="5.61961">
        <ele>1906</ele>
        <time>2013-03-09T15:43:09.000Z</time>
      </trkpt>
      <trkpt lat="45.08918" lon="5.61933">
        <ele>1916</ele>
        <time>2013-03-09T15:43:11.000Z</time>
      </trkpt>
      <trkpt lat="45.0891" lon="5.6192">
        <ele>1904</ele>
        <time>2013-03-09T15:43:12.000Z</time>
      </trkpt>
      <trkpt lat="45.08902" lon="5.61914">
        <ele>1908</ele>
        <time>2013-03-09T15:43:13.000Z</time>
      </trkpt>
      <trkpt lat="45.08896" lon="5.61906">
        <ele>1902</ele>
        <time>2013-03-09T15:43:14.000Z</time>
      </trkpt>
      <trkpt lat="45.08891" lon="5.61899">
        <ele>1899</ele>
        <time>2013-03-09T15:43:15.000Z</time>
      </trkpt>
      <trkpt lat="45.08885" lon="5.61884">
        <ele>1896</ele>
        <time>2013-03-09T15:43:18.000Z</time>
      </trkpt>
      <trkpt lat="45.08882" lon="5.61877">
        <ele>1896</ele>
        <time>2013-03-09T15:43:20.000Z</time>
      </trkpt>
      <trkpt lat="45.08881" lon="5.61874">
        <ele>1896</ele>
        <time>2013-03-09T15:43:21.000Z</time>
      </trkpt>
      <trkpt lat="45.0888" lon="5.6187">
        <ele>1896</ele>
        <time>2013-03-09T15:43:22.000Z</time>
      </trkpt>
      <trkpt lat="45.0888" lon="5.61866">
        <ele>1897</ele>
        <time>2013-03-09T15:43:23.000Z</time>
      </trkpt>
      <trkpt lat="45.08879" lon="5.61864">
        <ele>1897</ele>
        <time>2013-03-09T15:43:24.000Z</time>
      </trkpt>
      <trkpt lat="45.08877" lon="5.61859">
        <ele>1897</ele>
        <time>2013-03-09T15:43:25.000Z</time>
      </trkpt>
      <trkpt lat="45.08875" lon="5.61856">
        <ele>1897</ele>
        <time>2013-03-09T15:43:26.000Z</time>
      </trkpt>
      <trkpt lat="45.08873" lon="5.61852">
        <ele>1898</ele>
        <time>2013-03-09T15:43:27.000Z</time>
      </trkpt>
      <trkpt lat="45.08871" lon="5.61849">
        <ele>1898</ele>
        <time>2013-03-09T15:43:28.000Z</time>
      </trkpt>
      <trkpt lat="45.0887" lon="5.61846">
        <ele>1898</ele>
        <time>2013-03-09T15:43:29.000Z</time>
      </trkpt>
      <trkpt lat="45.08853" lon="5.61833">
        <ele>1905</ele>
        <time>2013-03-09T15:43:36.000Z</time>
      </trkpt>
      <trkpt lat="45.08848" lon="5.61828">
        <ele>1906</ele>
        <time>2013-03-09T15:43:38.000Z</time>
      </trkpt>
      <trkpt lat="45.08845" lon="5.61824">
        <ele>1905</ele>
        <time>2013-03-09T15:43:39.000Z</time>
      </trkpt>
      <trkpt lat="45.08844" lon="5.6182">
        <ele>1905</ele>
        <time>2013-03-09T15:43:40.000Z</time>
      </trkpt>
      <trkpt lat="45.08844" lon="5.61812">
        <ele>1904</ele>
        <time>2013-03-09T15:43:41.000Z</time>
      </trkpt>
      <trkpt lat="45.08846" lon="5.61806">
        <ele>1903</ele>
        <time>2013-03-09T15:43:42.000Z</time>
      </trkpt>
      <trkpt lat="45.0885" lon="5.618">
        <ele>1902</ele>
        <time>2013-03-09T15:43:43.000Z</time>
      </trkpt>
      <trkpt lat="45.08858" lon="5.61795">
        <ele>1901</ele>
        <time>2013-03-09T15:43:44.000Z</time>
      </trkpt>
      <trkpt lat="45.08861" lon="5.61787">
        <ele>1900</ele>
        <time>2013-03-09T15:43:45.000Z</time>
      </trkpt>
      <trkpt lat="45.08865" lon="5.6178">
        <ele>1899</ele>
        <time>2013-03-09T15:43:46.000Z</time>
      </trkpt>
      <trkpt lat="45.08872" lon="5.61776">
        <ele>1898</ele>
        <time>2013-03-09T15:43:47.000Z</time>
      </trkpt>
      <trkpt lat="45.08895" lon="5.6173">
        <ele>1879</ele>
        <time>2013-03-09T15:43:54.000Z</time>
      </trkpt>
      <trkpt lat="45.08903" lon="5.61716">
        <ele>1876</ele>
        <time>2013-03-09T15:43:56.000Z</time>
      </trkpt>
      <trkpt lat="45.08909" lon="5.6171">
        <ele>1875</ele>
        <time>2013-03-09T15:43:57.000Z</time>
      </trkpt>
      <trkpt lat="45.08918" lon="5.61703">
        <ele>1858</ele>
        <time>2013-03-09T15:43:58.000Z</time>
      </trkpt>
      <trkpt lat="45.08926" lon="5.61695">
        <ele>1856</ele>
        <time>2013-03-09T15:43:59.000Z</time>
      </trkpt>
      <trkpt lat="45.08933" lon="5.61691">
        <ele>1855</ele>
        <time>2013-03-09T15:44:00.000Z</time>
      </trkpt>
      <trkpt lat="45.08941" lon="5.61686">
        <ele>1854</ele>
        <time>2013-03-09T15:44:01.000Z</time>
      </trkpt>
      <trkpt lat="45.08948" lon="5.61682">
        <ele>1853</ele>
        <time>2013-03-09T15:44:02.000Z</time>
      </trkpt>
      <trkpt lat="45.08947" lon="5.61677">
        <ele>1853</ele>
        <time>2013-03-09T15:44:03.000Z</time>
      </trkpt>
      <trkpt lat="45.08949" lon="5.61669">
        <ele>1852</ele>
        <time>2013-03-09T15:44:04.000Z</time>
      </trkpt>
      <trkpt lat="45.08951" lon="5.61661">
        <ele>1837</ele>
        <time>2013-03-09T15:44:05.000Z</time>
      </trkpt>
      <trkpt lat="45.08938" lon="5.61599">
        <ele>1832</ele>
        <time>2013-03-09T15:44:12.000Z</time>
      </trkpt>
      <trkpt lat="45.08932" lon="5.61581">
        <ele>1823</ele>
        <time>2013-03-09T15:44:14.000Z</time>
      </trkpt>
      <trkpt lat="45.08927" lon="5.6157">
        <ele>1823</ele>
        <time>2013-03-09T15:44:15.000Z</time>
      </trkpt>
      <trkpt lat="45.08923" lon="5.61559">
        <ele>1820</ele>
        <time>2013-03-09T15:44:16.000Z</time>
      </trkpt>
      <trkpt lat="45.0892" lon="5.61549">
        <ele>1818</ele>
        <time>2013-03-09T15:44:17.000Z</time>
      </trkpt>
      <trkpt lat="45.0892" lon="5.61537">
        <ele>1816</ele>
        <time>2013-03-09T15:44:18.000Z</time>
      </trkpt>
      <trkpt lat="45.08924" lon="5.61524">
        <ele>1814</ele>
        <time>2013-03-09T15:44:19.000Z</time>
      </trkpt>
      <trkpt lat="45.08929" lon="5.61515">
        <ele>1813</ele>
        <time>2013-03-09T15:44:20.000Z</time>
      </trkpt>
      <trkpt lat="45.08937" lon="5.6151">
        <ele>1812</ele>
        <time>2013-03-09T15:44:21.000Z</time>
      </trkpt>
      <trkpt lat="45.08944" lon="5.61504">
        <ele>1811</ele>
        <time>2013-03-09T15:44:22.000Z</time>
      </trkpt>
      <trkpt lat="45.0895" lon="5.61498">
        <ele>1797</ele>
        <time>2013-03-09T15:44:23.000Z</time>
      </trkpt>
      <trkpt lat="45.08956" lon="5.61413">
        <ele>1774</ele>
        <time>2013-03-09T15:44:31.000Z</time>
      </trkpt>
      <trkpt lat="45.08949" lon="5.61397">
        <ele>1775</ele>
        <time>2013-03-09T15:44:33.000Z</time>
      </trkpt>
      <trkpt lat="45.08945" lon="5.61395">
        <ele>1776</ele>
        <time>2013-03-09T15:44:34.000Z</time>
      </trkpt>
      <trkpt lat="45.08942" lon="5.61393">
        <ele>1776</ele>
        <time>2013-03-09T15:44:35.000Z</time>
      </trkpt>
      <trkpt lat="45.0894" lon="5.61388">
        <ele>1776</ele>
        <time>2013-03-09T15:44:42.000Z</time>
      </trkpt>
      <trkpt lat="45.08939" lon="5.61339">
        <ele>1773</ele>
        <time>2013-03-09T15:44:49.000Z</time>
      </trkpt>
      <trkpt lat="45.08936" lon="5.61318">
        <ele>1763</ele>
        <time>2013-03-09T15:44:51.000Z</time>
      </trkpt>
      <trkpt lat="45.08934" lon="5.61307">
        <ele>1761</ele>
        <time>2013-03-09T15:44:52.000Z</time>
      </trkpt>
      <trkpt lat="45.08934" lon="5.61298">
        <ele>1759</ele>
        <time>2013-03-09T15:44:53.000Z</time>
      </trkpt>
      <trkpt lat="45.08937" lon="5.61292">
        <ele>1758</ele>
        <time>2013-03-09T15:44:54.000Z</time>
      </trkpt>
      <trkpt lat="45.08941" lon="5.61292">
        <ele>1757</ele>
        <time>2013-03-09T15:44:55.000Z</time>
      </trkpt>
      <trkpt lat="45.08949" lon="5.61298">
        <ele>1757</ele>
        <time>2013-03-09T15:44:56.000Z</time>
      </trkpt>
      <trkpt lat="45.08951" lon="5.61304">
        <ele>1757</ele>
        <time>2013-03-09T15:44:57.000Z</time>
      </trkpt>
      <trkpt lat="45.08956" lon="5.61309">
        <ele>1756</ele>
        <time>2013-03-09T15:44:58.000Z</time>
      </trkpt>
      <trkpt lat="45.08958" lon="5.61314">
        <ele>1756</ele>
        <time>2013-03-09T15:44:59.000Z</time>
      </trkpt>
      <trkpt lat="45.08963" lon="5.61315">
        <ele>1755</ele>
        <time>2013-03-09T15:45:00.000Z</time>
      </trkpt>
      <trkpt lat="45.09019" lon="5.61255">
        <ele>1736</ele>
        <time>2013-03-09T15:45:07.000Z</time>
      </trkpt>
      <trkpt lat="45.09051" lon="5.61232">
        <ele>1724</ele>
        <time>2013-03-09T15:45:10.000Z</time>
      </trkpt>
      <trkpt lat="45.09062" lon="5.61225">
        <ele>1723</ele>
        <time>2013-03-09T15:45:11.000Z</time>
      </trkpt>
      <trkpt lat="45.09071" lon="5.61217">
        <ele>1722</ele>
        <time>2013-03-09T15:45:12.000Z</time>
      </trkpt>
      <trkpt lat="45.09078" lon="5.61209">
        <ele>1720</ele>
        <time>2013-03-09T15:45:13.000Z</time>
      </trkpt>
      <trkpt lat="45.09083" lon="5.61204">
        <ele>1719</ele>
        <time>2013-03-09T15:45:14.000Z</time>
      </trkpt>
      <trkpt lat="45.09087" lon="5.61199">
        <ele>1715</ele>
        <time>2013-03-09T15:45:15.000Z</time>
      </trkpt>
      <trkpt lat="45.09092" lon="5.61194">
        <ele>1714</ele>
        <time>2013-03-09T15:45:16.000Z</time>
      </trkpt>
      <trkpt lat="45.09095" lon="5.61187">
        <ele>1713</ele>
        <time>2013-03-09T15:45:17.000Z</time>
      </trkpt>
      <trkpt lat="45.091" lon="5.61182">
        <ele>1713</ele>
        <time>2013-03-09T15:45:18.000Z</time>
      </trkpt>
      <trkpt lat="45.09102" lon="5.61178">
        <ele>1712</ele>
        <time>2013-03-09T15:45:19.000Z</time>
      </trkpt>
      <trkpt lat="45.09137" lon="5.61086">
        <ele>1693</ele>
        <time>2013-03-09T15:45:27.000Z</time>
      </trkpt>
      <trkpt lat="45.09128" lon="5.61049">
        <ele>1679</ele>
        <time>2013-03-09T15:45:30.000Z</time>
      </trkpt>
      <trkpt lat="45.09123" lon="5.61044">
        <ele>1679</ele>
        <time>2013-03-09T15:45:31.000Z</time>
      </trkpt>
      <trkpt lat="45.09121" lon="5.61044">
        <ele>1679</ele>
        <time>2013-03-09T15:45:34.000Z</time>
      </trkpt>
      <trkpt lat="45.09119" lon="5.61046">
        <ele>1679</ele>
        <time>2013-03-09T15:45:35.000Z</time>
      </trkpt>
      <trkpt lat="45.09119" lon="5.61045">
        <ele>1679</ele>
        <time>2013-03-09T15:45:39.000Z</time>
      </trkpt>
      <trkpt lat="45.09169" lon="5.61007">
        <ele>1666</ele>
        <time>2013-03-09T15:45:46.000Z</time>
      </trkpt>
      <trkpt lat="45.09182" lon="5.60992">
        <ele>1659</ele>
        <time>2013-03-09T15:45:48.000Z</time>
      </trkpt>
      <trkpt lat="45.09189" lon="5.60988">
        <ele>1657</ele>
        <time>2013-03-09T15:45:49.000Z</time>
      </trkpt>
      <trkpt lat="45.09203" lon="5.60979">
        <ele>1655</ele>
        <time>2013-03-09T15:45:50.000Z</time>
      </trkpt>
      <trkpt lat="45.0921" lon="5.60965">
        <ele>1654</ele>
        <time>2013-03-09T15:45:51.000Z</time>
      </trkpt>
      <trkpt lat="45.09218" lon="5.60954">
        <ele>1652</ele>
        <time>2013-03-09T15:45:52.000Z</time>
      </trkpt>
      <trkpt lat="45.09224" lon="5.60939">
        <ele>1651</ele>
        <time>2013-03-09T15:45:53.000Z</time>
      </trkpt>
      <trkpt lat="45.09231" lon="5.60929">
        <ele>1650</ele>
        <time>2013-03-09T15:45:54.000Z</time>
      </trkpt>
      <trkpt lat="45.09235" lon="5.60918">
        <ele>1648</ele>
        <time>2013-03-09T15:45:55.000Z</time>
      </trkpt>
      <trkpt lat="45.09243" lon="5.60908">
        <ele>1644</ele>
        <time>2013-03-09T15:45:56.000Z</time>
      </trkpt>
      <trkpt lat="45.09251" lon="5.60901">
        <ele>1642</ele>
        <time>2013-03-09T15:45:57.000Z</time>
      </trkpt>
      <trkpt lat="45.09298" lon="5.60854">
        <ele>1636</ele>
        <time>2013-03-09T15:46:04.000Z</time>
      </trkpt>
      <trkpt lat="45.09308" lon="5.60848">
        <ele>1634</ele>
        <time>2013-03-09T15:46:06.000Z</time>
      </trkpt>
      <trkpt lat="45.09308" lon="5.60848">
        <ele>1634</ele>
        <time>2013-03-09T15:46:07.000Z</time>
      </trkpt>
      <trkpt lat="45.09302" lon="5.60849">
        <ele>1635</ele>
        <time>2013-03-09T15:46:08.000Z</time>
      </trkpt>
      <trkpt lat="45.09301" lon="5.60855">
        <ele>1635</ele>
        <time>2013-03-09T15:46:12.000Z</time>
      </trkpt>
      <trkpt lat="45.09304" lon="5.60855">
        <ele>1635</ele>
        <time>2013-03-09T15:46:13.000Z</time>
      </trkpt>
      <trkpt lat="45.0931" lon="5.60853">
        <ele>1634</ele>
        <time>2013-03-09T15:46:14.000Z</time>
      </trkpt>
      <trkpt lat="45.09313" lon="5.60853">
        <ele>1634</ele>
        <time>2013-03-09T15:46:15.000Z</time>
      </trkpt>
      <trkpt lat="45.09318" lon="5.6085">
        <ele>1633</ele>
        <time>2013-03-09T15:46:17.000Z</time>
      </trkpt>
      <trkpt lat="45.09321" lon="5.60846">
        <ele>1632</ele>
        <time>2013-03-09T15:46:19.000Z</time>
      </trkpt>
      <trkpt lat="45.09321" lon="5.60843">
        <ele>1632</ele>
        <time>2013-03-09T15:46:20.000Z</time>
      </trkpt>
      <trkpt lat="45.09323" lon="5.6084">
        <ele>1631</ele>
        <time>2013-03-09T15:46:21.000Z</time>
      </trkpt>
      <trkpt lat="45.09325" lon="5.60836">
        <ele>1630</ele>
        <time>2013-03-09T15:46:22.000Z</time>
      </trkpt>
      <trkpt lat="45.09326" lon="5.60834">
        <ele>1630</ele>
        <time>2013-03-09T15:46:23.000Z</time>
      </trkpt>
      <trkpt lat="45.09329" lon="5.60831">
        <ele>1625</ele>
        <time>2013-03-09T15:46:24.000Z</time>
      </trkpt>
      <trkpt lat="45.09331" lon="5.60829">
        <ele>1624</ele>
        <time>2013-03-09T15:46:25.000Z</time>
      </trkpt>
      <trkpt lat="45.09335" lon="5.60828">
        <ele>1622</ele>
        <time>2013-03-09T15:46:26.000Z</time>
      </trkpt>
      <trkpt lat="45.09337" lon="5.60826">
        <ele>1620</ele>
        <time>2013-03-09T15:46:27.000Z</time>
      </trkpt>
      <trkpt lat="45.09339" lon="5.60825">
        <ele>1619</ele>
        <time>2013-03-09T15:46:28.000Z</time>
      </trkpt>
      <trkpt lat="45.09363" lon="5.60817">
        <ele>1609</ele>
        <time>2013-03-09T15:46:35.000Z</time>
      </trkpt>
      <trkpt lat="45.09366" lon="5.60814">
        <ele>1608</ele>
        <time>2013-03-09T15:46:41.000Z</time>
      </trkpt>
      <trkpt lat="45.09364" lon="5.60811">
        <ele>1608</ele>
        <time>2013-03-09T15:46:42.000Z</time>
      </trkpt>
      <trkpt lat="45.0936" lon="5.60809">
        <ele>1608</ele>
        <time>2013-03-09T15:46:44.000Z</time>
      </trkpt>
      <trkpt lat="45.09357" lon="5.60809">
        <ele>1608</ele>
        <time>2013-03-09T15:46:45.000Z</time>
      </trkpt>
      <trkpt lat="45.09355" lon="5.60808">
        <ele>1608</ele>
        <time>2013-03-09T15:46:53.000Z</time>
      </trkpt>
      <trkpt lat="45.09362" lon="5.60808">
        <ele>1607</ele>
        <time>2013-03-09T15:46:55.000Z</time>
      </trkpt>
      <trkpt lat="45.09366" lon="5.60809">
        <ele>1607</ele>
        <time>2013-03-09T15:46:56.000Z</time>
      </trkpt>
      <trkpt lat="45.09369" lon="5.60809">
        <ele>1607</ele>
        <time>2013-03-09T15:46:57.000Z</time>
      </trkpt>
      <trkpt lat="45.09374" lon="5.60805">
        <ele>1606</ele>
        <time>2013-03-09T15:46:58.000Z</time>
      </trkpt>
      <trkpt lat="45.09377" lon="5.60802">
        <ele>1605</ele>
        <time>2013-03-09T15:46:59.000Z</time>
      </trkpt>
      <trkpt lat="45.09378" lon="5.60797">
        <ele>1604</ele>
        <time>2013-03-09T15:47:00.000Z</time>
      </trkpt>
      <trkpt lat="45.09381" lon="5.6079">
        <ele>1602</ele>
        <time>2013-03-09T15:47:01.000Z</time>
      </trkpt>
      <trkpt lat="45.09386" lon="5.60786">
        <ele>1601</ele>
        <time>2013-03-09T15:47:02.000Z</time>
      </trkpt>
      <trkpt lat="45.09391" lon="5.6078">
        <ele>1599</ele>
        <time>2013-03-09T15:47:03.000Z</time>
      </trkpt>
      <trkpt lat="45.09394" lon="5.60774">
        <ele>1597</ele>
        <time>2013-03-09T15:47:04.000Z</time>
      </trkpt>
      <trkpt lat="45.09391" lon="5.60768">
        <ele>1596</ele>
        <time>2013-03-09T15:47:11.000Z</time>
      </trkpt>
      <trkpt lat="45.09391" lon="5.60766">
        <ele>1596</ele>
        <time>2013-03-09T15:47:16.000Z</time>
      </trkpt>
      <trkpt lat="45.09395" lon="5.60764">
        <ele>1595</ele>
        <time>2013-03-09T15:47:18.000Z</time>
      </trkpt>
      <trkpt lat="45.09398" lon="5.6076">
        <ele>1593</ele>
        <time>2013-03-09T15:47:22.000Z</time>
      </trkpt>
      <trkpt lat="45.09399" lon="5.60759">
        <ele>1593</ele>
        <time>2013-03-09T15:47:23.000Z</time>
      </trkpt>
      <trkpt lat="45.09402" lon="5.60757">
        <ele>1591</ele>
        <time>2013-03-09T15:47:25.000Z</time>
      </trkpt>
      <trkpt lat="45.09404" lon="5.60753">
        <ele>1590</ele>
        <time>2013-03-09T15:47:26.000Z</time>
      </trkpt>
      <trkpt lat="45.09405" lon="5.60749">
        <ele>1575</ele>
        <time>2013-03-09T15:47:27.000Z</time>
      </trkpt>
      <trkpt lat="45.09411" lon="5.60722">
        <ele>1567</ele>
        <time>2013-03-09T15:47:34.000Z</time>
      </trkpt>
      <trkpt lat="45.09416" lon="5.60713">
        <ele>1564</ele>
        <time>2013-03-09T15:47:36.000Z</time>
      </trkpt>
      <trkpt lat="45.09419" lon="5.60712">
        <ele>1561</ele>
        <time>2013-03-09T15:47:37.000Z</time>
      </trkpt>
      <trkpt lat="45.09423" lon="5.60709">
        <ele>1560</ele>
        <time>2013-03-09T15:47:38.000Z</time>
      </trkpt>
      <trkpt lat="45.09425" lon="5.60709">
        <ele>1560</ele>
        <time>2013-03-09T15:47:39.000Z</time>
      </trkpt>
      <trkpt lat="45.09429" lon="5.60707">
        <ele>1559</ele>
        <time>2013-03-09T15:47:40.000Z</time>
      </trkpt>
      <trkpt lat="45.09432" lon="5.60705">
        <ele>1559</ele>
        <time>2013-03-09T15:47:41.000Z</time>
      </trkpt>
      <trkpt lat="45.09436" lon="5.60703">
        <ele>1558</ele>
        <time>2013-03-09T15:47:42.000Z</time>
      </trkpt>
      <trkpt lat="45.09439" lon="5.60697">
        <ele>1556</ele>
        <time>2013-03-09T15:47:43.000Z</time>
      </trkpt>
      <trkpt lat="45.09438" lon="5.6069">
        <ele>1554</ele>
        <time>2013-03-09T15:47:44.000Z</time>
      </trkpt>
      <trkpt lat="45.09434" lon="5.60686">
        <ele>1553</ele>
        <time>2013-03-09T15:47:45.000Z</time>
      </trkpt>
      <trkpt lat="45.09417" lon="5.60685">
        <ele>1551</ele>
        <time>2013-03-09T15:47:52.000Z</time>
      </trkpt>
      <trkpt lat="45.09413" lon="5.60688">
        <ele>1555</ele>
        <time>2013-03-09T15:47:57.000Z</time>
      </trkpt>
      <trkpt lat="45.09413" lon="5.60688">
        <ele>1555</ele>
        <time>2013-03-09T15:47:58.000Z</time>
      </trkpt>
      <trkpt lat="45.09413" lon="5.60687">
        <ele>1554</ele>
        <time>2013-03-09T15:48:02.000Z</time>
      </trkpt>
      <trkpt lat="45.09416" lon="5.60683">
        <ele>1552</ele>
        <time>2013-03-09T15:48:03.000Z</time>
      </trkpt>
      <trkpt lat="45.09424" lon="5.60662">
        <ele>1536</ele>
        <time>2013-03-09T15:48:10.000Z</time>
      </trkpt>
      <trkpt lat="45.09422" lon="5.60659">
        <ele>1536</ele>
        <time>2013-03-09T15:48:13.000Z</time>
      </trkpt>
      <trkpt lat="45.0942" lon="5.60658">
        <ele>1536</ele>
        <time>2013-03-09T15:48:14.000Z</time>
      </trkpt>
      <trkpt lat="45.09423" lon="5.6066">
        <ele>1536</ele>
        <time>2013-03-09T15:48:16.000Z</time>
      </trkpt>
      <trkpt lat="45.09425" lon="5.60659">
        <ele>1535</ele>
        <time>2013-03-09T15:48:18.000Z</time>
      </trkpt>
      <trkpt lat="45.09422" lon="5.60656">
        <ele>1535</ele>
        <time>2013-03-09T15:48:39.000Z</time>
      </trkpt>
      <trkpt lat="45.09419" lon="5.60653">
        <ele>1534</ele>
        <time>2013-03-09T15:48:40.000Z</time>
      </trkpt>
      <trkpt lat="45.09417" lon="5.60649">
        <ele>1532</ele>
        <time>2013-03-09T15:48:41.000Z</time>
      </trkpt>
      <trkpt lat="45.09417" lon="5.60645">
        <ele>1531</ele>
        <time>2013-03-09T15:48:42.000Z</time>
      </trkpt>
      <trkpt lat="45.09416" lon="5.60639">
        <ele>1531</ele>
        <time>2013-03-09T15:48:45.000Z</time>
      </trkpt>
      <trkpt lat="45.09415" lon="5.60639">
        <ele>1531</ele>
        <time>2013-03-09T15:48:52.000Z</time>
      </trkpt>
      <trkpt lat="45.09413" lon="5.60634">
        <ele>1530</ele>
        <time>2013-03-09T15:49:18.000Z</time>
      </trkpt>
      <trkpt lat="45.09413" lon="5.6063">
        <ele>1529</ele>
        <time>2013-03-09T15:49:19.000Z</time>
      </trkpt>
      <trkpt lat="45.09416" lon="5.60627">
        <ele>1528</ele>
        <time>2013-03-09T15:49:20.000Z</time>
      </trkpt>
      <trkpt lat="45.09418" lon="5.60624">
        <ele>1525</ele>
        <time>2013-03-09T15:49:21.000Z</time>
      </trkpt>
      <trkpt lat="45.09417" lon="5.60618">
        <ele>1526</ele>
        <time>2013-03-09T15:49:25.000Z</time>
      </trkpt>
      <trkpt lat="45.09417" lon="5.60618">
        <ele>1526</ele>
        <time>2013-03-09T15:49:26.000Z</time>
      </trkpt>
      <trkpt lat="45.09417" lon="5.60617">
        <ele>1526</ele>
        <time>2013-03-09T15:49:27.000Z</time>
      </trkpt>
      <trkpt lat="45.09424" lon="5.60617">
        <ele>1523</ele>
        <time>2013-03-09T15:49:34.000Z</time>
      </trkpt>
      <trkpt lat="45.09424" lon="5.60611">
        <ele>1521</ele>
        <time>2013-03-09T15:50:05.000Z</time>
      </trkpt>
      <trkpt lat="45.09426" lon="5.60609">
        <ele>1521</ele>
        <time>2013-03-09T15:50:06.000Z</time>
      </trkpt>
      <trkpt lat="45.09429" lon="5.60606">
        <ele>1520</ele>
        <time>2013-03-09T15:50:07.000Z</time>
      </trkpt>
      <trkpt lat="45.09432" lon="5.60605">
        <ele>1520</ele>
        <time>2013-03-09T15:50:08.000Z</time>
      </trkpt>
      <trkpt lat="45.0943" lon="5.6059">
        <ele>1517</ele>
        <time>2013-03-09T15:50:15.000Z</time>
      </trkpt>
      <trkpt lat="45.09427" lon="5.60587">
        <ele>1516</ele>
        <time>2013-03-09T15:50:17.000Z</time>
      </trkpt>
      <trkpt lat="45.09425" lon="5.60582">
        <ele>1508</ele>
        <time>2013-03-09T15:50:18.000Z</time>
      </trkpt>
      <trkpt lat="45.09423" lon="5.60579">
        <ele>1508</ele>
        <time>2013-03-09T15:50:19.000Z</time>
      </trkpt>
      <trkpt lat="45.09422" lon="5.60577">
        <ele>1508</ele>
        <time>2013-03-09T15:50:20.000Z</time>
      </trkpt>
      <trkpt lat="45.09421" lon="5.60574">
        <ele>1507</ele>
        <time>2013-03-09T15:50:26.000Z</time>
      </trkpt>
      <trkpt lat="45.09418" lon="5.60562">
        <ele>1504</ele>
        <time>2013-03-09T15:50:33.000Z</time>
      </trkpt>
      <trkpt lat="45.09417" lon="5.60559">
        <ele>1507</ele>
        <time>2013-03-09T15:50:35.000Z</time>
      </trkpt>
      <trkpt lat="45.09418" lon="5.60556">
        <ele>1502</ele>
        <time>2013-03-09T15:50:36.000Z</time>
      </trkpt>
      <trkpt lat="45.0942" lon="5.60551">
        <ele>1501</ele>
        <time>2013-03-09T15:50:39.000Z</time>
      </trkpt>
      <trkpt lat="45.0942" lon="5.60549">
        <ele>1501</ele>
        <time>2013-03-09T15:50:40.000Z</time>
      </trkpt>
      <trkpt lat="45.09417" lon="5.60551">
        <ele>1505</ele>
        <time>2013-03-09T15:51:09.000Z</time>
      </trkpt>
      <trkpt lat="45.09413" lon="5.60536">
        <ele>1503</ele>
        <time>2013-03-09T15:51:11.000Z</time>
      </trkpt>
      <trkpt lat="45.09412" lon="5.60528">
        <ele>1501</ele>
        <time>2013-03-09T15:51:12.000Z</time>
      </trkpt>
      <trkpt lat="45.09411" lon="5.60523">
        <ele>1500</ele>
        <time>2013-03-09T15:51:13.000Z</time>
      </trkpt>
      <trkpt lat="45.09409" lon="5.6052">
        <ele>1500</ele>
        <time>2013-03-09T15:51:14.000Z</time>
      </trkpt>
      <trkpt lat="45.0941" lon="5.60514">
        <ele>1498</ele>
        <time>2013-03-09T15:51:15.000Z</time>
      </trkpt>
      <trkpt lat="45.09408" lon="5.60497">
        <ele>1490</ele>
        <time>2013-03-09T15:51:18.000Z</time>
      </trkpt>
      <trkpt lat="45.09405" lon="5.60487">
        <ele>1489</ele>
        <time>2013-03-09T15:51:20.000Z</time>
      </trkpt>
      <trkpt lat="45.094" lon="5.60481">
        <ele>1488</ele>
        <time>2013-03-09T15:51:21.000Z</time>
      </trkpt>
      <trkpt lat="45.09396" lon="5.60477">
        <ele>1488</ele>
        <time>2013-03-09T15:51:22.000Z</time>
      </trkpt>
      <trkpt lat="45.09394" lon="5.6047">
        <ele>1487</ele>
        <time>2013-03-09T15:51:23.000Z</time>
      </trkpt>
      <trkpt lat="45.09391" lon="5.60458">
        <ele>1486</ele>
        <time>2013-03-09T15:51:24.000Z</time>
      </trkpt>
      <trkpt lat="45.09391" lon="5.60447">
        <ele>1484</ele>
        <time>2013-03-09T15:51:25.000Z</time>
      </trkpt>
      <trkpt lat="45.0939" lon="5.60441">
        <ele>1484</ele>
        <time>2013-03-09T15:51:26.000Z</time>
      </trkpt>
      <trkpt lat="45.09388" lon="5.60434">
        <ele>1483</ele>
        <time>2013-03-09T15:51:27.000Z</time>
      </trkpt>
      <trkpt lat="45.09388" lon="5.60427">
        <ele>1482</ele>
        <time>2013-03-09T15:51:28.000Z</time>
      </trkpt>
      <trkpt lat="45.09387" lon="5.60421">
        <ele>1482</ele>
        <time>2013-03-09T15:51:29.000Z</time>
      </trkpt>
      <trkpt lat="45.09375" lon="5.60392">
        <ele>1473</ele>
        <time>2013-03-09T15:51:36.000Z</time>
      </trkpt>
      <trkpt lat="45.09378" lon="5.60394">
        <ele>1473</ele>
        <time>2013-03-09T15:51:40.000Z</time>
      </trkpt>
      <trkpt lat="45.09379" lon="5.60394">
        <ele>1473</ele>
        <time>2013-03-09T15:51:41.000Z</time>
      </trkpt>
      <trkpt lat="45.0938" lon="5.60389">
        <ele>1472</ele>
        <time>2013-03-09T15:51:45.000Z</time>
      </trkpt>
      <trkpt lat="45.09381" lon="5.60385">
        <ele>1472</ele>
        <time>2013-03-09T15:51:46.000Z</time>
      </trkpt>
      <trkpt lat="45.09382" lon="5.6038">
        <ele>1472</ele>
        <time>2013-03-09T15:51:47.000Z</time>
      </trkpt>
      <trkpt lat="45.09385" lon="5.60375">
        <ele>1471</ele>
        <time>2013-03-09T15:51:48.000Z</time>
      </trkpt>
      <trkpt lat="45.09398" lon="5.60314">
        <ele>1461</ele>
        <time>2013-03-09T15:51:56.000Z</time>
      </trkpt>
      <trkpt lat="45.09413" lon="5.60291">
        <ele>1460</ele>
        <time>2013-03-09T15:51:59.000Z</time>
      </trkpt>
      <trkpt lat="45.09423" lon="5.60286">
        <ele>1453</ele>
        <time>2013-03-09T15:52:00.000Z</time>
      </trkpt>
      <trkpt lat="45.09431" lon="5.60284">
        <ele>1453</ele>
        <time>2013-03-09T15:52:01.000Z</time>
      </trkpt>
      <trkpt lat="45.0944" lon="5.60286">
        <ele>1452</ele>
        <time>2013-03-09T15:52:02.000Z</time>
      </trkpt>
      <trkpt lat="45.09446" lon="5.60294">
        <ele>1452</ele>
        <time>2013-03-09T15:52:03.000Z</time>
      </trkpt>
      <trkpt lat="45.09449" lon="5.60298">
        <ele>1452</ele>
        <time>2013-03-09T15:52:04.000Z</time>
      </trkpt>
      <trkpt lat="45.0945" lon="5.60296">
        <ele>1452</ele>
        <time>2013-03-09T15:52:08.000Z</time>
      </trkpt>
      <trkpt lat="45.09463" lon="5.60282">
        <ele>1451</ele>
        <time>2013-03-09T15:52:16.000Z</time>
      </trkpt>
      <trkpt lat="45.09476" lon="5.60288">
        <ele>1450</ele>
        <time>2013-03-09T15:52:19.000Z</time>
      </trkpt>
      <trkpt lat="45.09481" lon="5.6029">
        <ele>1450</ele>
        <time>2013-03-09T15:52:20.000Z</time>
      </trkpt>
      <trkpt lat="45.09485" lon="5.60293">
        <ele>1449</ele>
        <time>2013-03-09T15:52:21.000Z</time>
      </trkpt>
      <trkpt lat="45.09491" lon="5.60295">
        <ele>1449</ele>
        <time>2013-03-09T15:52:22.000Z</time>
      </trkpt>
      <trkpt lat="45.09493" lon="5.60296">
        <ele>1449</ele>
        <time>2013-03-09T15:52:24.000Z</time>
      </trkpt>
      <trkpt lat="45.09481" lon="5.60298">
        <ele>1450</ele>
        <time>2013-03-09T15:52:25.000Z</time>
      </trkpt>
      <trkpt lat="45.09479" lon="5.60294">
        <ele>1450</ele>
        <time>2013-03-09T15:52:42.000Z</time>
      </trkpt>
      <trkpt lat="45.09481" lon="5.60291">
        <ele>1450</ele>
        <time>2013-03-09T15:52:43.000Z</time>
      </trkpt>
      <trkpt lat="45.09483" lon="5.60289">
        <ele>1449</ele>
        <time>2013-03-09T15:52:44.000Z</time>
      </trkpt>
      <trkpt lat="45.09486" lon="5.60286">
        <ele>1449</ele>
        <time>2013-03-09T15:52:45.000Z</time>
      </trkpt>
      <trkpt lat="45.0949" lon="5.60284">
        <ele>1449</ele>
        <time>2013-03-09T15:52:46.000Z</time>
      </trkpt>
      <trkpt lat="45.09543" lon="5.60291">
        <ele>1438</ele>
        <time>2013-03-09T15:52:53.000Z</time>
      </trkpt>
      <trkpt lat="45.09557" lon="5.60295">
        <ele>1437</ele>
        <time>2013-03-09T15:52:55.000Z</time>
      </trkpt>
      <trkpt lat="45.09563" lon="5.60295">
        <ele>1436</ele>
        <time>2013-03-09T15:52:56.000Z</time>
      </trkpt>
      <trkpt lat="45.0957" lon="5.60297">
        <ele>1436</ele>
        <time>2013-03-09T15:52:57.000Z</time>
      </trkpt>
      <trkpt lat="45.09577" lon="5.60297">
        <ele>1435</ele>
        <time>2013-03-09T15:52:58.000Z</time>
      </trkpt>
      <trkpt lat="45.09582" lon="5.603">
        <ele>1435</ele>
        <time>2013-03-09T15:52:59.000Z</time>
      </trkpt>
      <trkpt lat="45.09591" lon="5.60301">
        <ele>1429</ele>
        <time>2013-03-09T15:53:00.000Z</time>
      </trkpt>
      <trkpt lat="45.09599" lon="5.60304">
        <ele>1429</ele>
        <time>2013-03-09T15:53:01.000Z</time>
      </trkpt>
      <trkpt lat="45.09604" lon="5.60305">
        <ele>1429</ele>
        <time>2013-03-09T15:53:02.000Z</time>
      </trkpt>
      <trkpt lat="45.09612" lon="5.60306">
        <ele>1429</ele>
        <time>2013-03-09T15:53:03.000Z</time>
      </trkpt>
      <trkpt lat="45.09621" lon="5.6031">
        <ele>1429</ele>
        <time>2013-03-09T15:53:04.000Z</time>
      </trkpt>
      <trkpt lat="45.0968" lon="5.60313">
        <ele>1423</ele>
        <time>2013-03-09T15:53:12.000Z</time>
      </trkpt>
      <trkpt lat="45.09699" lon="5.60315">
        <ele>1423</ele>
        <time>2013-03-09T15:53:15.000Z</time>
      </trkpt>
      <trkpt lat="45.09705" lon="5.60315">
        <ele>1422</ele>
        <time>2013-03-09T15:53:16.000Z</time>
      </trkpt>
      <trkpt lat="45.09711" lon="5.60318">
        <ele>1422</ele>
        <time>2013-03-09T15:53:17.000Z</time>
      </trkpt>
      <trkpt lat="45.09715" lon="5.60318">
        <ele>1422</ele>
        <time>2013-03-09T15:53:18.000Z</time>
      </trkpt>
      <trkpt lat="45.09721" lon="5.60317">
        <ele>1421</ele>
        <time>2013-03-09T15:53:19.000Z</time>
      </trkpt>
      <trkpt lat="45.09727" lon="5.60319">
        <ele>1420</ele>
        <time>2013-03-09T15:53:20.000Z</time>
      </trkpt>
      <trkpt lat="45.09733" lon="5.6032">
        <ele>1420</ele>
        <time>2013-03-09T15:53:21.000Z</time>
      </trkpt>
      <trkpt lat="45.09741" lon="5.60318">
        <ele>1419</ele>
        <time>2013-03-09T15:53:22.000Z</time>
      </trkpt>
      <trkpt lat="45.09748" lon="5.60318">
        <ele>1418</ele>
        <time>2013-03-09T15:53:23.000Z</time>
      </trkpt>
      <trkpt lat="45.09756" lon="5.60317">
        <ele>1412</ele>
        <time>2013-03-09T15:53:24.000Z</time>
      </trkpt>
      <trkpt lat="45.09821" lon="5.60306">
        <ele>1404</ele>
        <time>2013-03-09T15:53:32.000Z</time>
      </trkpt>
      <trkpt lat="45.09847" lon="5.60298">
        <ele>1394</ele>
        <time>2013-03-09T15:53:35.000Z</time>
      </trkpt>
      <trkpt lat="45.09854" lon="5.60295">
        <ele>1394</ele>
        <time>2013-03-09T15:53:36.000Z</time>
      </trkpt>
      <trkpt lat="45.09862" lon="5.60295">
        <ele>1393</ele>
        <time>2013-03-09T15:53:37.000Z</time>
      </trkpt>
      <trkpt lat="45.09868" lon="5.60296">
        <ele>1393</ele>
        <time>2013-03-09T15:53:38.000Z</time>
      </trkpt>
      <trkpt lat="45.09876" lon="5.60298">
        <ele>1392</ele>
        <time>2013-03-09T15:53:39.000Z</time>
      </trkpt>
      <trkpt lat="45.09884" lon="5.60299">
        <ele>1392</ele>
        <time>2013-03-09T15:53:40.000Z</time>
      </trkpt>
      <trkpt lat="45.0989" lon="5.60302">
        <ele>1391</ele>
        <time>2013-03-09T15:53:41.000Z</time>
      </trkpt>
      <trkpt lat="45.09897" lon="5.60303">
        <ele>1390</ele>
        <time>2013-03-09T15:53:42.000Z</time>
      </trkpt>
      <trkpt lat="45.09905" lon="5.60305">
        <ele>1390</ele>
        <time>2013-03-09T15:53:43.000Z</time>
      </trkpt>
      <trkpt lat="45.09914" lon="5.60308">
        <ele>1389</ele>
        <time>2013-03-09T15:53:44.000Z</time>
      </trkpt>
      <trkpt lat="45.0998" lon="5.60309">
        <ele>1380</ele>
        <time>2013-03-09T15:53:52.000Z</time>
      </trkpt>
      <trkpt lat="45.10006" lon="5.60312">
        <ele>1371</ele>
        <time>2013-03-09T15:53:55.000Z</time>
      </trkpt>
      <trkpt lat="45.10014" lon="5.60314">
        <ele>1371</ele>
        <time>2013-03-09T15:53:56.000Z</time>
      </trkpt>
      <trkpt lat="45.10024" lon="5.60315">
        <ele>1370</ele>
        <time>2013-03-09T15:53:57.000Z</time>
      </trkpt>
      <trkpt lat="45.10034" lon="5.60316">
        <ele>1369</ele>
        <time>2013-03-09T15:53:58.000Z</time>
      </trkpt>
      <trkpt lat="45.10044" lon="5.60317">
        <ele>1368</ele>
        <time>2013-03-09T15:53:59.000Z</time>
      </trkpt>
      <trkpt lat="45.10055" lon="5.60319">
        <ele>1367</ele>
        <time>2013-03-09T15:54:00.000Z</time>
      </trkpt>
      <trkpt lat="45.10061" lon="5.60319">
        <ele>1366</ele>
        <time>2013-03-09T15:54:01.000Z</time>
      </trkpt>
      <trkpt lat="45.10071" lon="5.6032">
        <ele>1364</ele>
        <time>2013-03-09T15:54:02.000Z</time>
      </trkpt>
      <trkpt lat="45.1008" lon="5.60322">
        <ele>1362</ele>
        <time>2013-03-09T15:54:03.000Z</time>
      </trkpt>
      <trkpt lat="45.10089" lon="5.60323">
        <ele>1359</ele>
        <time>2013-03-09T15:54:04.000Z</time>
      </trkpt>
      <trkpt lat="45.10146" lon="5.60325">
        <ele>1358</ele>
        <time>2013-03-09T15:54:12.000Z</time>
      </trkpt>
      <trkpt lat="45.10163" lon="5.60326">
        <ele>1355</ele>
        <time>2013-03-09T15:54:15.000Z</time>
      </trkpt>
      <trkpt lat="45.10169" lon="5.60325">
        <ele>1354</ele>
        <time>2013-03-09T15:54:16.000Z</time>
      </trkpt>
      <trkpt lat="45.10176" lon="5.60324">
        <ele>1355</ele>
        <time>2013-03-09T15:54:17.000Z</time>
      </trkpt>
      <trkpt lat="45.10184" lon="5.60325">
        <ele>1356</ele>
        <time>2013-03-09T15:54:18.000Z</time>
      </trkpt>
      <trkpt lat="45.1019" lon="5.60327">
        <ele>1356</ele>
        <time>2013-03-09T15:54:19.000Z</time>
      </trkpt>
      <trkpt lat="45.10199" lon="5.60325">
        <ele>1356</ele>
        <time>2013-03-09T15:54:20.000Z</time>
      </trkpt>
      <trkpt lat="45.10206" lon="5.60326">
        <ele>1356</ele>
        <time>2013-03-09T15:54:21.000Z</time>
      </trkpt>
      <trkpt lat="45.10214" lon="5.60329">
        <ele>1356</ele>
        <time>2013-03-09T15:54:22.000Z</time>
      </trkpt>
      <trkpt lat="45.10221" lon="5.60329">
        <ele>1355</ele>
        <time>2013-03-09T15:54:23.000Z</time>
      </trkpt>
      <trkpt lat="45.10227" lon="5.60328">
        <ele>1355</ele>
        <time>2013-03-09T15:54:24.000Z</time>
      </trkpt>
      <trkpt lat="45.10288" lon="5.60332">
        <ele>1350</ele>
        <time>2013-03-09T15:54:32.000Z</time>
      </trkpt>
      <trkpt lat="45.10306" lon="5.60337">
        <ele>1343</ele>
        <time>2013-03-09T15:54:35.000Z</time>
      </trkpt>
      <trkpt lat="45.10309" lon="5.6034">
        <ele>1343</ele>
        <time>2013-03-09T15:54:36.000Z</time>
      </trkpt>
      <trkpt lat="45.10313" lon="5.60343">
        <ele>1343</ele>
        <time>2013-03-09T15:54:37.000Z</time>
      </trkpt>
      <trkpt lat="45.10315" lon="5.60344">
        <ele>1342</ele>
        <time>2013-03-09T15:54:38.000Z</time>
      </trkpt>
      <trkpt lat="45.10318" lon="5.60349">
        <ele>1342</ele>
        <time>2013-03-09T15:54:39.000Z</time>
      </trkpt>
      <trkpt lat="45.10323" lon="5.60355">
        <ele>1343</ele>
        <time>2013-03-09T15:54:40.000Z</time>
      </trkpt>
      <trkpt lat="45.10329" lon="5.60359">
        <ele>1343</ele>
        <time>2013-03-09T15:54:41.000Z</time>
      </trkpt>
      <trkpt lat="45.10335" lon="5.60361">
        <ele>1334</ele>
        <time>2013-03-09T15:54:42.000Z</time>
      </trkpt>
      <trkpt lat="45.10341" lon="5.60362">
        <ele>1334</ele>
        <time>2013-03-09T15:54:43.000Z</time>
      </trkpt>
      <trkpt lat="45.10347" lon="5.60365">
        <ele>1334</ele>
        <time>2013-03-09T15:54:44.000Z</time>
      </trkpt>
      <trkpt lat="45.10389" lon="5.60383">
        <ele>1330</ele>
        <time>2013-03-09T15:54:52.000Z</time>
      </trkpt>
      <trkpt lat="45.10399" lon="5.60387">
        <ele>1329</ele>
        <time>2013-03-09T15:54:55.000Z</time>
      </trkpt>
      <trkpt lat="45.10402" lon="5.6039">
        <ele>1329</ele>
        <time>2013-03-09T15:54:56.000Z</time>
      </trkpt>
      <trkpt lat="45.10405" lon="5.60396">
        <ele>1328</ele>
        <time>2013-03-09T15:54:57.000Z</time>
      </trkpt>
      <trkpt lat="45.10413" lon="5.60393">
        <ele>1328</ele>
        <time>2013-03-09T15:54:58.000Z</time>
      </trkpt>
      <trkpt lat="45.10419" lon="5.60391">
        <ele>1321</ele>
        <time>2013-03-09T15:54:59.000Z</time>
      </trkpt>
      <trkpt lat="45.10425" lon="5.60389">
        <ele>1321</ele>
        <time>2013-03-09T15:55:00.000Z</time>
      </trkpt>
      <trkpt lat="45.10434" lon="5.60383">
        <ele>1321</ele>
        <time>2013-03-09T15:55:01.000Z</time>
      </trkpt>
      <trkpt lat="45.1044" lon="5.60381">
        <ele>1320</ele>
        <time>2013-03-09T15:55:02.000Z</time>
      </trkpt>
      <trkpt lat="45.10446" lon="5.60379">
        <ele>1320</ele>
        <time>2013-03-09T15:55:03.000Z</time>
      </trkpt>
      <trkpt lat="45.10454" lon="5.60376">
        <ele>1320</ele>
        <time>2013-03-09T15:55:04.000Z</time>
      </trkpt>
      <trkpt lat="45.10504" lon="5.60384">
        <ele>1313</ele>
        <time>2013-03-09T15:55:12.000Z</time>
      </trkpt>
      <trkpt lat="45.10525" lon="5.60385">
        <ele>1312</ele>
        <time>2013-03-09T15:55:15.000Z</time>
      </trkpt>
      <trkpt lat="45.10534" lon="5.60386">
        <ele>1311</ele>
        <time>2013-03-09T15:55:16.000Z</time>
      </trkpt>
      <trkpt lat="45.1054" lon="5.60388">
        <ele>1311</ele>
        <time>2013-03-09T15:55:17.000Z</time>
      </trkpt>
      <trkpt lat="45.1055" lon="5.6039">
        <ele>1310</ele>
        <time>2013-03-09T15:55:18.000Z</time>
      </trkpt>
      <trkpt lat="45.10555" lon="5.60394">
        <ele>1310</ele>
        <time>2013-03-09T15:55:19.000Z</time>
      </trkpt>
      <trkpt lat="45.1056" lon="5.60395">
        <ele>1309</ele>
        <time>2013-03-09T15:55:20.000Z</time>
      </trkpt>
      <trkpt lat="45.10565" lon="5.60396">
        <ele>1308</ele>
        <time>2013-03-09T15:55:21.000Z</time>
      </trkpt>
      <trkpt lat="45.10569" lon="5.60398">
        <ele>1308</ele>
        <time>2013-03-09T15:55:22.000Z</time>
      </trkpt>
      <trkpt lat="45.10576" lon="5.60397">
        <ele>1307</ele>
        <time>2013-03-09T15:55:23.000Z</time>
      </trkpt>
      <trkpt lat="45.10581" lon="5.60401">
        <ele>1306</ele>
        <time>2013-03-09T15:55:24.000Z</time>
      </trkpt>
      <trkpt lat="45.10637" lon="5.60386">
        <ele>1303</ele>
        <time>2013-03-09T15:55:32.000Z</time>
      </trkpt>
      <trkpt lat="45.10645" lon="5.60384">
        <ele>1303</ele>
        <time>2013-03-09T15:55:35.000Z</time>
      </trkpt>
      <trkpt lat="45.10647" lon="5.60386">
        <ele>1303</ele>
        <time>2013-03-09T15:55:36.000Z</time>
      </trkpt>
      <trkpt lat="45.10652" lon="5.60382">
        <ele>1303</ele>
        <time>2013-03-09T15:55:37.000Z</time>
      </trkpt>
      <trkpt lat="45.10657" lon="5.60378">
        <ele>1304</ele>
        <time>2013-03-09T15:55:38.000Z</time>
      </trkpt>
      <trkpt lat="45.10661" lon="5.60379">
        <ele>1303</ele>
        <time>2013-03-09T15:55:39.000Z</time>
      </trkpt>
      <trkpt lat="45.10664" lon="5.60381">
        <ele>1303</ele>
        <time>2013-03-09T15:55:40.000Z</time>
      </trkpt>
      <trkpt lat="45.10668" lon="5.60382">
        <ele>1299</ele>
        <time>2013-03-09T15:55:42.000Z</time>
      </trkpt>
      <trkpt lat="45.10669" lon="5.60385">
        <ele>1298</ele>
        <time>2013-03-09T15:55:43.000Z</time>
      </trkpt>
      <trkpt lat="45.10668" lon="5.60385">
        <ele>1298</ele>
        <time>2013-03-09T15:55:44.000Z</time>
      </trkpt>
      <trkpt lat="45.10673" lon="5.60379">
        <ele>1299</ele>
        <time>2013-03-09T15:55:52.000Z</time>
      </trkpt>
      <trkpt lat="45.10676" lon="5.60382">
        <ele>1298</ele>
        <time>2013-03-09T15:56:47.000Z</time>
      </trkpt>
      <trkpt lat="45.1069" lon="5.60378">
        <ele>1298</ele>
        <time>2013-03-09T15:56:55.000Z</time>
      </trkpt>
      <trkpt lat="45.10696" lon="5.60375">
        <ele>1298</ele>
        <time>2013-03-09T15:56:58.000Z</time>
      </trkpt>
      <trkpt lat="45.10698" lon="5.60379">
        <ele>1298</ele>
        <time>2013-03-09T15:57:00.000Z</time>
      </trkpt>
      <trkpt lat="45.107" lon="5.60379">
        <ele>1298</ele>
        <time>2013-03-09T15:57:01.000Z</time>
      </trkpt>
      <trkpt lat="45.10704" lon="5.60377">
        <ele>1298</ele>
        <time>2013-03-09T15:57:05.000Z</time>
      </trkpt>
      <trkpt lat="45.10705" lon="5.60377">
        <ele>1298</ele>
        <time>2013-03-09T15:57:06.000Z</time>
      </trkpt>
      <trkpt lat="45.10708" lon="5.60375">
        <ele>1298</ele>
        <time>2013-03-09T15:57:20.000Z</time>
      </trkpt>
      <trkpt lat="45.10709" lon="5.60375">
        <ele>1298</ele>
        <time>2013-03-09T15:57:21.000Z</time>
      </trkpt>
      <trkpt lat="45.10708" lon="5.60374">
        <ele>1298</ele>
        <time>2013-03-09T15:57:39.000Z</time>
      </trkpt>
    </trkseg>
  </trk>
</gpx>